[[{"header":{"parameterUnit":"m.s-1","parameterCategory":1,"la1":30.6,"la2":28.766,"lo1":-90.7593,"lo2":-88.6598,"dy":0.0162,"dx":0.0183,"nx":116,"ny":114,"refTime":"2024-04-10T06:00:00:Z","depth":0,"parameterNumber":2,"parameterNumberName":"U-component_of_WINDS"},"data":[0.0,0.0,0.0,0.0,0.0,0.0,0.0,0.0,0.0,0.0,0.0,0.0,0.0,0.0,0.0,0.0,0.0,0.0,0.0,0.0,0.0,0.0,0.0,0.0,0.0,0.0,0.0,0.0,0.0,0.0,0.0,0.0,0.0,0.0,0.0,0.0,0.0,0.0,0.0,0.0,0.0,0.0,0.0,0.0,0.0,0.0,0.0,0.0,0.0,0.0,0.0,0.0,0.0,0.0,0.0,0.0,0.0,0.0,0.0,0.0,0.0,0.0,0.0,0.0,0.0,0.0,0.0,0.0,0.0,0.0,0.0,0.0,0.0,0.0,0.0,0.0,0.0,0.0,0.0,0.0,0.0,0.0,0.0,0.0,0.0,0.0,0.0,0.0,0.0,0.0,0.0,0.0,0.0,0.0,0.0,0.0,0.0,0.0,0.0,0.0,0.0,0.0,0.0,0.0,0.0,0.0,0.0,0.0,0.0,0.0,0.0,0.0,0.0,0.0,0.0,0.0,0.0,0.0,0.0,0.0,0.0,0.0,0.0,0.0,0.0,0.0,0.0,0.0,0.0,0.0,0.0,0.0,0.0,0.0,0.0,0.0,0.0,0.0,0.0,0.0,0.0,0.0,0.0,0.0,0.0,0.0,0.0,0.0,0.0,0.0,0.0,0.0,0.0,0.0,0.0,0.0,0.0,0.0,0.0,0.0,0.0,0.0,0.0,0.0,0.0,0.0,0.0,0.0,0.0,0.0,0.0,0.0,0.0,0.0,0.0,0.0,0.0,0.0,0.0,0.0,0.0,0.0,0.0,0.0,0.0,0.0,0.0,0.0,0.0,0.0,0.0,0.0,0.0,0.0,0.0,0.0,0.0,0.0,0.0,0.0,0.0,0.0,0.0,0.0,0.0,0.0,0.0,0.0,0.0,0.0,0.0,0.0,0.0,0.0,0.0,0.0,0.0,0.0,0.0,0.0,0.0,0.0,0.0,0.0,0.0,0.0,0.0,0.0,0.0,0.0,0.0,0.0,0.0,0.0,0.0,0.0,0.0,0.0,0.0,0.0,0.0,0.0,0.0,0.0,0.0,0.0,0.0,0.0,0.0,0.0,0.0,0.0,0.0,0.0,0.0,0.0,0.0,0.0,0.0,0.0,0.0,0.0,0.0,0.0,0.0,0.0,0.0,0.0,0.0,0.0,0.0,0.0,0.0,0.0,0.0,0.0,0.0,0.0,0.0,0.0,0.0,0.0,0.0,0.0,0.0,0.0,0.0,0.0,0.0,0.0,0.0,0.0,0.0,0.0,0.0,0.0,0.0,0.0,0.0,0.0,0.0,0.0,0.0,0.0,0.0,0.0,0.0,0.0,0.0,0.0,0.0,0.0,0.0,0.0,0.0,0.0,0.0,0.0,0.0,0.0,0.0,0.0,0.0,0.0,0.0,0.0,0.0,0.0,0.0,0.0,0.0,0.0,0.0,0.0,0.0,0.0,0.0,0.0,0.0,0.0,0.0,0.0,0.0,0.0,0.0,0.0,0.0,0.0,0.0,0.0,0.0,0.0,0.0,0.0,0.0,0.0,0.0,0.0,0.0,0.0,0.0,0.0,0.0,0.0,0.0,0.0,0.0,0.0,0.0,0.0,0.0,0.0,0.0,0.0,0.0,0.0,0.0,0.0,0.0,0.0,0.0,0.0,0.0,0.0,0.0,0.0,0.0,0.0,0.0,0.0,0.0,0.0,0.0,0.0,0.0,0.0,0.0,0.0,0.0,0.0,0.0,0.0,0.0,0.0,0.0,0.0,0.0,0.0,0.0,0.0,0.0,0.0,0.0,0.0,0.0,0.0,0.0,0.0,0.0,0.0,0.0,0.0,0.0,0.0,0.0,0.0,0.0,0.0,0.0,0.0,0.0,0.0,0.0,0.0,0.0,0.0,0.0,0.0,0.0,0.0,0.0,0.0,0.0,0.0,0.0,0.0,0.0,0.0,0.0,0.0,0.0,0.0,0.0,0.0,0.0,0.0,0.0,0.0,0.0,0.0,0.0,0.0,0.0,0.0,0.0,0.0,0.0,0.0,0.0,0.0,0.0,0.0,0.0,0.0,0.0,0.0,0.0,0.0,0.0,0.0,0.0,0.0,0.0,0.0,0.0,0.0,0.0,0.0,0.0,0.0,0.0,0.0,0.0,0.0,0.0,0.0,0.0,0.0,0.0,0.0,0.0,0.0,0.0,0.0,0.0,0.0,0.0,0.0,0.0,0.0,0.0,0.0,0.0,0.0,0.0,0.0,0.0,0.0,0.0,0.0,0.0,0.0,0.0,0.0,0.0,0.0,0.0,0.0,0.0,0.0,0.0,0.0,0.0,0.0,0.0,0.0,0.0,0.0,0.0,0.0,0.0,0.0,0.0,0.0,0.0,0.0,0.0,0.0,0.0,0.0,0.0,0.0,0.0,0.0,0.0,0.0,0.0,0.0,0.0,0.0,0.0,0.0,0.0,0.0,0.0,0.0,0.0,0.0,0.0,0.0,0.0,0.0,0.0,0.0,0.0,0.0,0.0,0.0,0.0,0.0,0.0,0.0,0.0,0.0,0.0,0.0,0.0,0.0,0.0,0.0,0.0,0.0,0.0,0.0,0.0,0.0,0.0,0.0,0.0,0.0,0.0,0.0,0.0,0.0,0.0,0.0,0.0,0.0,0.0,0.0,0.0,0.0,0.0,0.0,0.0,0.0,0.0,0.0,0.0,0.0,0.0,0.0,0.0,0.0,0.0,0.0,0.0,0.0,0.0,0.0,0.0,0.0,0.0,0.0,0.0,0.0,0.0,0.0,0.0,0.0,0.0,0.0,0.0,0.0,0.0,0.0,0.0,0.0,0.0,0.0,0.0,0.0,0.0,0.0,0.0,0.0,0.0,0.0,0.0,0.0,0.0,0.0,0.0,0.0,0.0,0.0,0.0,0.0,0.0,0.0,0.0,0.0,0.0,0.0,0.0,0.0,0.0,0.0,0.0,0.0,0.0,0.0,0.0,0.0,0.0,0.0,0.0,0.0,0.0,0.0,0.0,0.0,0.0,0.0,0.0,0.0,0.0,0.0,0.0,0.0,0.0,0.0,0.0,0.0,0.0,0.0,0.0,0.0,0.0,0.0,0.0,0.0,0.0,0.0,0.0,0.0,0.0,0.0,0.0,0.0,0.0,0.0,0.0,0.0,0.0,0.0,0.0,0.0,0.0,0.0,0.0,0.0,0.0,0.0,0.0,0.0,0.0,0.0,0.0,0.0,0.0,0.0,0.0,0.0,0.0,0.0,0.0,0.0,0.0,0.0,0.0,0.0,0.0,0.0,0.0,0.0,0.0,0.0,0.0,0.0,0.0,0.0,0.0,0.0,0.0,0.0,0.0,0.0,0.0,0.0,0.0,0.0,0.0,0.0,0.0,0.0,0.0,0.0,0.0,0.0,0.0,0.0,0.0,0.0,0.0,0.0,0.0,0.0,0.0,0.0,0.0,0.0,0.0,0.0,0.0,0.0,0.0,0.0,0.0,0.0,0.0,0.0,0.0,0.0,0.0,0.0,0.0,0.0,0.0,0.0,0.0,0.0,0.0,0.0,0.0,0.0,0.0,0.0,0.0,0.0,0.0,0.0,0.0,0.0,0.0,0.0,0.0,0.0,0.0,0.0,0.0,0.0,0.0,0.0,0.0,0.0,0.0,0.0,0.0,0.0,0.0,0.0,0.0,0.0,0.0,0.0,0.0,0.0,0.0,0.0,0.0,0.0,0.0,0.0,0.0,0.0,0.0,0.0,0.0,0.0,0.0,0.0,0.0,0.0,0.0,0.0,0.0,0.0,0.0,0.0,0.0,0.0,0.0,0.0,0.0,0.0,0.0,0.0,0.0,0.0,0.0,0.0,0.0,0.0,0.0,0.0,0.0,0.0,0.0,0.0,0.0,0.0,0.0,0.0,0.0,0.0,0.0,0.0,0.0,0.0,0.0,0.0,0.0,0.0,0.0,0.0,0.0,0.0,0.0,0.0,0.0,0.0,0.0,0.0,0.0,0.0,0.0,0.0,0.0,0.0,0.0,0.0,0.0,0.0,0.0,0.0,0.0,0.0,0.0,0.0,0.0,0.0,0.0,0.0,0.0,0.0,0.0,0.0,0.0,0.0,0.0,0.0,0.0,0.0,0.0,0.0,0.0,0.0,0.0,0.0,0.0,0.0,0.0,0.0,0.0,0.0,0.0,0.0,0.0,0.0,0.0,0.0,0.0,0.0,0.0,0.0,0.0,0.0,0.0,0.0,0.0,0.0,0.0,0.0,0.0,0.0,0.0,0.0,0.0,0.0,0.0,0.0,0.0,0.0,0.0,0.0,0.0,0.0,0.0,0.0,0.0,0.0,0.0,0.0,0.0,0.0,0.0,0.0,0.0,0.0,0.0,0.0,0.0,0.0,0.0,0.0,0.0,0.0,0.0,0.0,0.0,0.0,0.0,0.0,0.0,0.0,0.0,0.0,0.0,0.0,0.0,0.0,0.0,0.0,0.0,0.0,0.0,0.0,0.0,0.0,0.0,0.0,0.0,0.0,0.0,0.0,0.0,0.0,0.0,0.0,0.0,0.0,0.0,0.0,0.0,0.0,0.0,0.0,0.0,0.0,0.0,0.0,0.0,0.0,0.0,0.0,0.0,0.0,0.0,0.0,0.0,0.0,0.0,0.0,0.0,0.0,0.0,0.0,0.0,0.0,0.0,0.0,0.0,0.0,0.0,0.0,0.0,0.0,0.0,0.0,0.0,0.0,0.0,0.0,0.0,0.0,0.0,0.0,0.0,0.0,0.0,0.0,0.0,0.0,0.0,0.0,0.0,0.0,0.0,0.0,0.0,0.0,0.0,0.0,0.0,0.0,0.0,0.0,0.0,0.0,0.0,0.0,0.0,0.0,0.0,0.0,0.0,0.0,0.0,0.0,0.0,0.0,0.0,0.0,0.0,0.0,0.0,0.0,0.0,0.0,0.0,0.0,0.0,0.0,0.0,0.0,0.0,0.0,0.0,0.0,0.0,0.0,0.0,0.0,0.0,0.0,0.0,0.0,0.0,0.0,0.0,0.0,0.0,0.0,0.0,0.0,0.0,0.0,0.0,0.0,0.0,0.0,0.0,0.0,0.0,0.0,0.0,0.0,0.0,0.0,0.0,0.0,0.0,0.0,0.0,0.0,0.0,0.0,0.0,0.0,0.0,0.0,0.0,0.0,0.0,0.0,0.0,0.0,0.0,0.0,0.0,0.0,0.0,0.0,0.0,0.0,0.0,0.0,0.0,0.0,0.0,0.0,0.0,0.0,0.0,0.0,0.0,0.0,0.0,0.0,0.0,0.0,0.0,0.0,0.0,0.0,0.0,0.0,0.0,0.0,0.0,0.0,0.0,0.0,0.0,0.0,0.0,0.0,0.0,0.0,0.0,0.0,0.0,0.0,0.0,0.0,0.0,0.0,0.0,0.0,0.0,0.0,0.0,0.0,0.0,0.0,0.0,0.0,0.0,0.0,0.0,0.0,0.0,0.0,0.0,0.0,0.0,0.0,0.0,0.0,0.0,0.0,0.0,0.0,0.0,0.0,0.0,0.0,0.0,0.0,0.0,0.0,0.0,0.0,0.0,0.0,0.0,0.0,0.0,0.0,0.0,0.0,0.0,0.0,0.0,0.0,0.0,0.0,0.0,0.0,0.0,0.0,0.0,0.0,0.0,0.0,0.0,0.0,0.0,0.0,0.0,0.0,0.0,0.0,0.0,0.0,0.0,0.0,0.0,0.0,0.0,0.0,0.0,0.0,0.0,0.0,0.0,0.0,0.0,0.0,0.0,0.0,0.0,0.0,0.0,0.0,0.0,0.0,0.0,0.0,0.0,0.0,0.0,0.0,0.0,0.0,0.0,0.0,0.0,0.0,0.0,0.0,0.0,0.0,0.0,0.0,0.0,0.0,0.0,0.0,0.0,0.0,0.0,0.0,0.0,0.0,0.0,0.0,0.0,0.0,0.0,0.0,0.0,0.0,0.0,0.0,0.0,0.0,0.0,0.0,0.0,0.0,0.0,0.0,0.0,0.0,0.0,0.0,0.0,0.0,-7.0055,-6.9343,0.0,0.0,0.0,0.0,0.0,0.0,0.0,0.0,0.0,0.0,0.0,0.0,0.0,0.0,0.0,0.0,0.0,0.0,0.0,0.0,0.0,0.0,0.0,-7.313,-7.5318,-7.6045,-7.9157,-8.0794,-8.0132,-8.1505,-8.171,-8.0259,-8.0209,-8.0209,-8.0209,-8.0175,-7.9727,-7.8914,-7.6321,-7.3282,-6.9806,-7.0787,-7.0936,-7.0402,0.0,0.0,0.0,0.0,0.0,0.0,0.0,0.0,0.0,0.0,0.0,0.0,0.0,0.0,0.0,0.0,0.0,0.0,0.0,0.0,0.0,0.0,0.0,0.0,0.0,0.0,0.0,0.0,0.0,0.0,0.0,0.0,0.0,0.0,0.0,0.0,0.0,0.0,0.0,0.0,0.0,0.0,0.0,0.0,0.0,0.0,0.0,0.0,0.0,0.0,0.0,0.0,0.0,0.0,0.0,0.0,0.0,0.0,0.0,0.0,0.0,0.0,0.0,0.0,0.0,0.0,0.0,0.0,0.0,0.0,-7.1004,-7.1395,0.0,0.0,0.0,0.0,0.0,0.0,0.0,0.0,0.0,0.0,0.0,0.0,0.0,0.0,0.0,0.0,0.0,0.0,0.0,0.0,0.0,-6.8138,-7.009,-7.332,-7.5859,-7.7079,-8.0339,-8.1833,-8.0665,-8.215,-8.234,-8.0665,-8.0581,-8.0581,-8.0581,-8.0899,-8.0108,-7.8061,-7.4407,-7.0828,-6.7291,-6.5783,-6.6128,-6.7882,-6.8756,0.0,0.0,0.0,0.0,0.0,0.0,0.0,0.0,0.0,0.0,0.0,0.0,0.0,0.0,0.0,0.0,0.0,0.0,0.0,0.0,0.0,0.0,0.0,0.0,0.0,0.0,0.0,0.0,0.0,0.0,0.0,0.0,0.0,0.0,0.0,0.0,0.0,0.0,0.0,0.0,0.0,0.0,0.0,0.0,0.0,0.0,0.0,0.0,0.0,0.0,0.0,0.0,0.0,0.0,0.0,0.0,0.0,0.0,0.0,0.0,0.0,0.0,0.0,-6.164,-6.3058,-6.683,-6.8624,-6.8208,-6.6221,-6.986,-7.1115,-7.0866,-7.2283,0.0,0.0,0.0,0.0,0.0,0.0,0.0,0.0,0.0,0.0,0.0,0.0,0.0,0.0,0.0,0.0,0.0,0.0,0.0,-6.8708,-7.0203,-7.414,-7.6684,-7.6693,-8.0173,-8.1729,-8.0198,-8.2191,-8.3055,-8.2137,-8.2137,-8.2137,-8.2137,-8.0801,-7.8389,-7.4613,-6.7576,-6.4284,-6.4691,-6.3201,-6.2911,-6.3584,-6.3737,-6.4526,-6.5679,0.0,0.0,0.0,0.0,0.0,0.0,0.0,0.0,0.0,0.0,0.0,0.0,0.0,0.0,0.0,0.0,0.0,0.0,0.0,0.0,0.0,0.0,0.0,0.0,0.0,0.0,0.0,0.0,0.0,0.0,0.0,0.0,0.0,0.0,0.0,0.0,0.0,0.0,0.0,0.0,0.0,-7.67,-7.3444,0.0,0.0,0.0,0.0,0.0,0.0,0.0,0.0,0.0,0.0,0.0,0.0,0.0,-5.6735,-5.1709,-5.4169,-5.7096,-6.0231,-5.9259,-6.0344,-6.3312,-6.5475,-6.6243,-6.6015,-6.6068,0.0,-6.6335,-6.8918,0.0,0.0,0.0,0.0,0.0,0.0,0.0,0.0,0.0,0.0,0.0,0.0,0.0,0.0,0.0,0.0,0.0,0.0,0.0,0.0,0.0,-7.4416,-7.557,-7.6683,-7.6893,-7.7107,-7.748,-7.9407,-8.0629,-8.1021,-8.1956,-8.2008,-8.1055,-7.9649,-7.6085,-7.0336,-6.5981,-6.3592,-6.2917,-6.3007,-6.3073,-6.3324,-6.3324,-6.3792,-6.4687,-6.3634,0.0,0.0,0.0,0.0,0.0,0.0,0.0,0.0,0.0,0.0,0.0,0.0,0.0,0.0,0.0,0.0,0.0,0.0,0.0,0.0,0.0,0.0,0.0,0.0,0.0,0.0,0.0,0.0,0.0,0.0,0.0,0.0,0.0,0.0,0.0,0.0,0.0,0.0,0.0,-8.1,-7.861,-7.5362,-7.3982,-7.2829,0.0,0.0,0.0,0.0,0.0,0.0,0.0,0.0,0.0,-5.4955,-5.665,-5.6226,-5.3257,-5.3117,-5.478,-5.8004,-5.7348,-5.8634,-6.1867,-6.4089,-6.4164,-6.2545,-6.3889,-6.3314,-6.1806,-6.6127,-6.7789,-6.8072,0.0,0.0,0.0,0.0,-8.2256,-8.3615,0.0,0.0,0.0,0.0,0.0,0.0,0.0,0.0,0.0,0.0,0.0,0.0,-7.5337,-7.4432,-7.4306,-7.5829,-7.4596,-7.4356,-7.5664,-7.7163,-7.8759,-8.0494,-8.1315,-8.137,-8.056,-7.7366,-7.2952,-6.7358,-6.4942,-6.3204,-6.2019,-6.3174,-6.3701,-6.3701,-6.3701,-6.3827,-6.4002,-6.2697,-6.2605,-6.3117,0.0,0.0,0.0,0.0,0.0,0.0,0.0,0.0,0.0,0.0,0.0,0.0,0.0,0.0,0.0,0.0,0.0,0.0,0.0,0.0,0.0,0.0,0.0,0.0,0.0,0.0,0.0,0.0,0.0,0.0,0.0,0.0,0.0,0.0,0.0,0.0,0.0,-8.1169,-7.9712,-7.6334,-7.5405,-7.4341,0.0,0.0,0.0,0.0,0.0,0.0,-6.3049,-6.1898,-6.0413,-5.8499,-5.7095,-5.5774,-5.4539,-5.2889,-5.3678,-5.6859,-5.659,-5.8081,-6.1346,-6.2861,-6.215,-5.9898,-6.1918,-6.1181,-5.9004,-6.3804,-6.5311,-6.5085,-7.0031,-7.1541,-7.129,-7.4933,-7.7149,-7.8346,0.0,0.0,0.0,0.0,0.0,0.0,0.0,0.0,0.0,0.0,0.0,-7.1659,-7.4454,-7.41,-7.355,-7.3409,-7.5356,-7.6486,-7.6273,-7.7255,-7.9089,-8.1976,-8.0696,-8.0637,-8.2042,-7.3678,-6.8556,-6.7045,-6.2634,-6.1018,-6.2019,-6.3174,-6.3701,-6.3701,-6.3701,-6.34,-6.2759,-6.105,-6.1022,-6.2008,-6.0808,0.0,0.0,0.0,0.0,0.0,0.0,0.0,0.0,0.0,0.0,0.0,0.0,0.0,0.0,0.0,0.0,0.0,0.0,0.0,0.0,0.0,0.0,0.0,0.0,0.0,0.0,0.0,0.0,0.0,0.0,0.0,0.0,0.0,0.0,0.0,0.0,0.0,0.0,-7.4255,-7.4192,0.0,0.0,0.0,0.0,-7.103,-7.1547,-6.9645,-6.4212,-6.4652,-6.2422,-5.6755,-5.6961,-5.5614,-5.2438,-5.2802,-5.4551,-5.7514,-5.7376,-5.8885,-6.166,-6.0955,-6.0309,-5.9805,-5.9507,-5.9291,-5.9305,-6.1842,-6.2778,-6.3143,-6.5977,-6.7206,-6.7196,-6.6928,-6.8195,-7.042,0.0,0.0,0.0,0.0,0.0,-6.2735,-6.7367,-7.0653,-7.3769,-7.7096,-7.5391,-7.4972,-7.7846,-7.4186,-7.1956,-7.3197,-7.1596,-7.0985,-7.2189,-7.3943,-7.5822,-7.7667,-7.9077,-7.8786,-7.6581,-7.0296,-6.6576,-6.5633,-6.2793,-6.1793,-6.2546,-6.3676,-6.4178,-6.4203,-6.4555,-6.3598,-6.1523,-5.9811,-5.8648,-5.8094,-5.8817,-5.8955,0.0,0.0,0.0,0.0,0.0,0.0,0.0,0.0,0.0,0.0,0.0,0.0,0.0,0.0,0.0,0.0,0.0,0.0,0.0,0.0,0.0,0.0,0.0,0.0,0.0,0.0,0.0,0.0,0.0,0.0,0.0,0.0,0.0,0.0,0.0,0.0,0.0,-7.5001,-7.5126,0.0,-7.6456,-7.4876,-7.3543,-7.2796,-6.9929,-6.74,-6.5635,-6.4754,-6.3267,-6.113,-5.9429,-5.7985,-5.6737,-5.5107,-5.5676,-5.8566,-5.8566,-5.9962,-6.2519,-6.1953,-6.1133,-6.0215,-6.0039,-5.9687,-5.9272,-6.0075,-6.0257,-6.0284,-6.3014,-6.3972,-6.3882,-6.5484,-6.6745,-6.8088,0.0,0.0,0.0,0.0,0.0,-6.5329,-7.0749,-7.3844,-7.6458,-7.9128,-7.6892,-7.5756,-7.7683,-7.33,-7.074,-7.212,-6.9814,-6.9153,-7.1158,-7.2317,-7.3937,-7.6236,-7.7748,-7.6401,-7.1671,-6.8872,-6.6524,-6.4617,-6.3492,-6.297,-6.2847,-6.3776,-6.4203,-6.4228,-6.458,-6.2947,-5.9675,-5.8352,-5.7108,-5.608,-5.6596,-5.6762,-5.7063,0.0,0.0,0.0,0.0,0.0,0.0,0.0,0.0,0.0,0.0,0.0,0.0,0.0,0.0,0.0,0.0,0.0,0.0,0.0,0.0,0.0,0.0,0.0,0.0,0.0,0.0,0.0,0.0,0.0,0.0,0.0,0.0,0.0,0.0,-7.865,-7.8057,-7.6295,-7.6381,-7.7034,-7.8164,-7.5418,-7.3464,-7.302,-6.8954,-6.6272,-6.57,-6.4632,-6.4199,-6.4316,-6.009,-5.8379,-5.9538,-5.6358,-5.6256,-5.934,-6.0091,-6.1408,-6.3027,-6.2285,-6.1484,-6.0664,-6.0488,-6.0039,-5.9414,-5.9414,-5.9121,-5.8952,-6.0765,-6.1723,-6.2337,-6.4219,-6.6188,-6.8386,0.0,0.0,0.0,0.0,0.0,-6.928,-7.3178,-7.681,-7.8889,-7.8111,-7.5509,-7.3676,-7.3588,-7.1383,-6.9961,-7.0021,-7.056,-7.1727,-7.3702,-7.2624,-7.3809,-7.7992,-7.6789,-7.3547,-6.8266,-6.935,-6.8009,-6.4002,-6.4658,-6.4167,-6.2847,-6.3425,-6.3701,-6.3701,-6.3726,-6.1352,-5.738,-5.6776,-5.6509,-5.6287,-5.4385,-5.492,-5.7201,0.0,0.0,0.0,0.0,0.0,0.0,0.0,0.0,0.0,0.0,0.0,0.0,0.0,0.0,0.0,0.0,0.0,0.0,0.0,0.0,0.0,0.0,0.0,0.0,0.0,0.0,0.0,0.0,0.0,0.0,0.0,0.0,0.0,-7.7957,-7.8603,-7.8562,-7.7813,-7.7762,-7.8239,-7.9369,-7.6501,-7.3625,-7.1494,-6.9158,-6.6798,-6.4477,-6.4765,-6.5091,-6.5481,-5.8992,-5.7014,-6.0134,-5.6621,-5.656,-5.9606,-6.1873,-6.2947,-6.2988,-6.1621,-6.0998,-6.1074,-6.0625,-6.0215,-5.9824,-5.9805,-5.957,-5.9199,-5.9272,-6.0707,-6.2713,-6.282,-6.6069,-7.0743,0.0,0.0,0.0,-5.8398,-6.4306,-6.9493,-7.3835,-7.7547,-7.9634,-7.8889,-7.6691,-7.5029,-7.4914,-7.1967,-7.035,-7.1278,-7.1068,-7.1338,-7.2355,-7.2565,-7.3364,-7.5073,-7.2105,-7.0068,-6.9436,-6.8342,-6.6742,-6.4658,-6.3822,-6.3215,-6.2847,-6.3425,-6.3701,-6.3726,-6.4505,-6.2996,-5.9879,-5.8683,-5.7314,-5.5927,-5.463,-5.3808,-5.391,0.0,0.0,0.0,0.0,0.0,0.0,0.0,0.0,0.0,0.0,0.0,0.0,0.0,0.0,0.0,0.0,0.0,0.0,0.0,0.0,0.0,0.0,0.0,0.0,0.0,0.0,0.0,0.0,0.0,0.0,0.0,-7.6639,-7.5969,-7.6148,-7.7125,-7.792,-7.8292,-7.9344,-8.0524,-8.1654,-7.7214,-7.4129,-7.38,-6.9391,-6.6511,-6.6258,-6.6289,-6.5197,-6.2717,-6.3074,-6.2345,-6.0804,-6.2234,-6.3135,-6.3338,-6.1894,-6.1824,-6.2889,-6.0041,-5.9622,-6.1094,-6.0957,-6.0664,-6.0254,-5.9922,-5.9746,-5.9815,-6.1512,-6.269,-6.3412,-6.5514,-6.8249,-7.0845,0.0,0.0,0.0,-6.1679,-6.665,-7.1004,-7.5451,-7.8707,-7.9702,-7.7179,-7.6387,-7.5278,-7.3006,-7.1566,-7.0979,-7.1427,-7.1906,-7.2445,-7.3103,-7.3023,-7.2148,-7.0337,-6.8634,-6.7355,-6.6696,-6.711,-6.6126,-6.3724,-6.3895,-6.3665,-6.2847,-6.3174,-6.345,-6.3726,-6.4329,-6.3337,-6.1193,-6.0578,-5.8662,-5.6005,-5.5838,-5.4602,-5.3231,-5.6623,-5.7647,-5.7612,-6.0454,-6.1676,-6.1712,-6.0158,0.0,0.0,0.0,0.0,0.0,0.0,0.0,0.0,0.0,0.0,0.0,0.0,0.0,0.0,0.0,0.0,0.0,0.0,0.0,0.0,0.0,0.0,0.0,0.0,-7.4781,-7.4331,-7.67,-7.7499,-7.8376,-7.9698,-8.1152,-8.2558,-8.3939,-7.8615,-7.5299,-7.6014,-7.0505,-6.7148,-6.7383,-6.7441,-6.5735,-6.196,-6.358,-6.3522,-6.1272,-6.2873,-6.4275,-6.5215,-6.2874,-6.2295,-6.2889,-6.0727,-6.0398,-6.1367,-6.1367,-6.1094,-6.0683,-6.0449,-6.0156,-6.0084,0.0,0.0,0.0,0.0,-7.2787,-7.3616,0.0,0.0,0.0,-6.6433,-6.9888,-7.3054,-7.736,-7.9938,-7.9651,-7.4604,-7.5524,-7.486,-6.9863,-7.0641,-7.1338,-7.0829,-7.2565,-7.3971,-7.4719,-7.3416,-7.0535,-6.5945,-6.6574,-6.5589,-6.2602,-6.587,-6.5822,-6.2094,-6.4319,-6.4551,-6.2822,-6.2822,-6.3149,-6.3701,-6.3751,-6.3101,-6.2059,-6.2344,-6.0341,-5.6959,-5.7585,-5.6352,-5.4247,-5.6023,-5.6571,-5.6856,-6.0455,-6.1333,-6.071,-6.0552,0.0,0.0,0.0,0.0,0.0,0.0,0.0,0.0,0.0,0.0,0.0,0.0,0.0,0.0,0.0,0.0,0.0,0.0,0.0,0.0,0.0,0.0,0.0,0.0,-7.3174,-7.2831,-7.8959,-7.9084,-7.9455,-8.1855,-8.3085,-8.4281,-8.545,-8.0072,-7.6789,-7.7395,-7.1823,-6.8301,-6.8242,-6.8242,0.0,0.0,0.0,-6.2401,-6.1596,-6.1221,-6.2496,-6.5527,-6.3951,-6.3097,-6.293,-6.2165,-6.1776,-6.1719,-6.1719,-6.1484,-6.1094,-6.1035,-6.0925,-6.0884,-6.3007,-6.588,-6.9605,-7.6189,-7.8155,-7.7844,0.0,0.0,-6.0568,-6.6637,-6.9888,-7.3054,-7.736,-8.0378,-8.0513,-7.5912,-7.618,-7.5234,-7.1132,-7.0035,-6.9722,-7.0141,-7.1457,-7.2774,-7.4001,-7.1483,-6.9696,-6.9021,-6.7797,-6.629,-6.4394,-6.5573,-6.5004,-6.2672,-6.3154,-6.3204,-6.2822,-6.2822,-6.3149,-6.3701,-6.4128,-6.4403,-6.4516,-6.3073,-6.1464,-5.9732,-5.7919,-5.615,-5.4615,-5.4553,-5.5223,-5.6429,-5.806,-5.9362,-6.0357,-6.186,-6.0983,-5.9631,-6.1408,-6.0845,0.0,0.0,0.0,0.0,0.0,0.0,0.0,0.0,0.0,0.0,0.0,0.0,0.0,0.0,0.0,0.0,0.0,0.0,0.0,-7.7481,-7.7034,-7.8076,-8.1523,-8.0501,-8.0451,-8.3436,-8.4818,-8.4739,-8.2821,-7.9888,-7.7082,-7.4569,-7.1236,-6.9062,-6.8711,-6.8691,-6.6689,-6.2322,-6.4968,-6.4908,-6.1596,-6.3876,-6.5101,-6.5058,-6.1625,0.0,-6.2382,-5.9559,-5.9535,-6.1719,-6.1719,-6.1484,-6.1074,-6.0723,-6.277,-6.6183,-6.6606,-7.0776,-7.667,-7.7671,-7.8887,-8.0036,0.0,-6.0322,-6.3059,-6.8644,-7.1302,-7.4004,-7.7916,-8.075,-8.1086,-7.7413,-7.8157,-7.7552,-7.3868,-7.3411,-7.3663,-7.4408,-7.461,-7.4191,-7.3043,-7.1162,-6.901,-6.6695,-6.6216,-6.5296,-6.3488,-6.3975,-6.3801,-6.2822,-6.2822,-6.2973,-6.3249,-6.2973,-6.3425,-6.4479,-6.4479,-6.4931,-6.5649,-6.5024,-6.3083,-6.0273,-5.937,-5.7139,-5.4336,-5.4121,-5.5065,-5.6723,-5.7485,-5.8919,-6.0634,-6.2225,-6.2233,-6.1742,-6.2895,-6.2829,-6.2324,0.0,0.0,0.0,0.0,0.0,0.0,0.0,0.0,0.0,0.0,0.0,0.0,0.0,0.0,-8.0347,-7.8425,0.0,-7.887,-7.862,-7.8149,-7.9378,-8.372,-8.2109,-8.1017,-8.2514,-8.2157,-8.1433,-8.0635,-7.8216,-7.6116,-7.4739,-7.1854,-6.9922,-6.9453,-6.9453,-6.7433,-6.305,-6.6049,-6.5873,-6.1997,-6.4616,-6.5703,-6.5234,-6.2817,-6.2216,-6.3027,-6.1068,-6.0844,-6.2148,-6.3123,-6.2753,-6.1463,-6.2241,-6.5536,-7.016,-7.1106,-7.4341,-7.8379,-7.9327,-8.0885,-8.2623,0.0,0.0,-6.6472,-7.0942,-7.2942,-7.5086,-7.8555,-8.0987,-8.1402,-7.8664,-7.9892,-7.9744,-7.6379,-7.6824,-7.7869,-7.8991,-7.7464,-7.5505,-7.3363,-7.1954,-6.9238,-6.4876,-6.5418,-6.4769,-6.2763,-6.2759,-6.2873,-6.2998,-6.2998,-6.3299,-6.3827,-6.3375,-6.3902,-6.5283,-6.4831,-6.5183,-6.6137,-6.6614,-6.448,-6.0855,-6.0701,-5.8211,-5.4558,-5.438,-5.5342,-5.6807,-5.7507,-5.9034,-6.0849,-6.2274,-6.3149,-6.345,-6.3099,-6.3601,-6.4194,-6.3303,-6.2489,0.0,0.0,0.0,0.0,0.0,0.0,0.0,0.0,-7.8401,-8.1097,-7.8351,-7.9049,-7.9684,-7.8478,-7.88,-7.9489,-7.9831,-7.9213,-8.0465,-8.5437,-8.3636,-8.1656,-8.152,-8.0035,-7.8797,-7.8456,-7.6462,-7.5039,-7.4872,-7.234,-7.0664,-7.0254,-7.0137,-6.8441,-6.4706,-6.6934,-6.6642,-6.3232,-6.4792,-6.5898,-6.6293,-6.4838,-6.4209,-6.4433,-6.3246,-6.2637,-6.254,-6.445,-6.4544,-6.3287,-6.4757,-6.8498,-7.3236,-7.4739,-7.7072,-7.9908,-8.1731,-8.3533,-8.5422,0.0,0.0,0.0,-7.2283,-7.3719,-7.565,-7.8656,-8.0987,-8.1578,-7.9297,-7.9735,-7.9441,-7.705,-7.6344,-7.7061,-7.9572,-7.5577,-7.4315,-7.7482,-7.401,-7.1267,-7.0078,-6.9012,-6.7517,-6.5451,-6.3695,-6.3073,-6.3601,-6.3601,-6.3877,-6.4379,-6.4304,-6.463,-6.5283,-6.5233,-6.5534,-6.6112,-6.6187,-6.514,-6.3237,-6.0588,-5.8452,-5.678,-5.587,-5.5633,-5.5945,-5.7266,-5.8805,-6.0371,-6.2151,-6.2873,-6.2998,-6.345,-6.3676,-6.3994,-6.5293,-6.5581,-6.5756,-6.6788,-6.6501,-6.644,-6.8539,-6.9991,-7.1088,0.0,-7.3654,-7.5008,-7.4493,-7.5324,-7.63,-7.6698,-7.811,-7.9782,-8.1216,-8.2611,-8.4201,-8.6425,-8.4374,-8.2895,-8.3229,-8.3275,-8.1272,-7.5866,-7.5809,-7.4932,-7.2056,-7.1539,-7.1133,-7.0664,-7.0312,-6.9556,-6.8288,-6.814,-6.7821,-6.697,-6.6086,-6.6807,-6.8964,-6.505,-6.4511,-6.6982,-6.3455,-6.207,-6.254,-6.4543,-6.6545,-6.8258,-6.8114,-7.0807,-7.5184,-7.478,-7.9362,-8.5991,-8.5622,-8.6612,-8.8308,0.0,0.0,0.0,-7.6049,-7.6043,-7.7011,-7.9955,-8.0733,-8.1324,-8.2202,-8.1755,-8.137,-8.1411,-8.1534,-8.1443,-8.0982,-7.804,-7.6369,-7.6885,-7.4172,-7.2028,-7.0947,-6.9931,-6.823,-6.5844,-6.4439,-6.3751,-6.3701,-6.4002,-6.4429,-6.4957,-6.4957,-6.5233,-6.576,-6.576,-6.5886,-6.6137,-6.6463,-6.5562,-6.3785,-6.2242,-6.0427,-5.8329,-5.7393,-5.7324,-5.7939,-5.9853,-6.1661,0.0,-6.3619,-6.4002,-6.4203,-6.3827,-6.4128,-6.4881,-6.6212,-6.6388,-6.6086,-6.5911,-6.6413,-6.7497,-6.9407,-7.0572,-7.1375,-7.2054,-7.4547,-7.6032,-7.411,-7.5022,-7.6671,-7.7941,-7.9028,-8.0371,-8.2093,-8.3989,-8.5747,-8.7103,-8.6352,-8.5147,-8.3585,-8.3585,-8.1424,-7.5905,-7.4445,-7.3159,-7.1541,-7.1367,-7.1074,-7.039,-7.0195,-6.9687,-6.8828,-6.8418,-6.7949,-6.75,-6.6465,-6.6323,-6.7176,-6.5081,-6.4688,-6.5567,-6.3681,-6.4436,-6.6953,-6.5848,-6.9363,-7.5603,-7.3662,-7.5957,-8.0762,-8.1959,-8.4719,-8.8071,-8.7062,-8.8289,-9.0489,0.0,0.0,0.0,-7.9871,-7.9017,-7.8958,-8.097,-8.111,-8.1612,-8.3402,-8.281,-8.2458,-8.3221,-8.3777,-8.3499,-8.188,-7.9722,-7.7936,-7.6668,-7.4602,-7.2708,-7.0976,-7.0156,-6.8557,-6.6081,-6.5058,-6.4429,-6.4354,-6.458,-6.5132,-6.5986,-6.5835,-6.6061,-6.6564,-6.6413,-6.6363,-6.6363,-6.6639,-6.594,-6.4704,-6.3523,-6.1936,-6.0136,-5.9158,-5.9144,-5.9863,-6.1494,-6.314,-6.463,-6.468,-6.4856,-6.4982,-6.4505,-6.4881,-6.5735,-6.6865,-6.7216,-6.7091,-6.6287,-6.6965,-6.8259,-6.9738,-7.0732,-7.1591,-7.219,-7.4624,-7.6228,-7.4258,-7.5158,-7.6856,-7.8568,-7.9555,-8.0574,-8.2382,-8.4416,-8.6148,-8.7203,-8.8008,-8.753,-8.5055,-8.4202,-8.2304,-7.847,-7.4919,-7.2289,-7.1345,-7.1074,-7.0742,-7.0137,-6.9863,-6.9512,-6.8984,-6.8476,-6.8027,-6.7676,-6.6816,-6.6652,-6.7044,-6.5564,-6.5294,-6.5927,-6.4464,-6.6332,-7.0513,-6.7835,-7.2078,-8.0614,-7.8462,-8.0629,-8.555,-8.748,-8.9059,-9.0168,-8.9322,-9.0152,-9.1955,0.0,0.0,0.0,0.0,-8.2467,-8.1646,-8.1326,-8.2457,-8.2892,-8.1368,-8.1769,-8.1589,-8.0135,-7.9986,-8.0502,-8.1755,-7.913,-7.7634,-7.8281,-7.6129,-7.3626,-7.1005,-7.0156,-6.8748,-6.6767,-6.5262,-6.4982,-6.6036,-6.5509,-6.6112,-6.7719,-6.7166,-6.7216,-6.7719,-6.7191,-6.694,-6.6915,-6.6363,-6.6463,-6.6679,-6.3731,-6.2493,-6.2285,-6.113,-6.0703,-6.0742,-6.0813,-6.1692,-6.3149,-6.4731,-6.4931,-6.468,-6.571,-6.6061,-6.6312,-6.7442,-6.8899,-7.0129,-7.0104,-7.0129,-7.0029,-6.9592,-6.9868,-7.0538,-7.0999,-7.2073,-7.3181,-7.4167,-7.4846,-7.5776,-7.7436,-7.8718,-8.0122,-8.2307,-8.4064,-8.5571,-8.6676,-8.9104,-9.0191,-8.8822,-8.6322,-8.4665,-8.4267,-7.8553,-7.3615,-7.095,-7.0371,-7.0097,-7.0097,-6.9277,-6.9043,-6.9394,-6.8633,-6.8183,-6.8183,-6.7265,-6.8211,-7.0596,-6.6748,-6.669,-6.9886,-6.6088,-6.6784,-7.1115,-7.0535,-7.4485,-8.1343,-8.1317,-8.3933,-8.7983,-8.8734,-9.084,-9.3455,-9.3396,-9.3007,-9.2583,0.0,0.0,0.0,0.0,0.0,-8.3197,-8.2818,-8.2288,-8.1901,-8.1859,-8.1108,0.0,0.0,0.0,0.0,0.0,-7.839,-7.7293,-7.7373,-7.497,-7.3372,-7.2906,-7.1712,-7.0532,-6.9549,-6.788,-6.7048,-6.7048,-6.6188,-6.6137,-6.6689,-6.7267,-6.7216,-6.6714,-6.7267,-6.7116,-6.6413,-6.6614,-6.7216,-6.7831,-6.5323,-6.5318,-6.6696,-6.5333,-6.5123,-6.5791,0.0,-6.7654,-6.7429,-6.937,-6.9042,-6.7624,-6.726,-6.6642,-6.6488,-6.8346,-6.8048,-6.7177,-6.7423,-6.6251,-6.5515,-6.77,-6.8995,-7.0371,-7.2761,-7.4146,-7.495,-7.495,-7.5101,-7.5967,-7.8466,-7.8843,-7.9909,-8.3346,-8.4593,-8.6135,-8.9143,-9.0341,-9.0764,-9.0534,-9.0077,-8.8353,-8.4685,-7.7679,-7.3326,-7.3041,-7.0869,-6.9668,-6.9668,-6.9394,-6.916,-6.9043,-6.875,-6.8476,-6.8183,-6.7598,-6.7557,-6.817,-6.5963,-6.551,-6.663,-6.6503,-6.8329,-7.163,-7.2542,-7.7246,-8.4417,-8.4131,-8.7044,-9.1709,-9.1946,-9.2912,-9.4259,-9.4259,-9.411,-9.3642,0.0,0.0,0.0,0.0,0.0,0.0,0.0,0.0,0.0,0.0,0.0,0.0,0.0,0.0,0.0,0.0,0.0,-7.6605,-7.6165,-7.5542,-7.4892,-7.4099,-7.4446,-7.4085,-7.3052,-7.1478,-7.076,-7.0894,-6.8037,-6.7051,-6.7844,-6.7046,-6.6438,-6.6137,-6.6664,-6.6488,-6.5835,-6.6011,-6.7436,-6.945,-6.7315,-6.8263,-7.0741,-6.8702,-6.8344,0.0,-7.1126,-7.1573,-7.1437,-7.2433,-7.1714,-7.0232,-6.8994,-6.7751,-6.6891,-6.7859,-6.725,-6.618,-6.5227,-6.4466,-6.4391,-6.6746,-6.8195,-6.961,-7.1898,-7.3663,-7.4611,-7.4045,-7.5101,-7.6663,-7.8567,-7.8375,-7.913,-8.2669,-8.3914,-8.5663,-8.925,-9.1075,-9.2124,-9.2055,-9.2294,-9.1035,-8.7555,-8.1248,-7.7035,-7.6305,-7.4047,-7.217,-7.0921,-7.0781,-7.0244,-6.9043,-6.875,-6.8535,-6.8418,-6.7949,-6.7441,-6.6875,-6.6777,-6.669,-6.6873,-6.8707,-7.112,-7.3779,-7.4639,-7.9302,-8.625,-8.5985,-8.8934,-9.3601,-9.384,-9.4229,-9.4618,-9.4618,-9.4618,-9.4241,0.0,0.0,0.0,0.0,0.0,0.0,0.0,0.0,0.0,0.0,0.0,0.0,0.0,0.0,0.0,0.0,0.0,0.0,-7.5155,-7.7728,-7.7903,-7.4834,-7.7929,-7.8924,-7.7063,-7.5802,-7.5768,-7.6915,-7.0997,-6.9126,-7.1079,-6.692,-6.5445,-6.6404,-6.5899,-6.5672,-6.5622,-6.5092,-6.7461,-7.1336,-6.9444,-7.1015,-7.4233,-7.1108,-7.0332,-7.0998,-7.1938,-7.3399,-7.4758,-7.379,-7.3079,-7.2137,-7.0326,-6.8845,-6.7452,-6.6083,-6.6536,-6.6781,-6.3945,-6.4681,-6.638,-6.6425,-6.7264,-6.8302,-6.8963,-7.0795,-7.2409,-7.2019,-7.4968,-7.7666,-7.7917,-7.7363,-7.7836,-8.0702,-8.2469,-8.4491,-8.7478,-9.1717,-9.4398,-9.3801,-9.3382,-9.2978,-9.2678,-8.8834,-8.4708,-8.0832,-7.9255,-7.7179,-7.4026,-7.3542,-7.2238,-6.9637,-6.8892,-6.8676,-6.8828,-6.8547,-6.7951,-6.7175,-6.9292,-7.029,-7.0488,-7.2593,-7.5013,-7.7403,-7.6894,-8.0566,-8.6995,-8.7062,-8.9705,-9.375,-9.4379,-9.4618,-9.4618,-9.4618,-9.4618,-9.4241,0.0,0.0,0.0,0.0,0.0,0.0,0.0,0.0,0.0,0.0,0.0,0.0,0.0,0.0,0.0,0.0,0.0,0.0,-7.8071,-7.7494,-7.7522,-7.847,-7.8844,-7.9318,-7.9953,-7.8468,-7.7563,-7.7101,-7.4436,-7.2768,-7.2148,-7.142,-7.0961,-7.0907,-7.1123,-7.1015,-7.0664,-7.0529,-7.1609,-7.3241,-7.1107,-7.1895,-7.4183,-7.2775,-7.2851,-7.4009,-7.5727,-7.661,-7.694,-7.6696,-7.4496,-7.1104,-6.7147,-6.6246,-6.6292,-6.525,-6.4292,-6.3402,-6.2502,-6.1488,-6.1319,-6.3966,-6.5104,-6.669,-7.0621,-7.1743,-7.261,-7.5595,-7.6342,-7.7438,-8.0382,-7.9099,-7.8817,-8.2968,-8.4559,-8.687,-9.1258,-9.5021,-9.7471,-9.7888,-9.8283,-9.7897,-9.6325,-9.4685,-9.2479,-8.935,-8.3336,-7.8819,-7.6795,-7.6981,-7.5757,-7.2671,-7.2667,-7.1676,-6.9277,-7.0879,-7.1082,-6.9846,-7.2906,-7.4149,-7.3891,-7.6388,-7.7873,-7.8537,-7.9865,-8.3604,-8.8843,-8.7933,-9.0527,-9.5037,-9.4738,-9.4618,-9.4618,-9.4618,-9.4618,-9.395,0.0,0.0,0.0,0.0,0.0,0.0,0.0,0.0,0.0,0.0,0.0,0.0,0.0,0.0,0.0,0.0,0.0,0.0,0.0,-7.8842,-7.9696,-8.1761,-8.2498,-8.3209,-8.4031,-8.2442,-8.1855,-8.2195,-7.7875,-7.6004,-7.6454,-7.3331,-7.1977,-7.217,-7.2225,-7.2009,-7.1755,-7.1755,-7.3331,0.0,0.0,-7.44,-7.7002,-7.5304,-7.5567,-7.6871,-7.6584,-7.6724,-7.674,-7.5451,-7.3444,-7.1022,-6.8242,-6.6739,-6.5784,-6.4343,-6.3057,-6.1657,-6.0518,-5.9628,-5.9652,-6.2311,-6.3046,-6.3925,-6.6798,-6.8851,-7.0784,-7.3171,-7.5355,-7.7738,-8.0741,-7.8895,-7.8273,-8.2357,-8.4675,-8.7382,-9.1703,-9.607,-9.9109,-9.9821,-10.0004,-9.9615,-9.8478,-9.8239,-9.7172,-9.4739,-8.8529,-8.3383,-8.0026,-8.0022,-7.8681,-7.5779,-7.5692,-7.463,-7.2786,-7.2434,-7.2647,-7.3252,-7.584,-7.7147,-7.7471,-7.986,-8.1075,-8.1357,-8.2376,-8.4923,-8.8287,-8.8768,-9.0832,-9.3925,-9.472,-9.4858,-9.4618,-9.4618,-9.4798,-9.4278,0.0,0.0,0.0,0.0,0.0,0.0,0.0,0.0,0.0,0.0,-8.0707,-8.0358,0.0,0.0,0.0,0.0,0.0,0.0,0.0,0.0,-8.2956,-8.4763,-8.6679,-8.7854,-8.8125,-8.6487,-8.6376,-8.7988,-8.0986,-7.8881,-8.1209,-7.4367,-7.1782,-7.2876,-7.2182,-7.1902,-7.1902,-7.1986,-7.4325,-7.7798,-7.6126,-7.7357,-8.0016,0.0,-7.7874,-7.88,-7.6244,-7.5584,-7.5435,-7.26,-7.1548,-7.1271,-7.0294,-6.815,-6.5493,-6.3312,-6.2222,-6.1189,-5.8734,-5.9023,-6.0332,-6.1367,-6.1638,-6.1785,-6.1951,-6.564,-6.9133,-6.9738,-7.4196,-7.8625,-8.0329,-7.8438,-7.7702,-8.1295,-8.4385,-8.7439,-9.0617,-9.6144,-9.9913,-10.0171,-10.003,-9.9915,-9.9915,-10.0393,-9.9879,-9.7711,-9.3997,-8.955,-8.4081,-8.351,-8.1998,-7.9209,-7.789,-7.7155,-7.7155,-7.4273,-7.4289,-7.7001,-7.8733,-8.009,-8.1107,-8.2955,-8.4089,-8.4567,-8.4466,-8.5303,-8.7059,-8.9413,-9.1045,-9.2194,-9.4725,-9.5366,-9.4858,-9.4858,-9.5217,-9.505,0.0,0.0,0.0,0.0,0.0,0.0,0.0,0.0,0.0,0.0,-7.9922,-7.9823,0.0,0.0,0.0,0.0,0.0,0.0,0.0,0.0,0.0,-8.724,-8.6628,-8.7042,-8.8869,-8.7407,-8.604,-8.4795,-8.3417,-8.1808,-8.0089,-7.8179,-7.7666,-7.8405,-7.7725,-7.7429,-7.7459,-7.8021,-7.8375,-7.8682,-7.8817,-7.838,-7.7532,-7.7592,-7.7623,0.0,-7.7671,-7.6909,-7.5495,-7.3002,-7.2155,-7.1283,-6.6366,-6.512,-6.4621,-6.1058,-6.0762,-6.114,-5.9395,-6.0156,-6.1367,-6.1211,-6.3152,-6.5418,-6.6624,-7.017,-7.3935,-7.6349,-7.8816,-8.0956,-8.2148,-8.1179,-8.1451,-8.5132,-8.768,-8.9929,-9.1908,-9.7355,-10.0516,-9.8825,-10.0572,-10.1979,-10.1979,-10.2099,-10.1034,-9.8375,-9.7433,-9.4781,-8.9712,-8.9881,-8.7795,-8.2753,-7.9415,-7.767,-7.7724,-7.9286,-7.9956,-7.9714,-8.3081,-8.4591,-8.4342,-8.5198,-8.5596,-8.5671,-8.5219,-8.63,-8.8777,-8.993,-9.1803,-9.4068,-9.5762,-9.6324,-9.6234,-9.6234,-9.6294,-9.609,0.0,0.0,0.0,0.0,0.0,0.0,0.0,-8.2263,-8.114,-7.9071,-7.9495,-7.9316,-7.7515,-7.7652,-7.8498,0.0,0.0,0.0,0.0,0.0,0.0,-8.79,-8.7313,-8.6993,-8.7136,-8.6502,-8.5597,-8.4571,0.0,-8.2504,-8.2275,-7.9893,-7.9592,-8.1096,-7.949,-7.9302,-8.0121,-7.9551,-7.9088,-7.8819,-7.9148,-7.8489,-7.7382,-7.7682,-7.7313,0.0,-7.8323,-7.7612,-7.5665,-7.4392,-7.4388,-7.3746,-6.7366,-6.6441,-6.7203,-6.418,-6.3016,-6.2758,-6.2425,-6.2045,-6.2088,-6.3912,-6.4945,-6.6293,-6.8853,-7.1543,-7.4063,-7.6829,-7.8841,-8.0737,-8.2448,-8.1615,-8.1575,-8.4619,-8.6342,-8.8182,-9.0589,-9.4229,-9.7147,-9.8133,-9.9455,-10.092,-10.2424,-10.2488,-10.1958,-10.0603,-10.0801,-9.8774,-9.386,-9.2789,-9.0111,-8.5366,-8.3118,-8.2734,-8.4239,-8.5013,-8.5355,-8.5466,-8.6998,-8.6906,-8.5596,-8.5897,-8.5998,-8.5998,-8.5722,-8.6144,-8.7348,-9.0561,-9.2051,-9.2717,-9.6255,-9.7371,-9.7042,-9.7042,-9.7281,-9.7282,0.0,0.0,0.0,0.0,0.0,0.0,-8.2432,-8.0886,-7.9503,-7.8837,-7.8604,-7.8382,-7.8093,-7.834,-7.9223,0.0,0.0,0.0,0.0,0.0,0.0,0.0,0.0,0.0,-8.5117,0.0,0.0,-8.4339,-8.2463,0.0,0.0,0.0,0.0,0.0,-7.9736,-7.9587,-8.0687,-7.9065,-7.8516,0.0,0.0,-7.8129,-7.7771,0.0,0.0,0.0,0.0,-7.8693,-7.7326,-7.6768,-7.7194,-7.6962,-7.0579,-6.9549,-7.0202,-6.7393,-6.5453,-6.4282,-6.512,-6.421,-6.3725,-6.6554,-6.7476,-6.8367,-7.0886,-7.3221,-7.5185,-7.6756,-7.8755,-8.0766,-8.2435,-8.1683,-8.1498,-8.3936,-8.5174,-8.6511,-8.8775,-9.1265,-9.3913,-9.6876,-9.7912,-9.9358,-10.2176,-10.2488,-10.2578,-10.2698,-10.3296,-10.1694,-9.7129,-9.4676,-9.1992,-8.8867,-8.8166,-8.8901,-9.1111,-9.0257,-9.0204,-9.1004,-9.0577,-8.9165,-8.6924,-8.6924,-8.6616,-8.5998,-8.5998,-8.5747,-8.5737,-9.0414,-9.174,-9.1476,-9.62,-9.8116,-9.8149,-9.8149,-9.8808,-9.9468,0.0,0.0,0.0,0.0,0.0,0.0,-8.0352,-7.8092,-7.6683,-7.6964,-7.6387,-7.6606,-7.8525,-7.822,-7.8202,0.0,0.0,0.0,0.0,0.0,0.0,0.0,0.0,0.0,0.0,0.0,0.0,-8.1777,-8.2131,0.0,0.0,0.0,0.0,0.0,0.0,-7.8861,-7.8933,-7.7395,0.0,0.0,0.0,0.0,0.0,0.0,0.0,0.0,0.0,-8.1315,-8.2109,-8.0403,-8.0079,-7.9677,-7.5517,-7.3455,-7.1611,-6.7336,-6.5431,-6.4701,-6.5133,-6.6179,-6.7058,-6.6922,-7.1553,-7.5817,-7.4194,-7.8106,-8.1741,-8.024,-8.1732,-8.3197,-8.2858,-8.2647,-8.3359,-8.5983,-8.7503,-8.8233,-8.7735,-9.1491,-9.4141,-9.3847,-9.6538,-9.9358,-10.2176,-10.2488,-10.2698,-10.3296,-10.3924,-10.2973,-10.0152,-9.7213,-9.5514,-9.5193,-9.4097,-9.3845,-9.4498,-9.3969,-9.3694,-9.3777,-9.3722,-9.2294,-8.9666,-8.9666,-8.8361,-8.5998,-8.5998,-8.5998,-8.607,-8.8526,-9.0854,-9.3204,-9.5676,-9.805,-10.0184,-10.0184,-10.1545,-10.3402,0.0,0.0,0.0,0.0,0.0,0.0,-8.0376,-7.7821,-7.6295,-7.7293,-7.7084,-7.7266,-7.8119,-7.831,-7.896,-8.027,0.0,0.0,0.0,0.0,0.0,0.0,0.0,0.0,0.0,0.0,-8.1237,-7.9839,-8.0113,0.0,0.0,0.0,0.0,0.0,0.0,-7.9374,-8.0261,-7.8649,0.0,0.0,0.0,0.0,0.0,0.0,0.0,0.0,0.0,0.0,-8.2971,-8.2644,-8.2826,-8.2822,-8.0347,-7.9149,-7.7569,-7.1649,-6.8319,-6.6821,-6.7996,-6.8102,-6.8319,-6.9528,-7.3341,-7.7157,-7.8069,-8.0161,-8.1776,-8.1322,-8.1892,-8.2469,-8.223,-8.217,-8.2769,-8.4594,-8.5013,-8.528,-8.5596,-8.7262,-8.9648,-9.3023,-9.4876,-9.7671,-10.2151,-10.2488,-10.2608,-10.2817,-10.3416,-10.3269,-10.2248,-9.9793,-9.7532,-9.5459,-9.6559,-9.7189,-9.7047,-9.8467,-9.8323,-9.6679,-9.6679,-9.5238,-9.2558,-9.2558,-9.103,-8.8444,-8.8444,-8.7535,-8.6196,-8.8728,-9.1075,-9.348,-9.601,-9.8651,-10.1267,-10.2575,-10.3399,-10.4164,0.0,0.0,0.0,0.0,0.0,-8.0509,-8.0411,-7.7732,-7.6086,-7.7352,-7.7592,-7.7954,-7.879,-7.9746,-8.0887,-8.2338,-8.1777,0.0,0.0,0.0,0.0,0.0,0.0,0.0,0.0,0.0,-8.0051,-7.8789,-7.8998,-7.9088,0.0,0.0,-7.9747,-8.0885,0.0,0.0,0.0,0.0,0.0,0.0,0.0,0.0,0.0,0.0,0.0,0.0,0.0,0.0,0.0,0.0,0.0,-8.5503,-8.4201,-8.2916,-8.0854,-7.5348,-7.1981,-7.0134,-7.1097,-7.0982,-7.1304,-7.3661,-7.7072,-8.0401,-8.2804,-8.3171,-8.3084,-8.2919,-8.2319,-8.1721,-8.1512,-8.1661,-8.202,-8.2739,-8.3128,-8.3558,-8.4157,-8.4734,-8.6941,-9.2004,-9.2981,-9.5338,-10.0774,-10.2189,-10.2787,-10.2787,-10.3206,-10.3416,-10.3416,-10.181,-9.9946,-9.7869,-9.9315,-10.0135,-9.9843,-10.1639,-10.155,-9.9552,-9.9552,-9.8126,-9.5441,-9.4599,-9.2662,-9.0096,-8.9287,-8.7755,-8.6196,-8.8059,-9.0259,-9.2555,-9.5328,-9.8079,-10.0872,-10.3965,-10.5524,-10.6622,0.0,0.0,0.0,0.0,0.0,-8.1679,-8.0075,-7.7112,-7.5478,-7.6624,-7.7053,-7.8267,-8.1015,-8.289,-8.4283,-8.502,-8.2835,0.0,0.0,0.0,0.0,0.0,0.0,0.0,0.0,0.0,-7.8789,-7.8789,-7.9477,-7.9806,-7.9806,-7.9806,-7.9806,-7.9806,0.0,0.0,0.0,0.0,0.0,0.0,0.0,0.0,-7.9806,0.0,0.0,0.0,0.0,0.0,0.0,0.0,0.0,0.0,0.0,-8.3521,-7.9572,-7.7426,-7.5905,-7.4813,-7.4064,-7.5179,-7.7078,-7.9504,-8.3764,-8.7577,-8.8446,-8.8039,-8.7145,-8.5822,-8.3594,-8.1572,-8.0943,-8.1332,-8.1572,-8.0943,-8.3008,-8.4447,-8.3781,-8.5307,-8.7545,-9.0279,-9.0624,-9.2694,-9.8028,-10.1501,-10.3416,-10.3416,-10.3416,-10.3416,-10.3416,-10.2847,-10.2962,-10.4278,-10.3052,-10.2663,-10.3291,-10.2817,-10.2488,-10.2518,-10.2518,-10.1045,-9.8196,-9.5441,-9.2662,-8.9989,-8.7204,-8.6023,-8.5998,-8.6023,-8.7645,-9.0391,-9.3156,-9.5947,-9.895,-10.3883,-10.8177,-11.1717,0.0,0.0,0.0,0.0,0.0,0.0,-8.2733,-8.0606,-7.9379,-8.0195,-8.0791,-8.1459,-8.2424,-8.3865,-8.4828,-8.5181,-8.3274,0.0,0.0,0.0,0.0,0.0,0.0,0.0,0.0,-7.9597,-7.9267,-7.8789,-7.8998,-7.9118,-7.9118,-7.9118,-7.9118,-7.9118,-7.9118,-7.9387,0.0,-7.8581,0.0,0.0,0.0,-7.7918,-7.9952,0.0,0.0,0.0,0.0,0.0,0.0,0.0,0.0,0.0,0.0,0.0,0.0,-8.2618,-7.7799,-7.3397,-7.4414,-7.5564,-7.6708,-7.7104,-8.2753,-8.8005,-8.746,-8.8449,-8.8924,-8.7054,-8.5658,-8.4488,-8.3767,-8.3232,-8.3276,-8.4368,-8.5016,-8.5346,-8.5087,-8.7192,-8.9673,-9.233,-9.5818,-9.8879,-10.0989,-10.3063,-10.3853,-10.2851,-10.4217,-10.437,-10.2881,-10.2608,-10.2698,-10.3087,-10.2698,-10.2787,-10.3416,-10.3206,-10.3326,-10.3805,-10.1457,-9.99,-9.8828,-9.5609,-9.2662,-9.0096,-8.9179,-8.796,-8.6525,-8.6525,-8.8465,-9.1392,-9.2231,-9.5211,-9.9519,-10.4096,-10.7584,-11.0667,0.0,0.0,0.0,0.0,0.0,0.0,-8.4529,-8.3308,-8.2574,-8.2742,-8.3696,-8.4617,-8.5168,-8.6513,-8.77,-8.8319,-8.6693,0.0,0.0,0.0,0.0,0.0,0.0,0.0,-8.0943,-8.0434,-7.9866,-7.9178,-7.9417,-7.9297,-7.8789,-7.9058,-7.9178,-7.9178,-7.9178,-7.9567,0.0,-7.9716,0.0,0.0,-7.8817,-8.0089,-8.2516,0.0,0.0,0.0,0.0,0.0,0.0,0.0,0.0,0.0,0.0,0.0,0.0,0.0,-8.1448,-7.589,-7.707,-7.8446,-7.9776,-8.0236,-8.4644,-8.8933,-8.9111,-8.9242,-8.9133,-8.8697,-8.6747,-8.5088,-8.4985,-8.4448,-8.4094,-8.4387,-8.4907,-8.5228,-8.53,-8.7407,-9.007,-9.3212,-9.7371,-10.058,-10.2062,-10.3987,-10.4777,-10.3791,-10.497,-10.479,-10.2552,-10.2488,-10.2488,-10.2488,-10.2488,-10.2787,-10.3416,-10.3416,-10.3625,-10.4044,-10.102,-9.9619,-9.9519,-9.528,-9.231,-9.0648,-8.9613,-8.8482,0.0,-8.6049,-8.6845,-8.9018,-8.9861,-9.1848,-9.5252,-10.1516,-10.5443,-10.8558,0.0,0.0,0.0,0.0,0.0,0.0,0.0,-8.5327,-8.508,-8.4398,-8.5874,-8.7441,-8.8768,-9.0388,-9.1981,-9.3537,-9.2153,0.0,0.0,0.0,0.0,0.0,0.0,0.0,-8.3041,-8.1765,-8.0805,-8.0085,-8.0831,-8.0544,-7.934,-7.9972,-8.0273,-8.0273,-8.0158,-8.0372,-8.0794,-8.0853,-8.0823,-8.0941,-8.2815,-8.4736,0.0,0.0,0.0,0.0,0.0,0.0,0.0,0.0,0.0,0.0,0.0,0.0,0.0,0.0,0.0,0.0,0.0,-8.312,-8.5092,-8.6902,-8.8465,-9.0094,-9.2321,-9.0243,0.0,-9.0358,-8.7067,-8.4106,-8.5146,-8.5246,-8.4535,-8.2432,-8.348,-8.4649,-8.4846,-8.6738,-8.9561,-9.3391,-9.635,-9.9095,-10.1811,-10.4395,-10.5916,-10.5801,-10.5801,-10.479,-10.2552,-10.2488,-10.2488,-10.2488,-10.2488,-10.2817,-10.3506,-10.3506,-10.3535,-10.3655,-10.1271,-10.0209,-9.9778,-9.4296,-9.1755,-9.1316,-8.88,-8.7892,-8.7982,-8.4795,-8.3608,-8.4107,-8.6384,-8.6984,-8.7823,-9.6941,-10.242,-10.5863,0.0,0.0,0.0,0.0,0.0,0.0,0.0,0.0,0.0,0.0,-8.8065,-8.9504,-8.9841,-9.1209,-9.2759,0.0,0.0,0.0,0.0,0.0,0.0,0.0,0.0,0.0,-8.4957,-8.4546,-8.3808,-8.2679,-8.4163,-8.4784,-8.4469,-8.4627,-8.4721,-8.4654,-8.3248,-8.1979,-8.0823,-8.1332,-8.1272,-8.0971,-8.3408,-8.4962,0.0,0.0,0.0,0.0,-9.4422,-9.5197,0.0,0.0,0.0,0.0,0.0,0.0,0.0,0.0,-8.6076,-8.4003,-8.4537,0.0,-8.3677,-8.4157,-8.6865,-8.9482,0.0,-8.9622,-8.9469,-8.8945,-8.8053,-8.7464,-8.7742,-8.8096,-8.8337,-8.8406,-8.7806,-8.7113,-8.6743,-8.9902,-9.3272,-9.6234,-10.0355,-10.3417,-10.4096,-10.6265,-10.7056,-10.5947,-10.5801,-10.479,-10.2552,-10.2488,-10.2488,-10.2488,-10.2488,-10.2997,-10.4194,-10.4194,-10.4702,-10.572,-10.2478,-9.99,-9.757,-9.3627,-9.0681,-8.8575,-8.8425,-8.7318,-8.5616,-8.5276,-8.3893,-8.2229,-8.4481,-8.6167,-8.8146,-9.5998,-10.1638,-10.5818,0.0,0.0,0.0,0.0,0.0,0.0,0.0,0.0,0.0,0.0,-8.9241,-9.0459,-9.1169,-9.2252,-9.3571,0.0,0.0,0.0,0.0,0.0,0.0,0.0,-9.0679,-8.8595,-8.6938,-8.6246,-8.5409,-8.4457,-8.6578,-8.7328,-8.6719,-8.7747,-8.8003,-8.7648,-8.6637,-8.5446,-8.4347,-8.5028,-8.5307,-8.5419,-8.7593,0.0,0.0,0.0,0.0,0.0,-9.5939,-9.6514,0.0,-9.4975,-9.4453,-9.4156,0.0,0.0,0.0,0.0,-8.8124,-8.6777,-8.837,-8.7049,-8.5368,-8.5972,-8.7796,-8.9698,-9.0436,-8.9533,-8.8916,-9.0357,-8.8888,-8.7875,-8.9513,-8.9255,-8.8875,-8.9141,-8.8762,-8.9167,-9.127,-9.4323,-9.7187,-9.9561,-10.3122,-10.5707,-10.6737,-10.7902,-10.8261,-10.7366,-10.6418,-10.479,-10.2552,-10.2488,-10.2488,-10.2488,-10.2488,-10.2817,-10.3506,-10.4104,-10.4792,-10.551,-10.2887,-10.0835,-9.9154,-9.4704,-9.1953,-9.0691,-8.9891,-8.8958,-8.7857,-8.5235,-8.3813,-8.331,-8.2775,-8.3557,-8.6049,-9.3347,-9.8632,-10.293,0.0,0.0,0.0,0.0,0.0,0.0,0.0,0.0,0.0,0.0,0.0,0.0,0.0,0.0,0.0,0.0,0.0,0.0,0.0,0.0,0.0,-9.673,-9.3436,-9.0715,-8.8993,-8.7508,-8.6504,-8.621,-8.88,-8.9596,-8.8797,-9.0773,-9.1154,-9.0303,-9.0303,-8.9846,-8.9062,-8.9639,-9.0184,-9.0702,-9.2613,0.0,0.0,0.0,0.0,0.0,0.0,0.0,0.0,-9.6829,-9.6228,-9.5653,-9.3705,0.0,0.0,0.0,0.0,0.0,-9.1762,-9.0552,-8.883,-8.9686,-8.9873,-9.0339,-9.2312,-8.9878,-8.824,-9.2135,-8.9527,-8.7435,-9.0463,-8.9974,-8.8947,-8.8563,-8.9108,-9.1175,-9.5688,-9.8391,-10.0606,-10.2346,-10.5085,-10.7618,-10.929,-10.9184,-10.9113,-10.9113,-10.6705,-10.449,-10.2582,-10.2488,-10.2488,-10.2488,-10.2488,-10.2488,-10.2488,-10.3775,-10.4493,-10.4553,-10.3344,-10.2532,-10.1891,-9.7112,-9.4707,-9.4233,-9.2386,-9.1264,-9.045,-8.5189,-8.3793,-8.4719,-8.1602,-8.1605,-8.4081,-9.087,-9.607,-10.0424,0.0,0.0,0.0,0.0,0.0,0.0,0.0,0.0,0.0,0.0,0.0,0.0,0.0,0.0,0.0,0.0,0.0,0.0,0.0,0.0,0.0,-9.8608,-9.4537,-9.186,-9.0972,-8.9067,-8.8588,-8.9564,-9.2113,-9.4084,-9.5436,-9.641,-9.5986,-9.4387,-9.4387,-9.3486,-9.1986,-9.2114,-9.182,-9.1541,-9.3956,0.0,0.0,0.0,0.0,0.0,0.0,0.0,0.0,-9.8019,-9.6096,-9.4442,-9.2494,0.0,0.0,0.0,0.0,0.0,-9.2116,-9.2463,-9.2452,-9.2073,-9.1985,-9.1904,-9.167,-9.1136,-9.048,-9.0016,-8.9545,-8.9294,-8.9825,-9.2269,-9.3849,-9.2808,-9.359,-9.4428,-9.4836,-9.8801,-10.1653,-10.1988,-10.7633,-11.1379,-11.1195,-10.9912,-10.9113,-10.9113,-10.5298,-10.2956,-10.2488,-10.2488,-10.2488,-10.2488,-10.2488,-10.2488,-10.2488,-10.3775,-10.4702,-10.5301,-10.563,-10.4487,-10.2124,-10.1172,-9.821,-9.3738,-9.428,-9.1516,-8.6547,-8.6041,-8.3993,-8.1479,-8.281,-8.4774,-8.7441,-9.2738,-9.866,-10.4693,0.0,0.0,0.0,0.0,0.0,0.0,0.0,0.0,0.0,0.0,0.0,0.0,0.0,0.0,0.0,0.0,0.0,0.0,0.0,-9.665,-9.7191,-9.7867,-9.4378,-9.225,-9.1969,-9.1048,-9.0818,-9.1418,-9.5046,-9.7654,-9.9323,-10.0817,-10.1302,-10.0899,-10.0486,-9.9856,-9.903,-9.8237,-9.766,-9.7455,0.0,0.0,0.0,0.0,0.0,0.0,0.0,0.0,0.0,0.0,-9.7985,-9.6322,-9.4376,0.0,0.0,0.0,0.0,0.0,-9.6308,-9.6796,-9.6963,-9.6662,-9.4914,-9.3195,-9.2707,-9.15,-9.0816,-9.2013,-9.053,-8.984,-9.2372,-9.3332,-9.4372,-9.6248,-9.7419,-9.8789,-10.0935,-10.2607,-10.4062,-10.5674,-10.9784,-11.2408,-11.2102,-11.0301,-10.9113,-10.9113,-10.5308,-10.2817,-10.2518,-10.2817,-10.2817,-10.2488,-10.2488,-10.2488,-10.2488,-10.3416,-10.4194,-10.4912,-10.554,-10.5435,-10.4388,-10.2763,-9.9962,-9.6381,-9.5808,-9.3543,-9.0191,-8.9134,-8.8994,-8.9372,-8.889,-9.0126,-9.2954,-9.9273,-10.3913,-10.7734,0.0,0.0,0.0,0.0,0.0,0.0,0.0,0.0,0.0,0.0,0.0,0.0,0.0,0.0,0.0,0.0,0.0,0.0,0.0,-9.6007,-9.6785,-9.7123,-9.455,-9.3106,-9.3336,-9.2422,-9.2485,-9.3594,-9.7717,-10.0908,-10.3194,-10.4714,-10.5695,-10.6226,-10.5482,-10.5057,-10.5004,-10.389,-10.3311,-10.3172,0.0,0.0,0.0,0.0,0.0,0.0,0.0,0.0,0.0,0.0,0.0,0.0,0.0,0.0,0.0,-9.6321,-9.7706,-9.9231,-9.9895,-10.0522,-10.0621,-9.9798,-9.7089,-9.4581,-9.4484,-9.3033,-9.24,-9.4785,-9.291,-9.1911,-9.5434,-9.5171,-9.5696,-9.9479,-10.0819,-10.2294,-10.4984,-10.5815,-10.6674,-10.8524,-11.1405,-11.3223,-11.2994,-11.0722,-10.9113,-10.9113,-10.5401,-10.2997,-10.2518,-10.2937,-10.3219,-10.3267,-10.2769,-10.2709,-10.3267,-10.3219,-10.3506,-10.4194,-10.5032,-10.572,-10.6071,-10.3971,-10.1514,-9.8694,-9.7985,-9.6263,-9.3929,-9.2822,-9.4193,-9.6767,-9.473,-9.586,-9.9501,-10.6538,-10.9779,-11.1026,0.0,0.0,0.0,0.0,0.0,0.0,0.0,0.0,0.0,0.0,0.0,0.0,0.0,0.0,0.0,0.0,0.0,0.0,0.0,-9.5804,-9.648,-9.7867,-9.6061,-9.5275,-9.5965,-9.2547,-9.2792,-9.7019,-10.0206,-10.4108,-10.8631,-10.8013,-10.782,-10.7765,-10.6987,-10.6597,-10.6597,-10.6488,-10.608,-10.5498,-10.5498,0.0,0.0,0.0,0.0,0.0,0.0,0.0,0.0,0.0,0.0,0.0,0.0,0.0,-9.7971,-9.7416,-9.9037,-10.0898,-10.0343,-10.1594,-10.2298,-9.8895,-9.7062,-9.6198,-9.6792,-9.7352,-9.7616,-9.7089,-9.7179,-9.742,-9.7694,-9.9316,-10.1093,-10.279,-10.38,-10.3609,-10.1252,-10.6121,-10.9199,-10.7376,-11.2068,-11.5284,-11.4564,-11.126,-10.9177,-10.9113,-10.5001,-10.2518,-10.2488,-10.2518,-10.3452,-10.5477,-10.3606,-10.3514,-10.5535,-10.3637,-10.2907,-10.3506,-10.4822,-10.5451,-10.554,-10.5914,-10.3445,-9.8854,-10.1439,-9.9061,-9.3659,-9.6221,-9.7132,-9.7006,-9.7452,-10.0983,-10.6653,-11.2912,-11.526,-11.5661,0.0,0.0,0.0,0.0,0.0,0.0,0.0,0.0,0.0,0.0,0.0,0.0,0.0,0.0,0.0,0.0,0.0,0.0,-9.6428,-9.7276,-9.7863,-9.8031,-9.6159,-9.6532,-9.9409,-9.6441,-9.6339,-9.9441,-10.4623,-10.8039,-10.9828,-11.1015,-11.0888,-11.0018,-11.0707,-11.078,-11.0211,-10.8271,-10.7916,-10.8399,-10.6974,-10.6493,0.0,0.0,0.0,0.0,0.0,0.0,0.0,0.0,-10.3909,-10.1419,-10.1419,-10.1218,-10.0816,-10.0113,-10.1424,-10.301,-10.2273,-10.2627,-10.2802,-10.0976,-9.8602,-9.6386,-9.531,-9.6662,-9.7949,-9.7321,-9.8348,-9.9649,-10.0506,-10.1995,-10.3228,-10.3519,-10.3078,-10.2925,-10.3154,-10.5787,-10.8192,-10.961,-11.2925,-11.5188,-11.5391,-11.2918,-11.069,-10.9197,-10.6735,-10.4431,-10.2612,-10.2877,-10.3877,-10.5712,-10.5001,-10.4817,-10.5212,-10.4786,-10.3822,-10.2189,-10.3535,-10.4613,-10.5421,-10.572,-10.4024,-10.0939,-10.3428,-10.2932,-10.0625,-10.3016,-10.4959,-10.6531,-10.6213,-10.7907,-11.1096,-11.5219,-11.6725,-11.6924,0.0,0.0,0.0,0.0,0.0,0.0,0.0,0.0,0.0,0.0,0.0,0.0,0.0,0.0,0.0,0.0,0.0,0.0,-9.8233,-9.9348,-9.9931,-9.9705,-9.8459,-9.9315,-10.2669,-10.0703,-10.0521,-10.2268,-10.8092,-11.1223,-11.1687,-11.3205,-11.3277,-11.1992,-11.3093,-11.3277,-11.2591,-11.0101,-10.9896,-11.1118,-10.8777,-10.8388,0.0,0.0,0.0,0.0,0.0,0.0,0.0,0.0,-10.5541,-10.3477,-10.3034,-10.2806,-10.2705,-10.169,-10.2523,-10.3518,-10.2704,-10.2766,-10.2777,-10.1431,-9.9897,-9.8098,-9.5772,-9.7259,-9.9084,-9.8665,-10.0185,-10.1865,-10.3081,-10.4139,-10.4359,-10.3505,-10.2402,-10.1923,-10.2826,-10.4204,-10.6263,-10.961,-11.2164,-11.4193,-11.5318,-11.3707,-11.1606,-10.928,-10.7492,-10.5281,-10.2582,-10.3596,-10.4948,-10.6392,-10.6291,-10.6197,-10.6236,-10.5914,-10.4448,-10.1881,-10.3943,-10.4854,-10.4822,-10.5032,-10.4174,-10.2916,-10.5354,-10.6082,-10.582,-10.8466,-11.093,-11.2876,-11.2214,-11.3461,-11.604,-11.8289,-11.9225,-11.9513,0.0,0.0,0.0,0.0,0.0,0.0,0.0,0.0,0.0,0.0,-10.1925,0.0,0.0,0.0,0.0,0.0,0.0,0.0,-10.1193,-10.1886,-10.2701,-10.3393,-10.3428,-10.4101,-10.573,-10.5022,-10.5023,-10.6032,-11.041,-11.3418,-11.4818,-11.4818,-11.4378,-11.357,-11.357,-11.357,-11.3525,-11.1989,-11.2219,-11.3407,-11.1033,-11.1021,-11.2322,0.0,0.0,0.0,0.0,0.0,0.0,0.0,-10.6981,-10.5584,-10.4133,-10.3585,-10.328,-10.1923,-10.1704,-10.1909,-10.1219,-10.2016,-10.2298,-9.9463,-10.0474,-10.1604,-9.8952,-10.012,-10.1728,-10.1711,-10.3118,-10.4699,-10.5509,-10.5479,-10.4884,-10.3003,-10.2133,-10.0914,-9.8805,-10.1005,-10.389,-10.6788,-10.9722,-11.2263,-11.4536,-11.3408,-11.1573,-10.928,-10.7139,-10.4881,-10.2676,-10.461,-10.6479,-10.8039,-10.7271,-10.7618,-10.9103,-10.6908,-10.4781,-10.2709,-10.6288,-10.6423,-10.3416,-10.4074,-10.4338,-10.4487,-10.7551,-10.8528,-10.8247,-11.1837,-11.3721,-11.4274,-11.4186,-11.7167,-12.1623,-12.2774,-12.37,-12.4313,0.0,0.0,0.0,0.0,0.0,0.0,0.0,0.0,0.0,-10.3084,-10.3303,0.0,0.0,0.0,0.0,0.0,0.0,0.0,-10.509,-10.5328,-10.5311,-10.4987,-10.4491,-10.488,-10.6385,-10.7819,-10.8916,-10.9803,-11.1602,-11.3279,-11.4818,-11.4818,-11.4378,-11.3607,-11.4782,-11.5002,-11.4278,-11.1719,-11.1511,-11.2615,-11.0372,-10.9988,-11.0984,0.0,0.0,0.0,0.0,0.0,0.0,0.0,0.0,0.0,-10.417,-10.432,-10.5087,-10.4606,-10.5208,-10.6006,-10.5791,-10.4516,-10.3076,-10.2817,-10.1719,-10.0776,-10.1166,-10.2189,-10.3631,-10.5684,-10.6111,-10.6242,-10.6433,-10.5611,-10.3893,-10.0883,-10.0279,-9.9623,-9.8022,-10.0302,-10.339,-10.6692,-10.9722,-11.2064,-11.3826,-11.4003,-11.2917,-11.0213,-10.9325,-10.8033,-10.5663,-10.6172,-10.7271,-10.879,-10.9581,-10.9824,-10.9197,-10.9123,-10.7927,-10.5791,-10.6765,-10.5704,-10.2881,-10.6734,-10.7829,-10.6999,-11.114,-11.3118,-11.3641,-11.6301,-11.6632,-11.5233,-11.5183,-11.7528,-12.0919,-12.0926,-12.2941,-12.549,0.0,0.0,0.0,0.0,0.0,0.0,0.0,0.0,0.0,-10.421,-10.4394,-10.5018,0.0,0.0,0.0,0.0,0.0,0.0,-10.7589,-10.7797,-10.7796,-10.7418,-10.6986,-10.7202,-10.8087,-10.9704,-11.0996,-11.1759,-11.2474,-11.3387,-11.4305,-11.4708,-11.4488,-11.4194,-11.6103,-11.6213,-11.4681,-11.299,-11.2302,-11.23,-11.0086,-10.9893,-11.1182,0.0,0.0,0.0,0.0,0.0,0.0,0.0,0.0,0.0,-10.6372,-10.6414,-10.6902,-10.5586,-10.5589,-10.5705,-10.4808,-10.3192,-10.1788,-10.1787,-10.1416,-10.1284,-10.2593,-10.3497,-10.4805,-10.7542,-10.6886,-10.6081,-10.6717,-10.5385,-10.3398,-10.1086,-9.9816,-9.8773,-9.7693,-9.8607,-10.0975,-10.5398,-10.7742,-10.997,-11.2539,-11.3395,-11.2601,-10.9618,-10.94,-10.8411,-10.6088,-10.6879,-10.7876,-10.9191,-11.0281,-11.0793,-11.0619,-11.0692,-10.9978,-10.8503,-10.9523,-10.8419,-10.5296,-10.8284,-10.98,-11.0245,-11.431,-11.6161,-11.6716,-11.7775,-11.7582,-11.6605,-11.6975,-11.8806,-12.1285,-12.1712,-12.3496,-12.5498,0.0,0.0,-10.25,-10.1691,0.0,0.0,0.0,0.0,0.0,0.0,-10.5201,-10.5789,0.0,0.0,0.0,0.0,0.0,0.0,0.0,-10.9679,-11.0083,-11.0083,-11.0193,-11.0193,-11.0193,-11.0891,-11.1698,-11.2396,-11.3093,-11.3497,-11.357,-11.4305,-11.4782,-11.5002,-11.7204,-11.6984,-11.4874,-11.4904,-11.3917,-11.2094,-11.021,-11.0624,-11.2285,-11.1774,0.0,0.0,0.0,0.0,0.0,0.0,0.0,0.0,-10.9586,-10.9221,-10.8674,-10.5837,-10.4174,-10.2885,-10.1126,-10.0213,-9.9622,-9.8695,-10.0497,-10.2773,-10.378,-10.4294,-10.5178,-10.7337,-10.6123,-10.507,-10.6485,-10.4893,-10.3177,-10.2573,-10.0422,-9.838,-9.7503,-9.6463,-9.7771,-10.3212,-10.4489,-10.6589,-11.0811,-11.1873,-11.1128,-10.8326,-10.8011,-10.7116,-10.5096,-10.6822,-10.8333,-10.9132,-10.9909,-11.1097,-11.2673,-11.2028,-11.139,-11.1116,-11.3593,-11.3085,-11.0023,-10.9812,-11.1225,-11.4131,-11.6842,-11.7996,-11.7928,-11.7218,-11.7291,-11.8032,-11.8783,-12.0289,-12.22,-12.3794,-12.4596,-12.4892,0.0,0.0,-10.258,-10.2489,0.0,0.0,0.0,0.0,0.0,0.0,-10.5715,-10.6486,-10.752,0.0,0.0,0.0,0.0,0.0,0.0,-11.0817,-11.0891,-11.0891,-11.1515,-11.1882,-11.1882,-11.2102,-11.2212,-11.2396,-11.1919,-11.2396,-11.357,-11.3791,-11.4488,-11.5773,-11.6287,-11.6213,-11.5681,-11.4505,-11.2731,-11.0775,-11.1631,-11.1404,-11.0976,-11.3284,-11.4303,0.0,0.0,0.0,0.0,0.0,0.0,0.0,-10.8785,-10.8966,-10.9783,-10.91,-10.7481,-10.6102,-10.6806,-10.3995,-10.1504,-10.352,-10.3672,-10.3977,-10.651,-10.5388,-10.4068,-10.521,-10.548,-10.5511,-10.5193,-10.4272,-10.2978,-10.1311,-10.0507,-9.9296,-9.7062,-9.7004,-9.8423,-10.1935,-10.3497,-10.5711,-10.9293,-11.0316,-11.0312,-10.898,-10.8408,-10.7795,-10.7306,-10.7154,-10.7508,-10.8247,-11.0189,-11.2014,-11.3611,-11.3298,-11.3794,-11.5085,-11.4925,-11.4807,-11.4594,-11.4388,-11.5031,-11.6219,-11.6935,-11.7184,-11.7116,-11.6981,-11.6659,-11.6406,-11.6604,-11.856,-12.1391,-12.1006,-12.3094,-12.5881,0.0,0.0,0.0,0.0,0.0,0.0,0.0,0.0,0.0,0.0,0.0,0.0,0.0,-10.9276,0.0,0.0,-11.1001,-11.1221,-11.1221,-11.1221,-11.141,-11.1773,-11.1821,-11.1999,-11.2406,-11.1999,-11.1808,-11.1808,-11.1405,-11.1808,-11.2983,-11.3387,-11.4268,-11.5479,-11.6617,-11.6507,-11.5397,-11.5396,-11.3812,-11.1375,-11.2196,-11.2322,-11.2143,-11.3694,-11.4775,-11.5406,-11.581,0.0,0.0,0.0,0.0,0.0,0.0,0.0,-11.1029,-10.9781,-10.87,-10.7497,-10.6105,-10.4314,-10.3202,-10.4888,-10.4673,-10.4523,-10.6077,-10.498,-10.3585,-10.3618,-10.4193,-10.4599,-10.4193,-10.3585,-10.2684,-10.1621,-10.0869,-10.0001,-9.8693,-9.8171,-9.8942,-10.1524,-10.2722,-10.4301,-10.6764,-10.7712,-10.7813,-10.7069,-10.6697,-10.6392,-10.6392,-10.6088,-10.686,-10.9118,-11.0024,-11.18,-11.4883,-11.492,-11.5497,-11.6671,-11.6326,-11.617,-11.6579,-11.7701,-11.7922,-11.7602,-11.7602,-11.673,-11.5328,-11.571,-11.5172,-11.441,-11.6334,-11.812,-11.9616,-12.0599,-12.2697,-12.5008,0.0,0.0,0.0,0.0,0.0,0.0,0.0,0.0,0.0,0.0,0.0,0.0,0.0,-10.9679,-11.0487,0.0,0.0,0.0,-11.1221,-11.1286,-11.1689,-11.2507,-11.1884,-11.199,-11.2693,-11.19,-11.1405,-11.1405,-11.1295,-11.1515,-11.2212,-11.3167,-11.4011,-11.4892,-11.7021,-11.6911,-11.5112,-11.6397,-11.5275,-11.2474,-11.2799,-11.3211,-11.3716,-11.3897,-11.4825,-11.5993,-11.5993,-11.5075,-11.3901,-11.4598,0.0,0.0,0.0,0.0,-11.1992,-10.979,-10.8888,-10.769,-10.4331,-10.4013,-10.4703,-10.4983,-10.499,-10.4983,-10.5491,-10.4881,-10.4008,-10.3428,-10.3295,-10.3415,-10.3415,-10.2908,-10.2502,-10.2502,-10.1621,-10.0694,-10.0416,-9.9444,-9.9458,-10.1187,-10.2058,-10.3098,-10.4603,-10.5276,-10.5377,-10.4701,-10.4566,-10.4498,-10.4498,-10.4498,-10.6081,-10.953,-10.9495,-11.137,-11.5626,-11.6111,-11.6714,-11.7187,-11.7498,-11.7618,-11.7816,-11.9989,-12.0017,-11.8274,-11.817,-11.6608,-11.4212,-11.4633,-11.4096,-11.3378,-11.6829,-11.8024,-11.818,-12.1289,-12.2907,-12.378,0.0,0.0,0.0,0.0,0.0,0.0,0.0,0.0,0.0,0.0,-10.9636,-10.969,-10.981,-11.0597,-11.1111,-11.1221,-11.1221,-11.1221,-11.1221,0.0,0.0,-11.2509,-11.3097,-11.3394,-11.3475,-11.2712,-11.2212,-11.2212,-11.1515,-11.1295,-11.1405,-11.291,-11.4011,-11.4818,-11.5883,-11.6103,-11.5883,-11.6103,-11.4692,-11.2583,-11.399,-11.417,-11.3788,-11.451,-11.5284,-11.5993,-11.5993,-11.5406,-11.4708,-11.4782,-11.4194,0.0,0.0,0.0,-11.2212,-11.1184,-10.9121,-10.7219,-10.7867,-10.6935,-10.5789,-10.6379,-10.6111,-10.628,-10.8806,-10.7789,-10.631,-10.6204,-10.4298,-10.2603,-10.2603,-10.2603,-10.2502,-10.2502,-10.2342,-10.1586,-9.9866,-9.9972,-10.0394,-10.0713,-10.1268,-10.2501,-10.4535,-10.4769,-10.4769,-10.4667,-10.4092,-10.372,-10.372,-10.372,-10.4588,-10.6429,-10.8915,-11.1478,-11.4186,-11.6222,-11.7271,-11.7367,-11.8003,-11.8996,-12.0412,-12.1398,-12.0592,-11.8279,-11.7608,-11.6967,-11.6501,-11.5241,-11.4994,-11.5584,-11.6878,-11.8219,-11.9805,-12.2215,-12.3721,-12.4579,0.0,0.0,0.0,0.0,0.0,0.0,0.0,0.0,0.0,0.0,0.0,-11.0716,-11.0687,-11.0987,-11.1221,-11.1221,-11.1221,-11.1221,-11.1221,-11.2024,-11.2664,-11.329,-11.3113,-11.3299,-11.3815,-11.2378,-11.1698,-11.1698,-11.1405,-11.1698,-11.2579,-11.4194,-11.4672,-11.4194,-11.5406,-11.5993,-11.5993,-11.5993,-11.5374,-11.4486,-11.5215,-11.5087,-11.4514,-11.5808,-11.6184,-11.6393,-11.7813,-11.7412,-11.6269,-11.6793,-11.609,-11.5016,-11.4609,0.0,0.0,0.0,-11.1726,-11.0392,-10.8813,-10.6486,-10.4882,-10.6484,-10.5965,-10.582,-10.8306,-10.7809,-10.6627,-10.5663,-10.4614,-10.3377,-10.2563,-10.2502,-10.2789,-10.3529,-10.3687,-10.3405,-10.248,-10.259,-10.2539,-10.1788,-10.1889,-10.2525,-10.3418,-10.3483,-10.3804,-10.4585,-10.4304,-10.4167,-10.4167,-10.4167,-10.4709,-10.5783,-10.8378,-11.0624,-11.2509,-11.5814,-11.7389,-11.7426,-11.813,-11.8783,-11.9517,-12.0802,-12.0476,-11.9011,-11.8189,-11.7223,-11.5967,-11.5594,-11.5779,-11.6295,-11.7911,-11.9289,-12.0701,-12.261,-12.3821,-12.4717,0.0,0.0,0.0,0.0,0.0,0.0,0.0,0.0,0.0,0.0,0.0,-11.1506,-11.1303,0.0,0.0,0.0,-11.1221,-11.1221,-11.1221,-11.2024,-11.2888,-11.3915,-11.3,-11.2888,-11.3911,-11.2105,-11.1221,-11.1221,-11.1221,-11.2316,-11.4279,-11.568,-11.6188,-11.5899,-11.6606,-11.6911,-11.692,-11.6496,-11.6594,-11.6897,-11.5789,-11.5423,-11.5317,-11.6214,-11.6293,-11.6295,-11.8892,-11.9028,-11.8311,-11.9283,-11.8911,-11.7787,-11.7301,-11.7115,0.0,0.0,0.0,-11.2728,-10.9085,-10.6627,-10.5299,-10.6761,-10.6433,-10.6198,-10.8004,-10.8192,-10.7505,-10.6001,-10.5412,-10.4723,-10.332,-10.2691,-10.301,-10.4375,-10.4605,-10.4689,-10.5099,-10.4807,-10.4194,-10.3166,-10.2691,-10.2502,-10.2502,-10.2819,-10.3473,-10.4486,-10.4924,-10.5192,-10.5192,-10.4991,-10.5194,-10.5877,-10.8167,-10.9998,-11.1128,-11.5294,-11.7474,-11.7724,-11.8203,-11.8483,-11.8805,-12.0095,-12.0383,-12.001,-11.9236,-11.798,-11.6583,-11.6706,-11.7038,-11.7682,-11.948,-12.0802,-12.1719,-12.3298,-12.4289,-12.4876,0.0,0.0,0.0,0.0,0.0,0.0,0.0,0.0,0.0,0.0,0.0,-11.2209,-11.1269,-11.1229,-11.1221,-11.1221,-11.1221,-11.1221,-11.1221,-11.2024,-11.2888,-11.3915,-11.3,0.0,-11.3911,-11.2105,-11.1221,-11.1221,-11.1221,-11.2897,-11.6199,-11.7019,-11.9102,-12.2066,-12.0281,-11.9407,-11.9318,-11.7922,-11.8194,-11.9285,-11.5428,-11.4801,-11.6113,-11.4496,-11.4417,-11.5394,-11.8024,-11.9272,-12.0215,-12.1797,-12.2287,-12.1986,-12.0398,-11.9379,-11.8319,0.0,0.0,0.0,-10.9582,-10.8804,-10.8575,-10.7877,-10.8322,-10.8991,-10.9713,-11.0494,-11.0572,-10.9123,-10.7698,-10.6225,-10.4817,-10.3411,-10.301,-10.4375,-10.4605,-10.5134,-10.6481,-10.5504,-10.458,-10.452,-10.3286,-10.2502,-10.2502,-10.3714,-10.4486,-10.4639,-10.5868,-10.6701,-10.6701,-10.6122,-10.5817,-10.5817,-10.88,-11.0391,-11.0482,-11.4921,-11.7739,-11.8503,-11.838,-11.8904,-11.9686,-11.9798,-12.0405,-12.1206,-12.0204,-12.0123,-12.0602,-11.9119,-11.9298,-12.0691,-12.1609,-12.249,-12.3408,-12.4986,-12.5573,-12.5573,0.0,0.0,0.0,0.0,0.0,0.0,0.0,0.0,0.0,0.0,0.0,0.0,0.0,-11.1509,-11.1221,-11.1221,-11.1221,-11.1405,-11.1919,-11.2321,-11.3113,-11.4632,-11.3299,-11.2888,-11.3911,-11.2105,-11.1221,-11.1221,-11.1805,-11.3195,-11.5379,-11.6986,-11.898,-12.1172,-12.0908,-12.0706,-12.0596,-11.8994,-11.858,-11.8917,-11.6383,-11.5799,-11.6304,-11.5697,-11.5717,-11.6285,-11.8797,-12.0588,-12.1913,-12.2483,-12.3395,-12.4112,-12.2895,-12.1977,-12.0806,-11.7723,-11.5099,-11.2792,-11.0494,-10.9121,-10.8316,-10.8483,-10.7738,-10.7314,-10.9489,-10.9386,-10.8595,-10.7678,-10.6695,-10.5575,-10.4112,-10.3069,-10.301,-10.4375,-10.4605,-10.4782,-10.5331,-10.4924,-10.4289,-10.3383,-10.2819,-10.2502,-10.2502,-10.381,-10.5017,-10.5889,-10.7399,-10.8215,-10.8215,-10.8,-10.696,-10.5115,-10.797,-11.0814,-11.3324,-11.5993,-11.78,-11.8577,-11.9685,-12.0377,-12.0796,-12.1885,-12.2891,-12.3819,-12.331,-12.2712,-12.1883,-12.1673,-12.2307,-12.3422,-12.4067,-12.4582,-12.4876,-12.55,-12.5684,-12.5684,0.0,0.0,0.0,-11.5878,0.0,-11.5395,-11.6016,-11.6099,-11.5797,-11.4907,0.0,0.0,0.0,0.0,-11.1221,-11.1221,-11.1405,-11.1808,-11.2396,-11.2391,-11.3294,-11.5013,-11.3711,-11.3409,-11.4295,-11.259,-11.1805,-11.2105,-11.2401,-11.389,-11.6401,-11.7812,-11.9686,-12.189,-12.21,-12.1977,-12.1679,-12.0013,-11.971,-12.0198,-11.7192,-11.6774,-11.8086,-11.7206,-11.7412,-11.8484,-12.0485,-12.2,-12.3097,-12.2905,-12.3479,-12.4397,-12.4091,-12.3304,-12.1904,-11.901,-11.6511,-11.4193,-11.1683,-11.0311,-10.9376,-10.9397,-10.8394,-10.7717,-10.8881,-10.8799,-10.8105,-10.7116,-10.6214,-10.5262,-10.4259,-10.32,-10.301,-10.4375,-10.4605,-10.4817,-10.5308,-10.4865,-10.4289,-10.3286,-10.2789,-10.2502,-10.2502,-10.4194,-10.5719,-10.672,-10.8569,-10.969,-10.969,-10.9269,-10.8292,-10.6887,-10.8925,-11.2006,-11.6186,-11.7312,-11.841,-11.9473,-12.068,-12.1595,-12.2172,-12.327,-12.4676,-12.609,-12.6023,-12.5103,-12.3726,-12.3816,-12.4293,-12.5088,-12.5514,-12.5684,-12.5684,-12.5684,-12.5684,-12.5684,-11.6484,-11.6484,-11.6292,-11.5484,-11.5291,-11.5291,-11.5291,-11.5291,-11.4999,-11.399,0.0,0.0,0.0,0.0,0.0,-11.1221,-11.1926,-11.2404,-11.2404,-11.2411,-11.3288,-11.5122,-11.4197,-11.4221,-11.5182,-11.3499,-11.3119,-11.3907,-11.3076,-11.4972,-11.9315,-11.9299,-12.1309,-12.4787,-12.3982,-12.3415,-12.2799,-12.1007,-12.1579,-12.3393,-11.7803,-11.7907,-12.1293,-11.8792,-11.9292,-12.16,-12.2408,-12.3293,-12.3909,-12.3101,-12.2908,-12.3101,-12.3909,-12.2985,-12.1289,-11.9496,-11.7822,-11.6028,0.0,0.0,0.0,-11.0508,-11.0611,-11.0604,-10.8181,-10.8915,-10.9496,-10.7881,-10.6498,-10.5606,-10.5606,-10.3882,-10.3039,-10.4435,-10.458,-10.5041,-10.6481,-10.5412,-10.4486,-10.4486,-10.3286,-10.2502,-10.2502,-10.5111,-10.6791,-10.681,-10.9499,-11.1214,-11.1221,-10.9822,-10.9674,-11.1312,-11.1399,-11.3714,-11.8503,-11.8696,-11.9589,-12.1304,-12.1415,-12.231,-12.3897,-12.4003,-12.5476,-12.7898,-12.7782,-12.7091,-12.61,-12.522,-12.5199,-12.5684,-12.5684,-12.5684,-12.5684,-12.5684,-12.5684,-12.5684,-11.6484,-11.6484,-11.6407,-11.6176,-11.6176,-11.6176,-11.6176,-11.6176,-11.5612,0.0,0.0,0.0,-11.141,-11.1221,-11.1221,-11.1221,-11.2031,-11.2706,-11.3299,-11.3411,-11.4202,-11.5985,-11.4615,-11.4303,-11.521,-11.4099,-11.3789,-11.4211,-11.4588,-11.5486,-11.6998,-11.788,-11.9494,-12.171,-12.1216,-12.2012,-12.3497,-12.2681,-12.3009,-12.3906,-12.1722,-12.0716,-12.0485,-11.9215,-11.8407,-11.7984,-11.8908,-12.0485,-12.2177,-12.1293,-12.3101,-12.5486,-12.4409,-12.3793,-12.2808,-11.9886,-11.8318,-11.6879,-11.499,0.0,0.0,0.0,0.0,0.0,-11.0293,-10.9206,-10.8101,-10.7703,-10.6885,-10.6307,-10.6307,-10.4625,-10.3514,-10.4382,-10.368,-10.3194,-10.3625,-10.3286,-10.3103,-10.3103,-10.2691,-10.2502,-10.2502,-10.4134,-10.5676,-10.6665,-10.8519,-11.013,-11.1104,-10.9822,-10.971,-11.1298,-11.2023,-11.3618,-11.6078,-11.9215,-12.0881,-12.1406,-12.2688,-12.3916,-12.5019,-12.5672,-12.6696,-12.7898,-12.7782,-12.7091,-12.6326,-12.7093,-12.6727,-12.5794,-12.6308,-12.6197,-12.5573,-12.4986,-12.4803,-12.4693,-11.6599,-11.6792,-11.6907,-11.6599,-11.6484,-11.6484,-11.6484,-11.6484,-11.588,0.0,0.0,0.0,-11.141,-11.2135,-11.2502,-11.18,-11.2883,-11.3785,-11.4272,-11.4396,-11.502,-11.6307,-11.5603,-11.5413,-11.5901,-11.5193,-11.5079,-11.5583,-11.5783,-11.6182,-11.6905,-11.792,-11.8985,-12.0115,-12.0899,-12.221,-12.3787,-12.4605,-12.5017,-12.4986,-12.3101,-12.2601,-12.2793,-12.0908,-12.0177,-12.0177,-11.9985,-12.1293,-12.2793,-12.06,-12.2216,-12.4793,-12.3101,-12.3216,-12.3485,-12.0485,-11.8993,-11.7794,-11.5789,-11.4819,-11.4402,-11.401,0.0,0.0,-11.0088,-10.9217,-10.8173,-10.6429,-10.6107,-10.6017,-10.5729,-10.4614,-10.3809,-10.3565,-10.3211,-10.2791,-10.2499,-10.2502,-10.2502,-10.2502,-10.2502,-10.2502,-10.2502,-10.381,-10.5216,-10.6701,-10.82,-10.9607,-11.1096,-11.0398,-11.0696,-11.2291,-11.2902,-11.4483,-11.7186,-11.9278,-12.1075,-12.249,-12.3598,-12.4493,-12.5311,-12.6286,-12.6914,-12.7289,-12.69,-12.6289,-12.5723,-12.6201,-12.5875,-12.5206,-12.5684,-12.561,-12.5096,-12.3885,-12.3701,-12.3885,0.0,-11.7215,-11.7484,-11.6676,-11.6484,-11.6484,-11.6484,-11.6484,-11.588,0.0,-11.3806,-11.3072,-11.1466,-11.3407,-11.419,-11.2774,-11.4214,-11.5101,-11.5101,-11.5199,-11.5619,-11.6487,-11.6809,-11.7013,-11.7308,-11.6817,-11.6886,-11.768,-11.699,-11.7201,-11.8312,-11.9014,-11.9614,-12.0,-12.1991,-12.329,-12.4113,-12.6283,-12.7002,-12.6409,-12.3485,-12.3985,-12.6101,-12.2908,-12.2985,-12.4486,-12.3101,-12.3601,-12.4293,-12.0716,-12.0908,-12.2408,-12.11,-12.21,-12.3216,-12.0985,-11.9715,-11.8407,-11.6006,-11.531,-11.5182,-11.4395,-11.4103,0.0,-10.9403,-10.9601,-10.9416,-10.5589,-10.5618,-10.6024,-10.5289,-10.4965,-10.4491,-10.3315,-10.3522,-10.3496,-10.2624,-10.2502,-10.2502,-10.2502,-10.2502,-10.2502,-10.2502,-10.3591,-10.4959,-10.6391,-10.8061,-10.9595,-11.0881,-11.1192,-11.209,-11.3699,-11.4008,-11.6012,-11.9901,-11.9415,-12.0795,-12.3793,-12.3909,-12.4289,-12.5003,-12.5797,-12.6073,-12.588,-12.5187,-12.4676,-12.4368,-12.358,-12.3734,-12.4399,-12.4399,-12.4289,-12.3995,-12.249,-12.238,-12.2784,-11.6676,-11.7215,-11.7484,-11.6676,-11.6484,-11.6484,-11.6484,-11.6484,-11.588,-11.4103,-11.3179,-11.2625,-11.2309,-11.341,-11.3979,-11.3678,-11.4609,-11.5173,-11.5173,-11.5802,-11.6603,-11.7529,-11.7608,-11.7977,-11.9012,-11.8918,-11.9189,-11.9803,-11.9693,-11.9805,-12.0308,-12.0503,-12.1014,-12.1718,-12.2303,-12.3391,-12.5007,-12.6895,-12.7275,-12.6678,-12.6717,-12.5794,-12.4486,-12.3101,-12.1716,-12.0408,-12.0716,-12.0985,-12.1408,-12.1985,-12.16,-12.11,-12.2793,-12.2293,-12.0908,-12.0408,-11.9215,-11.7808,-11.6616,-11.6185,-11.62,-11.6003,-11.5494,0.0,-11.3924,-11.3379,-11.2703,-11.1177,-11.1078,-11.1086,-11.0974,-10.9403,-10.8292,-10.868,-10.7299,-10.5307,-10.2785,-10.2502,-10.2502,-10.2502,-10.2502,-10.2502,-10.2502,-10.2691,-10.3535,-10.4865,-10.7505,-10.9136,-10.9415,-11.1208,-11.2683,-11.3701,-11.579,-11.7321,-11.8194,-12.0121,-12.1405,-12.21,-12.2793,-12.3215,-12.3211,-12.3395,-12.3076,-12.2301,-12.2074,-12.1618,-12.092,-12.1425,-12.2393,-12.3518,-12.3518,-12.3114,-12.249,-12.1499,-12.0802,-12.0178,-11.6792,-11.76,-11.7984,-11.6676,-11.6484,-11.6599,-11.71,-11.6792,-11.6195,-11.5301,-11.4414,-11.3593,-11.3218,-11.4421,-11.5005,-11.4588,-11.5919,-11.6486,-11.588,-11.7194,-11.7903,-11.7792,-11.8786,-11.9606,-12.0413,-12.051,-12.0795,-12.1302,-12.0911,-12.0691,-12.0898,-12.1289,-12.1289,-12.1015,-12.2497,-12.3411,-12.3983,-12.6693,-12.8024,-12.8079,-12.7091,-12.5601,-12.3909,-12.2216,-12.11,-12.0408,-12.0793,-12.0908,-12.11,-12.1985,-12.2216,-12.21,-12.1716,-12.16,-12.1293,-12.01,-11.8792,-11.76,-11.6676,-11.62,-11.5993,-11.6416,-11.5778,0.0,0.0,-11.4003,-11.351,-11.1777,-11.209,-11.2505,-11.209,-11.1418,-11.0792,-11.0498,-10.8984,-10.7534,-10.6086,-10.518,-10.4535,-10.4095,-10.4372,-10.4177,-10.3111,-10.3261,-10.4134,-10.5619,-10.7679,-10.9282,-11.0083,-11.1588,-11.3112,-11.4418,-11.6219,-11.7694,-11.8997,-12.0281,-12.1177,-12.16,-12.1985,-12.169,-12.0805,-12.1172,-12.0702,-11.9406,-11.9406,-11.9286,-11.9211,-11.922,-11.9781,-12.0912,-12.1316,-12.1205,-12.0691,-11.9517,-11.9297,-11.9407,-11.71,-11.7984,-11.86,-11.6792,-11.6484,-11.6792,-11.7715,-11.7215,-11.6699,-11.6504,-11.5795,-11.5075,-11.4319,-11.5602,-11.6493,-11.6328,-11.7406,-11.7992,-11.7588,-11.8622,-11.8891,-11.8221,-11.9898,-12.1094,-12.1391,-12.1908,-12.2288,-12.2612,-12.1796,-12.1406,-12.1406,-12.2109,-12.1718,-12.039,-12.2614,-12.3306,-12.3193,-12.6307,-12.8023,-12.8502,-12.6503,-12.5511,-12.4982,-12.2174,-12.159,-12.2091,-12.1685,-12.1485,-12.1408,-12.1677,-12.2485,-12.2985,-12.0793,-12.0985,-12.1793,-12.01,-11.86,-11.7407,-11.6907,-11.6108,-11.5599,-11.6293,-11.5993,-11.5085,0.0,0.0,0.0,-11.2105,-11.2896,-11.3692,-11.2926,-11.319,-11.3217,-11.1866,-11.0973,-11.0619,-11.0709,-10.9414,-10.7877,-10.6511,-10.6511,-10.6003,-10.449,-10.4923,-10.5713,-10.6689,-10.8267,-10.9698,-11.0692,-11.1987,-11.3412,-11.477,-11.6228,-11.7917,-11.9796,-12.0107,-12.06,-12.11,-12.11,-12.0086,-11.8322,-11.9312,-11.8693,-11.6876,-11.7173,-11.7582,-11.8092,-11.7388,-11.7498,-11.8012,-11.9187,-11.948,-11.9187,-11.8085,-11.8416,-11.9187,-11.7984,-11.8407,-11.86,-11.6792,-11.6484,-11.6792,-11.7715,-11.7715,-11.7405,-11.658,-11.6412,-11.6084,-11.5476,-11.6303,-11.779,-11.9994,-11.8506,-11.8604,-12.1283,-11.9481,-11.8607,-11.9291,-12.0721,-12.1707,-12.1985,-12.2998,-12.3691,-12.4117,-12.3505,-12.3203,-12.3203,-12.3281,-12.3203,-12.3007,-12.2817,-12.35,-12.4878,-12.629,-12.5996,-12.4896,-12.6295,-12.8001,-12.9102,-12.5486,-12.4204,-12.3976,-12.219,-12.11,-12.0716,-12.2216,-12.1908,-12.11,-12.2908,-12.1716,-11.9792,-12.0985,-11.91,-11.6792,-11.7484,-11.7016,-11.6416,-11.6522,-11.64,-11.6316,-11.6086,0.0,-11.7293,-11.6992,0.0,-11.8106,-11.7198,0.0,0.0,-11.6011,-11.5713,-11.56,-11.5607,-11.4786,-11.2874,-10.9402,-10.7094,-10.6192,-10.7506,-10.7714,-10.7512,-10.6914,-10.8882,-10.9907,-10.9416,-11.1987,-11.3702,-11.3893,-11.7016,-11.8404,-11.7993,-11.9506,-11.9985,-11.9408,-11.9408,-11.8403,-11.659,-11.7409,-11.6818,-11.5229,-11.6581,-11.6875,-11.6286,-11.6884,-11.6801,-11.6507,-11.8709,-11.9187,-11.8599,-11.9113,-11.9003,-11.8489,-11.8792,-11.8792,-11.8715,-11.7484,-11.6792,-11.6984,-11.8292,-11.9077,-11.9214,-11.81,-11.8108,-11.8516,-11.93,-11.9699,-12.0402,-12.1525,-12.0983,-12.0582,-12.0612,-12.0222,-12.0315,-12.1004,-12.2299,-12.3203,-12.3504,-12.4001,-12.4293,-12.4295,-12.361,-12.3304,-12.3515,-12.3008,-12.25,-12.1992,-12.1296,-12.1477,-12.2285,-12.4899,-12.5995,-12.6295,-12.8186,-12.9716,-13.0194,-12.5092,-12.2991,-12.2689,-12.1908,-12.1408,-12.0985,-12.0793,-12.1216,-12.16,-12.0716,-12.01,-11.9715,-11.9485,-11.7984,-11.6599,-11.6907,-11.6421,-11.5918,-11.6393,-11.6114,-11.5995,-11.6993,-11.7484,-11.7907,-11.8484,0.0,0.0,0.0,0.0,0.0,0.0,-11.7794,-11.7292,-11.7824,-11.6313,-11.4291,-11.2313,-11.1079,-11.0372,-11.0202,-10.9473,-10.89,-10.8891,-11.0286,-11.0906,-11.0421,-11.3001,-11.4496,-11.4522,-11.6412,-11.771,-11.8385,-11.8682,-11.8587,-11.8292,-11.782,-11.6574,-11.4896,-11.569,-11.5289,-11.4194,-11.6323,-11.7021,-11.669,-11.7094,-11.7021,-11.6801,-11.7792,-11.7718,-11.7094,-11.7902,-11.8306,-11.8416,-11.9908,-11.9408,-11.8792,-11.7984,-11.71,-11.7089,-11.8898,-12.0222,-12.059,-11.9821,-12.0096,-12.082,-12.2217,-12.2581,-12.3086,-12.4018,-12.3691,-12.2885,-12.1584,-12.1482,-12.1494,-12.1296,-12.3102,-12.4117,-12.4001,-12.4489,-12.4709,-12.4686,-12.3396,-12.2981,-12.3515,-12.2383,-12.1797,-12.1601,-12.0615,-12.032,-12.0897,-12.3683,-12.542,-12.6304,-12.8191,-12.8902,-12.8386,-12.4314,-12.2321,-12.1695,-12.1502,-12.1199,-12.0793,-11.9985,-12.0716,-12.1485,-11.9215,-11.9215,-11.9715,-11.8484,-11.7407,-11.6599,-11.71,-11.6579,-11.6098,-11.6985,-11.6617,-11.6213,-11.7485,-11.8023,-11.8292,-11.8985,-11.9908,0.0,0.0,0.0,-12.06,-12.0292,0.0,-11.9015,-11.96,-11.7812,-11.6105,-11.509,-11.4496,-11.3605,-11.2101,-11.1391,-11.1094,-11.1008,-11.2014,-11.2427,-11.1681,-11.3772,-11.4982,-11.5007,-11.5806,-11.6786,-11.7826,-11.7525,-11.7197,-11.6685,-11.6292,-11.5324,-11.3878,-11.4607,-11.4729,-11.4378,-11.6617,-11.7498,-11.7498,-11.7498,-11.7425,-11.7204,-11.7021,-11.6507,-11.6177,-11.7388,-11.8195,-11.8783,-12.1408,-12.0216,-11.8792,-11.7984,-11.71,-11.7181,-11.9213,-12.0519,-12.1193,-12.1193,-12.1905,-12.2493,-12.2911,-12.371,-12.5616,-12.892,-12.6499,-12.5298,-12.6507,-12.4014,-12.1491,-11.9399,-12.2399,-12.3588,-12.2594,-12.4189,-12.5191,-12.5616,-12.3304,-12.2695,-12.3515,-12.1718,-12.1797,-12.3281,-12.131,-12.111,-12.2501,-12.3411,-12.3213,-12.2484,-12.4695,-12.4485,-12.2908,-12.3909,-12.3297,-12.1997,-12.1107,-12.009,-11.9408,-12.0985,-12.0485,-11.9292,-11.9985,-11.9715,-11.91,-11.91,-11.7792,-11.6907,-11.86,-11.8385,-11.7923,-11.8792,-11.8385,-11.7692,-11.7792,-11.8484,-11.91,-11.91,-12.0408,-12.1293,-12.0485,-12.0985,-12.1293,-12.0408,-12.1023,0.0,0.0,-12.0707,-11.9506,-11.7794,-11.6097,-11.4515,-11.2694,-11.4117,-11.4402,-11.2697,-11.4173,-11.4402,-11.2697,-11.4106,-11.493,-11.489,-11.5675,-11.5789,-11.497,-11.6031,-11.5703,-11.401,-11.4904,-11.4679,-11.3702,-11.4481,-11.528,-11.5993,-11.7682,-11.8416,-11.8416,-11.8416,-11.7902,-11.7131,-11.6287,-11.5993,-11.6287,-11.8673,-11.948,-11.97,-12.0807,-11.9519,-11.8292,-11.86,-11.7615,-11.751,-11.9523,-12.1315,-12.2705,-12.3714,-12.5211,-12.6896,-12.8789,-12.9699,-13.0512,-13.1092,-12.9608,-12.8403,-12.7697,-12.4988,-12.3594,-12.4211,-12.4009,-12.3689,-12.3384,-12.389,-12.4111,-12.3905,-12.3093,-12.2986,-12.3515,-12.2304,-12.2109,-12.2617,-12.1119,-12.0408,-12.0494,-12.2812,-12.3414,-12.2912,-12.498,-12.5284,-12.4416,-12.3497,-12.2587,-12.1721,-12.1391,-12.0704,-11.9899,-12.0109,-11.9802,-11.9202,-11.8608,-11.8392,-11.8488,-11.8488,-11.8018,-11.76,-11.8792,-11.8484,-11.8023,-11.8908,-11.7984,-11.7215,-11.8407,-11.8908,-11.9292,-11.9792,-12.0793,-12.1485,-12.1177,-12.1408,-12.1485,-12.1177,-12.1408,-12.1408,0.0,-11.9985,-11.8915,-11.7102,-11.6411,-11.5776,-11.5204,-11.519,-11.48,-11.3587,-11.4584,-11.4208,-11.1902,-11.4907,-11.572,-11.3309,-11.468,-11.5005,-11.4071,-11.3895,-11.3904,-11.3911,-11.4095,-11.4009,-11.3699,-11.5005,-11.5768,-11.6103,-11.7718,-11.8709,-11.9113,-11.8012,-11.8085,-11.8693,-11.7996,-11.8113,-11.862,-11.8815,-11.8783,-11.9076,-12.0505,-11.9219,-11.81,-11.8908,-11.8022,-11.7775,-11.9816,-12.2092,-12.4182,-12.5687,-12.8109,-13.0502,-13.2806,-13.3587,-13.3899,-13.4016,-13.2607,-13.0806,-12.8389,-12.6717,-12.5711,-12.5605,-12.4801,-12.4197,-12.4214,-12.3701,-12.3387,-12.3192,-12.2607,-12.2713,-12.3515,-12.1718,-12.1289,-12.2187,-12.1112,-12.0092,-11.9417,-12.241,-12.308,-12.2288,-12.4289,-12.49,-12.4511,-12.3212,-12.2686,-12.2682,-12.1899,-12.1187,-12.0593,-12.0307,-11.9703,-11.9088,-11.8111,-11.798,-11.8199,-11.8199,-11.8198,-11.8407,-11.9292,-11.91,-11.8792,-11.9408,-11.8484,-11.76,-11.8484,-11.86,-11.8792,-11.9292,-12.0292,-12.11,-12.0793,-12.1177,-12.1485,-12.1177,-12.11,-12.0793,0.0,-11.9215,-11.8215,-11.71,-11.6984,-11.6715,-11.6099,-11.5907,-11.5099,-11.3599,-11.4599,-11.4309,-11.1894,-11.4694,-11.5281,-11.2908,-11.3715,-11.3807,-11.3173,-11.3111,-11.3,-11.2889,-11.3786,-11.4192,-11.4137,-11.5731,-11.6911,-11.7792,-11.8819,-11.97,-12.0409,-11.91,-11.9171,-12.0081,-11.9828,-11.9888,-12.0295,-11.9577,-11.9487,-11.9884,-12.0389,-11.9201,-11.8206,-11.8982,-11.8182,-11.8092,-12.0192,-12.3106,-12.5586,-12.7304,-13.0586,-13.3515,-13.5,-13.5195,-13.5898,-13.75,-13.539,-13.2499,-12.9101,-12.9319,-12.7817,-12.3983,-12.4689,-12.4978,-12.4804,-12.3583,-12.311,-12.3398,-12.1718,-12.1718,-12.3281,-12.0,-11.9687,-12.1992,-12.1288,-12.0211,-11.9306,-12.2214,-12.2288,-12.0693,-12.261,-12.3299,-12.2996,-12.2896,-12.3783,-12.4703,-12.2498,-12.1592,-12.1306,-12.1278,-12.0199,-11.8798,-11.8809,-11.8618,-11.831,-11.831,-11.872,-11.9292,-12.01,-12.0292,-12.0292,-12.0292,-11.9715,-11.8792,-11.8023,-11.7792,-11.7792,-11.7792,-11.91,-11.9985,-11.9292,-12.0485,-12.1293,-12.0408,-12.0216,-11.9908,-11.91,-11.8292,-11.7792,-11.7715,-11.7715,-11.71,-11.5484,-11.5984,-11.5407,-11.2906,-11.4291,-11.4517,-11.2704,-11.3493,-11.3803,-11.3589,-11.2871,-11.25,-11.25,-11.3374,-11.3,-11.1397,-11.3898,-11.4982,-11.502,-11.658,-11.8709,-12.0985,-12.0912,-12.1389,-12.1999,-12.1309,-12.1073,-12.1201,-12.132,-12.1377,-12.1495,-12.119,-12.1578,-12.2183,-11.9614,-11.9913,-11.9975,-12.0083,-11.9092,-11.9084,-12.1385,-12.5584,-12.8984,-13.0117,-13.4883,-13.8086,-13.789,-13.8515,-13.8515,-13.7695,-13.6496,-13.5103,-13.3088,-13.1406,-13.0011,-12.8901,-12.6612,-12.5216,-12.4804,-12.3199,-12.2106,-12.1601,-12.1093,-12.1093,-12.1484,-12.0401,-11.9901,-12.0014,-12.0796,-11.9989,-11.8112,-12.0894,-12.1996,-12.1791,-12.2304,-12.2989,-12.339,-12.1982,-12.2188,-12.3123,-12.2501,-12.1906,-12.13,-12.1483,-12.0913,-12.0005,-12.0303,-12.0002,-11.9694,-12.0303,-12.0181,-12.0216,-12.0985,-12.0793,-12.0292,-12.0292,-11.9215,-11.81,-11.7907,-11.7792,-11.7792,-11.7792,-11.8715,-11.9485,-11.9908,-12.0292,-12.06,-12.0292,-11.9292,-11.8407,-11.8215,-11.7907,-11.76,-11.6907,-11.6792,-11.6676,-11.6176,-11.5291,-11.4407,-11.3714,-11.4099,-11.3608,-11.1809,-11.4269,-11.4924,-11.2883,-11.3786,-11.4118,-11.3482,-11.3788,-11.3675,-11.3182,-11.4385,-11.5605,-11.6783,-11.8317,-11.9994,-12.1793,-12.1205,-12.1389,-12.1914,-11.9929,-12.0608,-12.2921,-12.2374,-12.3005,-12.3895,-12.1916,-12.1988,-12.3008,-11.9881,-12.0505,-12.0796,-12.0888,-12.1413,-12.2183,-12.3591,-12.6718,-12.9609,-13.1992,-13.6601,-13.9687,-14.0,-14.0781,-14.1093,-14.0507,-13.869,-13.6796,-13.4801,-13.3387,-13.1988,-13.0385,-12.8084,-12.6191,-12.4804,-12.3086,-12.1601,-12.0312,-12.0312,-12.0508,-12.0898,-11.9791,-11.9306,-11.9183,-12.0408,-11.9881,-11.8301,-12.0503,-12.1704,-12.2187,-12.1797,-12.1907,0.0,-12.1309,-12.1201,-12.1605,-12.1693,-12.1806,-12.1708,-12.1896,-12.1605,-12.1185,-12.1404,-12.0995,-12.0594,-12.1088,-12.1275,-12.1485,-12.16,-12.1485,-12.1293,-12.0485,-11.9292,-11.8292,-11.7907,-11.7484,-11.7215,-11.7215,-11.7907,-11.86,-11.86,-11.9485,-12.0216,-11.9792,-11.8985,-11.81,-11.7292,-11.7215,-11.6984,-11.6599,-11.6484,-11.6484,-11.6484,-11.4984,-11.4214,-11.4484,-11.4599,-11.4104,-11.3116,-11.4907,-11.5074,-11.322,-11.4127,-11.4397,-11.3911,-11.4717,-11.4793,-11.4402,-11.5914,-11.7001,-11.8015,-11.9523,-12.0875,-12.2086,-12.1609,-12.1907,-12.2603,-12.1285,-12.2199,-12.429,-12.4275,-12.5008,-12.5603,-12.3196,-12.2795,-12.329,-12.0797,-12.1192,-12.1404,-12.202,-12.4294,-12.6281,-12.7108,-12.8203,-13.039,-13.4297,-13.789,-14.0586,-14.1914,-14.2617,-14.3203,-14.3789,-14.0897,-13.7888,-13.5388,-13.511,-13.3587,-13.0309,-12.9099,-12.7381,-12.5,-12.3008,-12.1211,-11.9609,-11.9492,-11.9804,-12.0507,-11.8698,-11.8291,-11.9111,-11.9985,-11.9913,-11.9311,-12.0413,-12.121,-12.1601,-12.1014,-12.0515,-12.0192,-12.0413,-12.032,-12.012,-12.0382,-12.1289,-12.2187,-12.2108,-12.2185,-12.2302,-12.2299,-12.1884,-12.1494,-12.13,-12.2075,-12.2716,-12.1793,-12.2216,-12.2293,-12.0716,-11.9715,-11.8908,-11.8023,-11.71,-11.6484,-11.6484,-11.71,-11.7407,-11.6792,-11.8484,-11.9792,-11.9215,-11.8908,-11.8215,-11.6676,-11.6484,-11.6484,-11.6676,-11.6599,0.0,-11.6792,-11.5291,-11.4599,-11.5407,-11.5599,-11.55,-11.5113,-11.5096,-11.4811,-11.3919,-11.3887,-11.4103,-11.4421,-11.5917,-11.6412,-11.5815,-11.7888,-11.9026,-11.9076,-12.0488,-12.1496,-12.227,-12.2086,-12.2612,-12.3466,-12.3613,-12.4217,-12.5292,-12.6389,-12.6794,-12.6491,-12.4529,-12.3688,-12.3429,-12.2298,-12.3184,-12.3802,-12.4208,-12.6403,-12.9295,-13.289,-13.6015,-13.8515,-14.0,-14.3789,-14.5898,-14.4804,-14.4101,-14.3593,-14.3086,-14.0904,-13.8782,-13.6908,-13.5788,-13.4202,-13.1706,-12.9403,-12.7417,-12.5781,-12.2695,-12.0586,-11.9609,-11.8906,-11.8593,-11.8711,-11.8191,-11.8012,-11.8202,-11.9483,-11.9695,-11.9216,-12.0107,-11.9893,-11.8984,-11.9412,-11.9289,-11.8998,-11.858,-11.819,-11.8014,-11.8612,-12.0195,-12.2187,-12.1904,-12.2303,-12.279,-12.2519,-12.2713,-12.2794,-12.2113,-12.239,-12.2716,-12.1793,-12.1677,-12.16,-12.06,-11.9715,-11.8908,-11.8023,-11.71,-11.6484,-11.6484,-11.6599,-11.6907,-11.7484,-11.7907,-11.8407,-11.8985,-11.7907,-11.6792,-11.6484,-11.6484,-11.6792,-11.7484,-11.6907,-11.71,-11.8484,-11.71,-11.6099,-11.6292,-11.6984,-11.6397,-11.4208,-11.4791,-11.4811,-11.3908,-11.3908,-11.4873,-11.7116,-11.7429,-11.8197,-11.9379,-11.9825,-12.0594,-12.1697,-12.1989,-12.2406,-12.3114,-12.238,-12.2612,-12.3499,-12.2814,-12.3613,-12.5407,-12.6977,-12.7294,-12.6491,-12.4529,-12.3801,-12.3501,-12.3502,-12.3983,-12.5084,-12.7693,-12.9883,-13.3008,-13.8281,-14.1601,-14.3281,-14.289,-14.4609,-14.5703,-14.5312,-14.5312,-14.5,-14.4218,-14.1982,-13.9892,-13.8095,-13.6601,-13.46,-13.1687,-12.9891,-12.7914,-12.539,-12.289,-12.1093,-12.0312,-11.8906,-11.8515,-11.8984,-11.8191,-11.7895,-11.7895,-11.859,-11.9114,-11.9385,-11.931,-11.8896,-11.8281,-11.8619,-11.8385,-11.8002,-11.8117,-11.7794,-11.7517,-11.8099,-11.9687,-12.1483,-12.1098,-12.1909,-12.2898,-12.26,-12.2602,-12.2691,-12.2691,-12.2793,-12.2793,-12.2408,-12.2293,-12.21,-12.1177,-11.9985,-11.8985,-11.86,-11.7484,-11.6484,-11.6484,-11.6484,-11.6792,-11.76,-11.8215,-11.8484,-11.8407,-11.81,-11.7484,-11.6599,-11.6484,-11.6676,-11.71,-11.6792,-11.6984,-11.8292,-11.81,-11.7792,-11.7792,-11.7792,-11.6885,-11.4692,-11.5382,-11.5305,-11.4002,-11.4424,-11.5606,-11.7792,-11.8715,-11.9715,-12.0985,-12.1796,-12.2186,-12.2368,-12.2274,-12.2215,-12.2013,-12.1609,-12.2311,-12.3684,-12.4299,-12.5103,-12.61,-12.69,-12.6709,-12.5716,-12.4323,-12.3691,-12.3402,-12.5099,-12.5709,-12.7417,-13.1601,-13.3984,-13.7187,-14.2304,-14.5117,-14.6211,-14.5195,-14.5117,-14.5312,-14.5781,-14.6093,-14.6015,-14.5117,-14.25,-14.0312,-13.8711,-13.6992,-13.4687,-13.1601,-13.0508,-12.8515,-12.539,-12.3515,-12.1992,-12.0898,-11.9297,-11.8789,-11.9297,-11.8406,-11.8018,-11.8018,-11.8018,-11.8409,-11.8984,-11.8515,-11.8203,-11.8086,-11.8396,-11.8083,-11.7615,-11.8201,-11.8117,-11.7594,-11.8104,-11.9414,-12.0819,-12.0512,-12.15,-12.2802,-12.2501,-12.2287,-12.241,-12.2797,-12.2882,-12.2908,-12.2716,-12.2601,-12.2408,-12.1485,-12.0216,-11.91,-11.8908,-11.76,-11.6484,-11.6484,-11.6484,-11.6792,-11.76,-11.8215,-11.8407,-11.81,-11.8292,-11.81,-11.6907,-11.6599,-11.6599,-11.6792,-11.6907,-11.7292,-11.8023,-11.8985,-11.9408,-11.8908,-11.8407,-11.7215,-11.5099,-11.5599,-11.5215,-11.3483,-11.4484,-11.5907,-11.7792,-11.9292,-12.0677,-12.1908,-12.3081,-12.3287,-12.2516,-12.2403,-12.1767,-12.0912,-12.0912,-12.199,-12.3902,-12.5708,-12.6478,-12.6678,-12.6678,-12.6195,-12.5419,-12.4386,-12.3915,-12.3402,-12.7806,-13.0116,-13.2616,-13.5312,-13.8593,-14.1484,-14.3593,-14.539,-14.7109,-14.8515,-14.8711,-14.8398,-14.7695,-14.6289,-14.5117,-14.4218,-14.1093,-13.8711,-13.7812,-13.6093,-13.4297,-13.25,-13.0781,-12.8984,-12.7109,-12.4609,-12.2617,-12.0898,-11.9883,-11.9101,-11.8398,-11.828,-11.8319,-11.8319,-11.8319,-11.789,-11.7304,-11.8008,-11.7812,-11.7187,-11.8585,-11.8603,-11.7917,-11.8804,-11.8603,-11.7895,-11.8196,-11.9414,-12.0819,-12.0512,-12.1405,-12.2489,-12.2194,-12.2488,-12.2694,-12.2001,-12.2301,-12.2716,-12.1908,-12.1677,-12.1485,-12.06,-11.9792,-11.8908,-11.81,-11.7215,-11.6484,-11.6484,-11.6484,-11.6792,-11.76,-11.7215,-11.7176,-11.8715,-11.7715,-11.6984,-11.76,-11.6984,-11.6792,-11.76,-11.8407,-11.8908,-11.8985,-12.0408,-12.0408,-11.81,-11.86,-11.76,-11.4291,-11.4214,-11.3483,-11.1791,-11.3291,-11.5291,-11.7792,-11.8715,-12.0408,-12.2793,-12.2914,-12.2793,-12.2478,-12.2519,-12.1891,-12.0912,-12.0912,-12.199,-12.3907,-12.4917,-12.5876,-12.6678,-12.6678,-12.6615,-12.6389,-12.5381,-12.4592,-12.3687,-13.2187,-13.3711,-13.6093,-14.0195,-14.1718,-14.3398,-14.6601,-14.7304,-14.7617,-14.8281,-14.8007,-14.75,-14.7187,-14.6015,-14.4804,-14.3398,-14.1093,-13.9101,-13.7695,-13.6015,-13.4297,-13.2617,-13.1289,-12.9883,-12.8086,-12.5586,-12.3711,-12.25,-12.1093,-11.9883,-11.9101,-11.8515,-11.7695,-11.6718,-11.6718,-11.6601,-11.6289,-11.6601,-11.6797,-11.7109,-11.8193,-11.8195,-11.7716,-11.8382,-11.819,-11.7693,-11.8695,-11.9883,-12.1015,-12.1316,-12.2103,-12.2708,-12.2209,-12.2197,-12.2407,-12.2409,-12.2293,-12.2216,-12.2293,-12.1985,-12.1485,-12.1177,-12.01,-11.8985,-11.8715,-11.7484,-11.6484,-11.6484,-11.6484,-11.6599,-11.6984,-11.7303,-11.7502,-11.7513,-11.7517,-11.7405,-11.7106,-11.6676,-11.6484,-11.6292,-11.6984,-11.7484,-11.7484,-11.91,-11.9485,-11.7907,-11.86,-11.7407,-11.3407,-11.3714,-11.3483,-11.2291,-11.3407,-11.5484,-11.86,-11.9408,-12.0908,-12.2908,-12.3909,-12.4015,-12.3299,-12.329,-12.2383,-12.0897,-12.1605,-12.2594,-12.3905,-12.4885,-12.5915,-12.6692,-12.6599,-12.6203,-12.5698,-12.5296,-12.4622,-12.3788,-13.6211,-13.7812,-14.0312,-14.4414,-14.5117,-14.5898,-14.8398,-14.8086,-14.7382,-14.7187,-14.6211,-14.5586,-14.5781,-14.5117,-14.3906,-14.2187,-14.039,-13.8789,-13.7304,-13.5781,-13.4414,-13.289,-13.1992,-13.0781,-12.8984,-12.6718,-12.4883,-12.3515,-12.1797,-12.0508,-11.9609,-11.8398,-11.7109,-11.5703,-11.5703,-11.5703,-11.5781,-11.6015,-11.6601,-11.75,-11.8281,-11.8283,-11.7701,-11.8384,-11.84,-11.8215,-11.9206,-12.0312,-12.1406,-12.1992,-12.2605,-12.298,-12.2402,-12.2213,-12.2214,-12.2399,-12.21,-12.1677,-12.2408,-12.21,-12.1485,-12.1293,-12.0177,-11.8985,-11.8792,-11.76,-11.6484,-11.6484,-11.6484,-11.6512,-11.6586,-11.7309,-11.7704,-11.7194,-11.7601,-11.769,-11.7095,-11.682,-11.6487,-11.6083,-11.6792,-11.7176,-11.6907,-11.8407,-11.8715,-11.6792,-11.7484,-11.6407,-11.2906,-11.3099,-11.2983,-11.2406,-11.3714,-11.5792,-11.8715,-11.9792,-12.0985,-12.2485,-12.3985,-12.4289,-12.3502,-12.3411,-12.2507,-12.0897,-12.1704,-12.26,-12.339,-12.4503,-12.5492,-12.6195,-12.6098,-12.5924,-12.5621,-12.5169,-12.4584,-12.3928,-13.9492,-14.289,-14.5781,-14.75,-14.9297,-14.9804,-14.8203,-14.7187,-14.6289,-14.539,-14.3906,-14.3086,-14.3906,-14.3281,-14.2109,-14.039,-13.8593,-13.7304,-13.6406,-13.5508,-13.4609,-13.3789,-13.289,-13.1718,-12.9883,-12.8203,-12.6015,-12.3515,-12.1797,-12.0508,-11.9609,-11.7812,-11.6601,-11.5781,-11.5703,-11.5703,-11.5781,-11.6601,-11.75,-11.8398,-11.9218,-11.9101,-11.8398,-11.9297,-11.9609,-11.9609,-11.9609,-12.0703,-12.2187,-12.2187,-12.2812,-12.3391,-12.2717,-12.2291,-12.2021,-12.1706,-12.16,-12.16,-12.16,-12.16,-12.1408,-12.0485,-11.9715,-11.8908,-11.8023,-11.71,-11.6484,-11.6484,-11.6484,-11.6582,-11.6912,-11.6998,-11.7399,-11.85,-11.8014,-11.7595,-11.8094,-11.7484,-11.721,-11.7705,-11.8484,-11.8715,-11.7907,-11.9292,-11.86,-11.4407,-11.4907,-11.4599,-11.2791,-11.2022,-11.1522,-11.1522,-11.3984,-11.6099,-11.7792,-11.9485,-12.0716,-12.16,-12.2485,-12.2908,-12.2672,-12.241,-12.1815,-12.0886,-12.0969,-12.1482,-12.2399,-12.3514,-12.4401,-12.5194,-12.5202,-12.581,-12.6605,-12.5612,-12.471,-12.4192,-14.3281,-14.5507,-14.7382,-14.8593,-14.9218,-14.9218,-14.8086,-14.7187,-14.6289,-14.539,-14.4297,-14.3281,-14.2382,-14.2109,-14.1211,-13.9492,-13.8281,-13.6992,-13.5508,-13.4609,-13.4101,-13.3789,-13.3515,-13.2617,-13.0781,-12.9687,-12.75,-12.4414,-12.3203,-12.1289,-11.8711,-11.8086,-11.7109,-11.5781,-11.6289,-11.6601,-11.6601,-11.6914,-11.75,-11.8281,-11.8593,-11.839,-11.8081,-11.8512,-11.9015,-11.9412,-12.0192,-12.1211,-12.2304,-12.289,-12.3281,-12.3392,-12.2717,-12.2389,-12.2286,-12.1798,-12.16,-12.16,-12.16,-12.16,-12.1485,-12.1293,-12.0485,-11.9715,-11.8908,-11.771,-11.6789,-11.6496,-11.6805,-11.7097,-11.6993,-11.7284,-11.7712,-11.7803,-11.7789,-11.7722,-11.7406,-11.7192,-11.6784,-11.6204,-11.7292,-11.7907,-11.6984,-11.8484,-11.8715,-11.6715,-11.6292,-11.4907,-11.2022,-11.2214,-11.2599,-11.3214,-11.5099,-11.7176,-11.9485,-11.9985,-12.1293,-12.3293,-12.3601,-12.4021,-12.4409,-12.4205,-12.329,-12.1909,-12.2022,-12.2525,-12.339,-12.4512,-12.5399,-12.601,-12.601,-12.62,-12.6482,-12.6102,-12.6002,-12.5794,-14.6093,-14.7695,-14.8789,-14.8711,-14.8984,-14.8711,-14.7187,-14.6484,-14.5703,-14.4492,-14.3593,-14.25,-14.1211,-14.039,-13.9609,-13.8515,-13.789,-13.6914,-13.5117,-13.4492,-13.4101,-13.3789,-13.3789,-13.3008,-13.1211,-13.0,-12.8008,-12.5312,-12.3398,-12.1211,-11.8789,-11.8086,-11.7187,-11.6211,-11.6797,-11.6992,-11.6992,-11.7304,-11.7812,-11.8281,-11.8281,-11.8196,-11.8088,-11.82,-11.8899,-11.9887,-12.0583,-12.1718,-12.2812,-12.3711,-12.3984,-12.39,-12.3613,-12.3279,-12.2804,-12.1879,-12.16,-12.16,-12.16,-12.16,-12.16,-12.16,-12.0677,-11.9591,-11.8478,-11.7598,-11.7003,-11.6898,-11.7108,-11.7419,-11.7296,-11.7621,-11.7884,-11.78,-11.7917,-11.7794,-11.7192,-11.7196,-11.6899,-11.6303,-11.7484,-11.81,-11.7484,-11.8484,-11.8292,-11.6484,-11.5599,-11.3984,-11.1598,-11.2599,-11.3599,-11.4484,-11.6099,-11.81,-12.0292,-12.0908,-12.2216,-12.4101,-12.4793,-12.5287,-12.5667,-12.5504,-12.4782,-12.3825,-12.3503,-12.3721,-12.428,-12.5417,-12.5886,-12.5896,-12.5896,-12.6221,-12.6501,-12.6094,-12.6116,-12.6178,-14.7695,-14.9101,-14.9687,-14.8086,-14.8515,-14.8203,-14.5586,-14.5195,-14.4609,-14.289,-14.1992,-14.1211,-14.0312,-13.8711,-13.7617,-13.75,-13.75,-13.6718,-13.5,-13.4883,-13.4609,-13.3789,-13.3711,-13.289,-13.1211,-12.9609,-12.7812,-12.5898,-12.2617,-12.0508,-11.9687,-11.8008,-11.7304,-11.7304,-11.7304,-11.7304,-11.7304,-11.8086,-11.8398,-11.8398,-11.8398,-11.8398,-11.8398,-11.8515,-11.9492,-12.1015,-12.1015,-12.2109,-12.3593,-12.4492,-12.4804,-12.4798,-12.5016,-12.4497,-12.3581,-12.211,-12.16,-12.16,-12.16,-12.16,-12.16,-12.16,-12.0292,-11.8795,-11.7514,-11.7092,-11.712,-11.7306,-11.7397,-11.7615,-11.7794,-11.7906,-11.7988,-11.8319,-11.8281,-11.8099,-11.7478,-11.7403,-11.75,-11.781,-11.86,-11.91,-11.9215,-11.9107,-11.7799,-11.4599,-11.3527,-11.2719,-11.1906,-11.3291,-11.4484,-11.5291,-11.6984,-11.8715,-12.0408,-12.21,-12.3293,-12.4216,-12.5986,-12.6809,-12.6598,-12.6483,-12.6433,-12.6396,-12.5528,-12.5226,-12.5181,-12.6287,-12.6192,-12.5278,-12.5377,-12.6002,-12.6708,-12.5822,-12.5597,-12.5794,-14.6914,-14.7187,-14.7382,-14.6992,-14.7109,-14.6601,-14.4609,-14.4297,-14.3711,-14.1992,-14.1601,-14.1211,-14.0312,-13.9218,-13.8086,-13.6718,-13.6015,-13.5195,-13.4218,-13.4101,-13.3984,-13.3789,-13.3203,-13.2304,-13.1211,-13.0117,-12.8086,-12.5117,-12.289,-12.1406,-12.0586,-12.0195,-12.0,-12.0,-12.0,-12.0,-11.9883,-11.9492,-11.9297,-11.9297,-11.9297,-11.9297,-11.9414,-12.0,-12.1015,-12.1914,-12.1914,-12.2617,-12.3593,-12.4492,-12.4804,-12.4798,-12.5016,-12.4991,-12.4514,-12.2998,-12.21,-12.16,-12.16,-12.16,-12.16,-12.16,-12.0292,-11.9103,-11.8889,-11.8088,-11.7309,-11.738,-11.7813,-11.8009,-11.7911,-11.8088,-11.8199,-11.8281,-11.8281,-11.8099,-11.7478,-11.7403,-11.75,-11.781,-11.86,-11.9292,-11.9985,-11.9605,-11.9009,-11.7991,-11.6692,-11.5785,-11.5314,-11.5676,-11.5676,-11.5291,-11.76,-11.96,-12.1293,-12.2408,-12.3601,-12.5101,-12.7486,-12.8219,-12.7591,-12.8078,-12.8,-12.7429,-12.7207,-12.6712,-12.6205,-12.7205,-12.6998,-12.6186,-12.6982,-12.7327,-12.7514,-12.8098,-12.8322,-12.8294,-14.6601,-14.6601,-14.6484,-14.6093,-14.6015,-14.539,-14.3711,-14.3515,-14.2812,-14.1093,-14.0898,-14.039,-13.9218,-13.8203,-13.7187,-13.5781,-13.5312,-13.4687,-13.3906,-13.3398,-13.3398,-13.3789,-13.2617,-13.1718,-13.1211,-13.0,-12.7812,-12.4804,-12.3515,-12.2304,-12.1484,-12.1093,-12.0898,-12.0898,-12.0898,-12.0898,-12.0898,-12.039,-12.0195,-12.0195,-12.0195,-12.0195,-12.0195,-12.0703,-12.1406,-12.2187,-12.2187,-12.3008,-12.4218,-12.5117,-12.5586,-12.6012,-12.6389,-12.6077,-12.5487,-12.4615,-12.3292,-12.21,-12.1677,-12.16,-12.1485,-12.11,-12.0292,-11.9707,-11.9703,-11.8787,-11.8101,-11.8314,-11.8292,-11.8319,-11.8099,-11.8196,-11.8281,-11.8281,-11.8281,-11.8111,-11.7709,-11.7488,-11.7478,-11.789,-11.8602,-11.9482,-12.0395,-12.0283,-11.9924,-11.9502,-11.7988,-11.6895,-11.6711,-11.6214,-11.6099,-11.6407,-11.8484,-12.0485,-12.2216,-12.3793,-12.5101,-12.5986,-12.7794,-12.8409,-12.7923,-12.8576,-12.9001,-12.8978,-12.8895,-12.839,-12.7808,-12.8297,-12.7682,-12.6593,-12.749,-12.7912,-12.7923,-12.8873,-12.9217,-12.9217,-14.6406,-14.6289,-14.5898,-14.5117,-14.4882,-14.4414,-14.2695,-14.2304,-14.1601,-14.0,-13.9687,-13.8984,-13.7617,-13.6601,-13.5781,-13.5117,-13.4883,-13.4492,-13.3789,-13.3086,-13.3008,-13.3593,-13.2109,-13.1093,-13.1015,-12.9297,-12.7304,-12.5195,-12.4297,-12.3515,-12.2812,-12.1914,-12.1484,-12.1484,-12.1406,-12.1289,-12.1289,-12.1211,-12.1093,-12.1093,-12.1093,-12.1093,-12.1093,-12.1211,-12.1797,-12.2383,-12.2383,-12.3398,-12.4883,-12.5586,-12.6406,-12.7185,-12.7617,-12.7114,-12.6209,-12.5691,-12.4283,-12.2794,-12.2008,-12.1677,-12.1408,-12.0677,-12.0292,-12.0101,-12.0212,-11.9387,-11.8919,-11.9483,-11.8984,-11.8515,-11.8281,-11.8281,-11.8281,-11.8281,-11.8281,-11.8194,-11.789,-11.7585,-11.7608,-11.8302,-11.879,-11.9613,-12.0895,-12.09,-12.0703,-12.0205,-11.841,-11.7314,-11.7186,-11.619,-11.6303,-11.7907,-11.9485,-12.1293,-12.3293,-12.5601,-12.6678,-12.6678,-12.7486,-12.7909,-12.7885,-12.8806,-12.9591,-13.05,-13.0299,-12.9811,-12.9217,-12.9102,-12.8102,-12.6794,-12.7717,-12.8102,-12.8217,-12.9217,-12.9602,-12.9602,-14.539,-14.4882,-14.4101,-14.3281,-14.3203,-14.2617,-14.0898,-14.0,-13.9101,-13.8086,-13.7382,-13.6797,-13.6484,-13.5703,-13.5117,-13.5,-13.4414,-13.3906,-13.3789,-13.3711,-13.3281,-13.2695,-13.1718,-13.0898,-13.0117,-12.8398,-12.7304,-12.6914,-12.6015,-12.5508,-12.539,-12.4609,-12.4218,-12.4218,-12.3398,-12.3086,-12.3008,-12.2304,-12.1992,-12.1992,-12.1992,-12.1992,-12.2109,-12.2812,-12.3203,-12.3281,-12.3281,-12.3906,-12.4804,-12.4883,-12.5508,-12.6209,-12.6017,-12.5909,-12.5507,-12.4087,-12.3489,-12.3204,-12.2816,-12.2216,-12.16,-12.1408,-12.0292,-11.96,-12.0704,-11.9815,-11.8889,-11.9483,-11.9492,-11.9218,-11.8398,-11.8281,-11.8281,-11.8281,-11.8281,-11.8104,-11.7615,-11.7386,-11.7786,-11.8786,-11.8992,-11.9806,-12.1708,-12.1383,-12.1079,-12.1111,-11.9686,-11.8588,-11.811,-11.7218,-11.7388,-11.8892,-11.9792,-12.1793,-12.4986,-12.6101,-12.6678,-12.6678,-12.7486,-12.7909,-12.8025,-12.9501,-13.0308,-13.0487,-13.05,-13.0001,-12.9102,-12.8409,-12.7486,-12.6909,-12.8409,-12.8986,-12.9217,-13.0718,-13.1295,-13.1295,-14.3789,-14.3281,-14.25,-14.2187,-14.2109,-14.1718,-14.039,-13.9492,-13.8593,-13.7695,-13.6797,-13.6093,-13.5703,-13.5195,-13.4804,-13.4414,-13.3984,-13.3789,-13.3789,-13.3398,-13.3086,-13.3203,-13.1484,-13.0312,-12.9883,-12.9101,-12.8515,-12.8008,-12.7617,-12.6914,-12.6015,-12.5586,-12.5195,-12.4804,-12.4414,-12.3906,-12.3515,-12.3086,-12.289,-12.289,-12.289,-12.289,-12.289,-12.3281,-12.3789,-12.4218,-12.4218,-12.5,-12.6093,-12.5586,-12.6015,-12.6601,-12.5998,-12.5718,-12.5414,-12.4515,-12.3406,-12.2419,-12.2209,-12.1908,-12.16,-12.16,-12.0985,-12.0679,-12.1689,-12.0905,-12.0088,-12.0304,-11.9883,-11.9297,-11.8515,-11.8281,-11.8281,-11.8281,-11.8193,-11.7983,-11.7717,-11.7407,-11.7686,-11.9107,-11.9223,-11.9873,-12.2092,-12.2104,-12.189,-12.1803,-12.0599,-11.9503,-11.8618,-11.7593,-11.7579,-11.9084,-12.0793,-12.2908,-12.5409,-12.5794,-12.5986,-12.5986,-12.6909,-12.6986,-12.6601,-12.8794,-12.9487,-12.9217,-13.0102,-12.9717,-12.8486,-12.8102,-12.7409,-12.6909,-12.8486,-12.9217,-12.941,-13.1102,-13.1679,-13.1679,-14.2304,-14.1992,-14.1406,-14.1211,-14.1211,-14.0898,-14.0,-13.9218,-13.8281,-13.7382,-13.6484,-13.5703,-13.4804,-13.4687,-13.4492,-13.3906,-13.3789,-13.3789,-13.3789,-13.3203,-13.3008,-13.3515,-13.1211,-12.9804,-12.9609,-12.9804,-12.9492,-12.8593,-12.8789,-12.8086,-12.6601,-12.6406,-12.5898,-12.5117,-12.5117,-12.4609,-12.3789,-12.3984,-12.4101,-12.4101,-12.4101,-12.4101,-12.4101,-12.4101,-12.4492,-12.5117,-12.5117,-12.6015,-12.7109,-12.6093,-12.6289,-12.6797,-12.5781,-12.5298,-12.5009,-12.4597,-12.3092,-12.16,-12.16,-12.16,-12.16,-12.16,-12.1293,-12.1297,-12.2311,-12.1683,-12.0906,-12.0889,-12.039,-11.9609,-11.8515,-11.8281,-11.8281,-11.8198,-11.7999,-11.7911,-11.7702,-11.7504,-11.7799,-11.92,-11.9489,-12.0304,-12.2297,-12.2412,-12.231,-12.2186,-12.0992,-11.9783,-11.8787,-11.7708,-11.7707,-11.9084,-12.16,-12.3601,-12.5101,-12.5101,-12.5101,-12.5101,-12.5794,-12.5909,-12.5486,-12.7602,-12.8409,-12.8025,-12.9294,-12.9102,-12.7909,-12.7717,-12.7294,-12.6794,-12.8294,-12.8986,-12.941,-13.091,-13.1487,-13.1679,-14.1406,-14.1484,-14.1211,-14.039,-14.0312,-14.0,-13.9101,-13.8281,-13.7382,-13.6484,-13.5586,-13.4804,-13.3984,-13.3906,-13.3906,-13.3789,-13.3789,-13.3789,-13.3789,-13.3711,-13.3398,-13.2617,-13.0898,-12.9492,-12.8711,-12.9492,-12.9492,-12.8593,-12.9414,-12.9297,-12.8398,-12.7617,-12.6718,-12.5898,-12.5898,-12.5508,-12.4804,-12.5508,-12.5781,-12.5781,-12.5781,-12.5781,-12.5781,-12.5781,-12.5898,-12.5898,-12.5898,-12.6484,-12.7109,-12.539,-12.539,-12.5781,-12.4218,-12.3711,-12.3503,-12.2893,-12.2184,-12.16,-12.16,-12.16,-12.16,-12.16,-12.0408,-11.9792,-12.2,-12.1189,-12.0214,-12.0811,-12.0781,-12.0312,-11.8593,-11.8281,-11.8198,-11.8009,-11.7906,-11.7702,-11.7088,-11.769,-11.8408,-11.9004,-12.0014,-12.1215,-12.2387,-12.2099,-12.1883,-12.2187,-12.0585,-11.9408,-11.8681,-11.7886,-11.7903,-11.9107,-12.16,-12.3293,-12.4216,-12.4216,-12.4216,-12.4216,-12.4293,-12.4716,-12.5409,-12.6409,-12.7294,-12.7909,-12.8025,-12.8025,-12.7794,-12.7101,-12.6794,-12.6794,-12.7717,-12.8486,-12.9294,-13.0217,-13.1102,-13.1602,-13.9804,-13.9882,-13.9609,-13.8711,-13.8984,-13.9101,-13.8203,-13.7382,-13.6484,-13.5586,-13.4804,-13.4101,-13.3789,-13.3789,-13.3789,-13.3789,-13.3789,-13.3789,-13.3789,-13.3789,-13.3203,-13.1797,-13.0508,-13.0,-13.0195,-13.0508,-13.0508,-13.0195,-13.0508,-13.0,-12.8593,-12.8281,-12.7617,-12.6797,-12.6797,-12.6289,-12.5586,-12.5898,-12.6015,-12.6015,-12.6015,-12.6015,-12.6015,-12.6015,-12.6015,-12.6015,-12.6015,-12.6211,-12.6289,-12.5195,-12.5,-12.5117,-12.3906,-12.3515,-12.3391,-12.2708,-12.2323,-12.2096,-12.1986,-12.1815,-12.16,-12.16,-12.1314,-12.1074,-12.1612,-12.1394,-12.0909,-12.019,-12.0117,-11.9883,-11.9218,-11.9101,-11.9017,-11.8702,-11.8512,-11.8214,-11.7817,-11.7889,-11.838,-11.97,-12.0187,-12.0805,-12.1585,-12.1509,-12.1207,-12.0585,-12.0,-11.9103,-11.7981,-11.8291,-11.8893,-11.9815,-12.1293,-12.2485,-12.3293,-12.3408,-12.3408,-12.3408,-12.3909,-12.4293,-12.4601,-12.6101,-12.6909,-12.7178,-12.7178,-12.7178,-12.7101,-12.6217,-12.6178,-12.6794,-12.7602,-12.8409,-12.9217,-12.9602,-13.0217,-13.0794,-13.8906,-13.8906,-13.8593,-13.7812,-13.8086,-13.8203,-13.7304,-13.6718,-13.6015,-13.5117,-13.4492,-13.4101,-13.3789,-13.3789,-13.3789,-13.3789,-13.3789,-13.3789,-13.3789,-13.3515,-13.2695,-13.1289,-13.039,-13.0117,-13.039,-13.0703,-13.0703,-13.039,-13.0703,-13.0,-12.8593,-12.8906,-12.8515,-12.7695,-12.8281,-12.8008,-12.7187,-12.7187,-12.7187,-12.7187,-12.6914,-12.6797,-12.6797,-12.6797,-12.6797,-12.6797,-12.6797,-12.6601,-12.6289,-12.5508,-12.5,-12.4609,-12.3789,-12.3396,-12.3291,-12.2809,-12.2618,-12.2414,-12.1883,-12.1589,-12.1482,-12.1395,-12.1403,-12.13,-12.0884,-12.0912,-12.0703,-11.9802,-11.9804,-11.9804,-11.9297,-11.9414,-11.9483,-11.9101,-11.8891,-11.8619,-11.8097,-11.838,-11.8792,-11.9408,-12.0126,-12.0517,-12.0702,-12.0578,-12.0306,-11.9515,-11.9208,-11.8697,-11.7711,-11.8798,-11.96,-11.9908,-12.0985,-12.1793,-12.21,-12.2408,-12.2485,-12.2485,-12.3101,-12.3601,-12.4101,-12.5293,-12.5986,-12.6294,-12.6294,-12.6101,-12.5909,-12.5486,-12.5794,-12.6409,-12.7217,-12.7986,-12.8794,-12.8486,-12.8986,-12.9602,-13.8906,-13.8906,-13.8593,-13.7695,-13.7617,-13.7304,-13.6406,-13.6289,-13.6015,-13.5117,-13.5,-13.4687,-13.3906,-13.3789,-13.3789,-13.3789,-13.3789,-13.3789,-13.3789,-13.3008,-13.2109,-13.1211,-13.039,-12.9492,-12.8593,-12.9492,-12.9492,-12.8593,-12.9492,-12.9492,-12.8593,-12.9492,-12.9414,-12.8711,-13.039,-13.0703,-12.9883,-12.9883,-12.9883,-12.9804,-12.8906,-12.8593,-12.8593,-12.8593,-12.8593,-12.8593,-12.8593,-12.8008,-12.7109,-12.6289,-12.539,-12.4609,-12.3789,-12.3296,-12.3008,-12.3008,-12.2792,-12.2318,-12.1411,-12.1216,-12.1105,-12.0911,-12.0413,-12.001,-12.001,-11.9595,-11.9306,-11.949,-12.0312,-12.039,-11.8593,-11.8984,-11.9391,-11.8812,-11.8714,-11.851,-11.7909,-11.9215,-11.9715,-11.8023,-11.9609,-12.0406,-11.961,-11.9289,-11.9189,-11.9189,-11.8403,-11.7993,-11.821,-11.9484,-11.9908,-11.91,-12.0677,-12.1177,-12.0292,-12.1177,-12.16,-12.16,-12.16,-12.2485,-12.4101,-12.4101,-12.4601,-12.5409,-12.5409,-12.4909,-12.4216,-12.4986,-12.5409,-12.5486,-12.6294,-12.7217,-12.7794,-12.6986,-12.7217,-12.7794,-13.6289,-13.6718,-13.6797,-13.5898,-13.6289,-13.6406,-13.5508,-13.539,-13.5117,-13.4297,-13.4218,-13.4101,-13.3789,-13.3789,-13.3789,-13.3789,-13.3789,-13.3789,-13.3789,-13.3008,-13.2383,-13.2109,-13.0703,-12.9804,-12.9492,-12.9804,-13.0117,-13.039,-13.0117,-12.9804,-12.9492,-12.9218,-12.8789,-12.8593,-12.9101,-12.9218,-12.8984,-12.8984,-12.8593,-12.8086,-12.7812,-12.7304,-12.6797,-12.75,-12.6992,-12.6015,-12.6601,-12.5898,-12.4609,-12.4297,-12.4101,-12.3789,-12.3593,-12.3396,-12.3184,-12.2293,-12.2186,-12.2013,-12.0888,-12.0789,-12.0888,-12.0388,-12.0281,-12.0111,-11.9487,-11.938,-11.9291,-11.8788,-11.9414,-12.0,-12.0117,-12.0101,-12.0008,-11.9687,-11.889,-11.8276,-11.7903,-11.8215,-11.86,-11.8715,-11.9396,-11.9593,-11.902,-11.9111,-11.891,-11.8285,-11.8197,-11.8685,-12.0019,-12.0178,-12.0216,-11.9908,-12.0408,-12.0292,-11.9485,-12.0908,-12.16,-12.16,-12.16,-12.2216,-12.3293,-12.3293,-12.3716,-12.4486,-12.3909,-12.3793,-12.4101,-12.3793,-12.3985,-12.4486,-12.4793,-12.5409,-12.5986,-12.5216,-12.5409,-12.5986,-13.5586,-13.5898,-13.6015,-13.5195,-13.539,-13.5508,-13.4687,-13.4492,-13.4414,-13.3906,-13.3789,-13.3789,-13.3789,-13.3789,-13.3789,-13.3789,-13.3789,-13.3789,-13.3789,-13.3281,-13.289,-13.25,-13.1484,-13.0781,-13.039,-13.039,-13.0703,-13.1211,-13.0312,-12.9883,-12.9883,-12.9414,-12.9101,-12.9101,-12.9492,-12.9609,-12.9609,-12.9297,-12.8593,-12.7812,-12.7383,-12.6992,-12.6484,-12.6718,-12.6406,-12.5781,-12.5898,-12.5117,-12.3984,-12.3984,-12.3789,-12.3515,-12.3515,-12.3515,-12.3397,-12.2588,-12.2605,-12.2499,-12.1416,-12.1003,-12.0698,-11.9997,-12.0019,-11.9788,-11.8804,-11.8917,-11.8906,-11.8398,-11.8984,-11.9608,-11.9712,-11.9788,-11.9814,-11.9396,-11.8687,-11.8195,-11.7804,-11.81,-11.8305,-11.8288,-11.8718,-11.8788,-11.8186,-11.8286,-11.8292,-11.8004,-11.8792,-11.9603,-12.0613,-12.0726,-12.0485,-11.9792,-12.01,-11.9715,-11.86,-11.9908,-12.0793,-12.11,-12.1408,-12.21,-12.2908,-12.2908,-12.3216,-12.3601,-12.3101,-12.2985,-12.3101,-12.2985,-12.3216,-12.3716,-12.3985,-12.4409,-12.4793,-12.3909,-12.3985,-12.4293,-13.6093,-13.6093,-13.5781,-13.5,-13.4883,-13.4609,-13.3906,-13.3789,-13.3789,-13.3789,-13.3789,-13.3789,-13.3789,-13.3789,-13.3789,-13.3789,-13.3789,-13.3789,-13.3789,-13.3789,-13.3398,-13.2695,-13.2617,-13.2187,-13.1406,-13.1289,-13.1211,-13.1289,-13.039,-13.0,-13.0,-12.9883,-12.9883,-12.9804,-13.0586,-13.1015,-13.0898,-13.0117,-12.9297,-12.8398,-12.7617,-12.7304,-12.7109,-12.6406,-12.6484,-12.6992,-12.6289,-12.539,-12.4687,-12.4687,-12.4218,-12.3515,-12.3515,-12.3515,-12.3515,-12.3398,-12.3398,-12.3084,-12.2303,-12.1483,-12.0702,-11.9881,-11.9687,-11.9411,-11.8218,-11.8104,-11.8281,-11.8281,-11.8984,-11.921,-11.8195,-11.8619,-11.8898,-11.8291,-11.8087,-11.8003,-11.7793,-11.8398,-11.8383,-11.7192,-11.77,-11.801,-11.7497,-11.7419,-11.7699,-11.8293,-11.9812,-12.071,-12.0392,-12.1177,-12.0793,-11.9215,-11.9792,-11.9408,-11.7715,-11.8484,-11.9408,-12.0216,-12.11,-12.1908,-12.2601,-12.2601,-12.2601,-12.2601,-12.2601,-12.2216,-12.16,-12.2408,-12.2793,-12.2908,-12.3601,-12.3909,-12.3793,-12.3101,-12.2793,-12.2793,-13.4297,-13.4297,-13.4297,-13.4101,-13.4101,-13.3984,-13.3789,-13.3789,-13.3789,-13.3789,-13.3789,-13.3789,-13.3789,-13.3789,-13.3789,-13.3789,-13.3789,-13.3789,-13.3789,-13.3789,-13.3711,-13.3515,-13.3515,-13.3398,-13.3203,-13.1914,-13.1484,-13.2187,-13.1289,-13.0898,-13.0898,-13.0195,-12.9492,-12.8906,-12.9101,-12.9218,-12.9218,-12.8984,-12.8398,-12.7617,-12.7383,-12.6914,-12.6289,-12.6797,-12.6289,-12.539,-12.5781,-12.5,-12.3789,-12.3789,-12.3711,-12.3515,-12.3515,-12.3515,-12.3398,-12.2695,-12.2288,-12.1918,-12.0981,-12.0707,-12.0512,-12.0317,-12.0411,-12.0195,-11.859,-11.8319,-11.8281,-11.8281,-11.881,-11.9185,-11.8999,-11.8685,-11.8399,-11.8288,-11.7503,-11.69,-11.7114,-11.7305,-11.7402,-11.7297,-11.7703,-11.7807,-11.7414,-11.7786,-11.8414,-11.9188,-11.9993,-12.0698,-12.1316,-12.1485,-12.0793,-11.9215,-11.9292,-11.8484,-11.6792,-11.76,-11.8484,-11.9408,-12.0216,-12.0408,-11.9908,-12.06,-12.0485,-11.9985,-12.06,-12.0793,-12.06,-12.1485,-12.1908,-12.1908,-12.21,-12.21,-12.21,-12.1908,-12.1908,-12.1908,-13.3789,-13.3789,-13.3789,-13.3789,-13.3789,-13.3789,-13.3789,-13.3789,-13.3789,-13.3789,-13.3789,-13.3789,-13.3789,-13.3789,-13.3789,-13.3789,-13.3789,-13.3789,-13.3789,-13.3789,-13.3789,-13.3789,-13.3789,-13.3789,-13.3789,-13.289,-13.2695,-13.3086,-13.2187,-13.1797,-13.1797,-13.0898,-13.0117,-12.9218,-12.9218,-12.8984,-12.8593,-12.8593,-12.8086,-12.7304,-12.7304,-12.6992,-12.6601,-12.6718,-12.6406,-12.6015,-12.6015,-12.5195,-12.4101,-12.3593,-12.3515,-12.3515,-12.3515,-12.3515,-12.3397,-12.2796,-12.2517,-12.2188,-12.1792,-12.1285,-12.1107,-12.1205,-12.1085,-12.0703,-11.9687,-11.9492,-11.9492,-11.9492,-11.9483,-11.9412,-11.9199,-11.8595,-11.8123,-11.7916,-11.7306,-11.7009,-11.7186,-11.7089,-11.712,-11.7407,-11.7414,-11.7396,-11.7217,-11.8214,-11.8984,-11.9279,-12.0319,-12.11,-12.16,-12.1177,-12.0408,-11.91,-11.8715,-11.7792,-11.6484,-11.6984,-11.7407,-11.7907,-11.91,-11.9485,-11.91,-11.9485,-11.9485,-11.91,-11.9985,-12.0292,-12.0408,-12.1177,-12.16,-12.16,-12.16,-12.16,-12.16,-12.16,-12.16,-12.16,-13.3789,-13.3789,-13.3789,-13.3789,-13.3789,-13.3789,-13.3789,-13.3789,-13.3789,-13.3789,-13.3789,-13.3789,-13.3789,-13.3789,-13.3789,-13.3789,-13.3789,-13.3789,-13.3789,-13.3789,-13.3789,-13.3789,-13.3789,-13.3789,-13.3789,-13.3789,-13.3789,-13.3789,-13.3086,-13.2617,-13.25,-13.1797,-13.1015,-13.0117,-13.0,-12.9492,-12.8789,-12.8711,-12.8203,-12.75,-12.75,-12.7617,-12.7617,-12.6797,-12.6914,-12.7383,-12.6406,-12.539,-12.4492,-12.3711,-12.3515,-12.3515,-12.3515,-12.3593,-12.3592,-12.3188,-12.3181,-12.3203,-12.289,-12.2383,-12.1981,-12.2097,-12.1718,-12.1289,-12.1289,-12.1093,-12.0898,-12.0703,-12.0116,-11.9402,-11.9014,-11.8502,-11.7881,-11.7719,-11.7714,-11.7892,-11.7896,-11.7594,-11.7419,-11.7719,-11.7409,-11.7192,-11.7192,-11.8692,-11.9512,-11.9299,-12.0677,-12.1485,-12.1408,-12.0677,-11.9908,-11.8908,-11.8215,-11.7407,-11.6484,-11.6484,-11.6484,-11.6484,-11.7984,-11.8715,-11.8715,-11.8792,-11.8792,-11.8715,-11.9485,-11.9985,-12.0216,-12.0985,-12.1485,-12.16,-12.16,-12.16,-12.16,-12.16,-12.16,-12.16,-13.3789,-13.3789,-13.3789,-13.3789,-13.3789,-13.3789,-13.3789,-13.3789,-13.3789,-13.3789,-13.3789,-13.3789,-13.3789,-13.3789,-13.3789,-13.3789,-13.3789,-13.3789,-13.3789,-13.3789,-13.3789,-13.3789,-13.3789,-13.3789,-13.3789,-13.3789,-13.3789,-13.3789,-13.3711,-13.3203,-13.25,-13.2383,-13.1914,-13.1015,-13.0195,-12.9804,-12.9687,-12.8906,-12.8515,-12.8398,-12.8398,-12.8906,-12.9492,-12.8593,-12.8281,-12.8203,-12.6601,-12.5,-12.3711,-12.3515,-12.3515,-12.3515,-12.3515,-12.3984,-12.4492,-12.3709,-12.3792,-12.3788,-12.2305,-12.2305,-12.2701,-12.1898,-12.2518,-12.3086,-12.3086,-12.1992,-12.0703,-11.9883,-11.9508,-11.9014,-11.8213,-11.8395,-11.8586,-11.8504,-11.9204,-11.9679,-11.9991,-11.9085,-11.8586,-11.8899,-11.8424,-11.8005,-11.8005,-11.9317,-12.0191,-12.01,-12.0985,-12.1293,-12.0485,-12.0408,-11.96,-11.8023,-11.7907,-11.7407,-11.6484,-11.6484,-11.6484,-11.6484,-11.6676,-11.6907,-11.6907,-11.76,-11.76,-11.6907,-11.7792,-11.86,-11.9292,-12.01,-12.0908,-12.16,-12.16,-12.16,-12.16,-12.16,-12.16,-12.16,-13.3789,-13.3789,-13.3789,-13.3789,-13.3789,-13.3789,-13.3789,-13.3789,-13.3789,-13.3789,-13.3789,-13.3789,-13.3789,-13.3789,-13.3789,-13.3789,-13.3789,-13.3789,-13.3789,-13.3789,-13.3984,-13.4492,-13.3984,-13.4218,-13.5195,-13.4297,-13.3984,-13.4492,-13.3984,-13.3593,-13.3203,-13.3203,-13.2812,-13.1914,-13.1015,-13.039,-12.9804,-12.8984,-12.8593,-12.8593,-12.9101,-12.9609,-12.9883,-12.9492,-12.9297,-12.9101,-12.7383,-12.5898,-12.4804,-12.4414,-12.3906,-12.3593,-12.4101,-12.4218,-12.4101,-12.3999,-12.3406,-12.2812,-12.25,-12.2383,-12.2283,-12.2582,-12.3119,-12.3515,-12.3515,-12.289,-12.2187,-12.1914,-12.1283,-12.0799,-12.0409,-12.0104,-11.9912,-11.9912,-12.0303,-12.0521,-12.0716,-11.9994,-11.92,-11.8476,-11.8213,-11.7791,-11.7289,-11.8294,-11.91,-11.96,-12.0408,-12.0908,-12.0985,-12.06,-11.9985,-11.9215,-11.8292,-11.76,-11.7215,-11.6715,-11.6715,-11.7215,-11.7215,-11.6984,-11.6484,-11.6907,-11.6907,-11.6599,-11.7907,-11.8715,-11.9215,-12.0485,-12.1293,-12.16,-12.16,-12.16,-12.16,-12.16,-12.16,-12.16]},{"header":{"parameterUnit":"m.s-1","parameterCategory":1,"la1":30.6,"la2":28.766,"lo1":-90.7593,"lo2":-88.6598,"dy":0.0162,"dx":0.0183,"nx":116,"ny":114,"refTime":"2024-04-10T06:00:00:Z","depth":0,"parameterNumber":3,"parameterNumberName":"V-component_of_WINDS"},"data":[0.0,0.0,0.0,0.0,0.0,0.0,0.0,0.0,0.0,0.0,0.0,0.0,0.0,0.0,0.0,0.0,0.0,0.0,0.0,0.0,0.0,0.0,0.0,0.0,0.0,0.0,0.0,0.0,0.0,0.0,0.0,0.0,0.0,0.0,0.0,0.0,0.0,0.0,0.0,0.0,0.0,0.0,0.0,0.0,0.0,0.0,0.0,0.0,0.0,0.0,0.0,0.0,0.0,0.0,0.0,0.0,0.0,0.0,0.0,0.0,0.0,0.0,0.0,0.0,0.0,0.0,0.0,0.0,0.0,0.0,0.0,0.0,0.0,0.0,0.0,0.0,0.0,0.0,0.0,0.0,0.0,0.0,0.0,0.0,0.0,0.0,0.0,0.0,0.0,0.0,0.0,0.0,0.0,0.0,0.0,0.0,0.0,0.0,0.0,0.0,0.0,0.0,0.0,0.0,0.0,0.0,0.0,0.0,0.0,0.0,0.0,0.0,0.0,0.0,0.0,0.0,0.0,0.0,0.0,0.0,0.0,0.0,0.0,0.0,0.0,0.0,0.0,0.0,0.0,0.0,0.0,0.0,0.0,0.0,0.0,0.0,0.0,0.0,0.0,0.0,0.0,0.0,0.0,0.0,0.0,0.0,0.0,0.0,0.0,0.0,0.0,0.0,0.0,0.0,0.0,0.0,0.0,0.0,0.0,0.0,0.0,0.0,0.0,0.0,0.0,0.0,0.0,0.0,0.0,0.0,0.0,0.0,0.0,0.0,0.0,0.0,0.0,0.0,0.0,0.0,0.0,0.0,0.0,0.0,0.0,0.0,0.0,0.0,0.0,0.0,0.0,0.0,0.0,0.0,0.0,0.0,0.0,0.0,0.0,0.0,0.0,0.0,0.0,0.0,0.0,0.0,0.0,0.0,0.0,0.0,0.0,0.0,0.0,0.0,0.0,0.0,0.0,0.0,0.0,0.0,0.0,0.0,0.0,0.0,0.0,0.0,0.0,0.0,0.0,0.0,0.0,0.0,0.0,0.0,0.0,0.0,0.0,0.0,0.0,0.0,0.0,0.0,0.0,0.0,0.0,0.0,0.0,0.0,0.0,0.0,0.0,0.0,0.0,0.0,0.0,0.0,0.0,0.0,0.0,0.0,0.0,0.0,0.0,0.0,0.0,0.0,0.0,0.0,0.0,0.0,0.0,0.0,0.0,0.0,0.0,0.0,0.0,0.0,0.0,0.0,0.0,0.0,0.0,0.0,0.0,0.0,0.0,0.0,0.0,0.0,0.0,0.0,0.0,0.0,0.0,0.0,0.0,0.0,0.0,0.0,0.0,0.0,0.0,0.0,0.0,0.0,0.0,0.0,0.0,0.0,0.0,0.0,0.0,0.0,0.0,0.0,0.0,0.0,0.0,0.0,0.0,0.0,0.0,0.0,0.0,0.0,0.0,0.0,0.0,0.0,0.0,0.0,0.0,0.0,0.0,0.0,0.0,0.0,0.0,0.0,0.0,0.0,0.0,0.0,0.0,0.0,0.0,0.0,0.0,0.0,0.0,0.0,0.0,0.0,0.0,0.0,0.0,0.0,0.0,0.0,0.0,0.0,0.0,0.0,0.0,0.0,0.0,0.0,0.0,0.0,0.0,0.0,0.0,0.0,0.0,0.0,0.0,0.0,0.0,0.0,0.0,0.0,0.0,0.0,0.0,0.0,0.0,0.0,0.0,0.0,0.0,0.0,0.0,0.0,0.0,0.0,0.0,0.0,0.0,0.0,0.0,0.0,0.0,0.0,0.0,0.0,0.0,0.0,0.0,0.0,0.0,0.0,0.0,0.0,0.0,0.0,0.0,0.0,0.0,0.0,0.0,0.0,0.0,0.0,0.0,0.0,0.0,0.0,0.0,0.0,0.0,0.0,0.0,0.0,0.0,0.0,0.0,0.0,0.0,0.0,0.0,0.0,0.0,0.0,0.0,0.0,0.0,0.0,0.0,0.0,0.0,0.0,0.0,0.0,0.0,0.0,0.0,0.0,0.0,0.0,0.0,0.0,0.0,0.0,0.0,0.0,0.0,0.0,0.0,0.0,0.0,0.0,0.0,0.0,0.0,0.0,0.0,0.0,0.0,0.0,0.0,0.0,0.0,0.0,0.0,0.0,0.0,0.0,0.0,0.0,0.0,0.0,0.0,0.0,0.0,0.0,0.0,0.0,0.0,0.0,0.0,0.0,0.0,0.0,0.0,0.0,0.0,0.0,0.0,0.0,0.0,0.0,0.0,0.0,0.0,0.0,0.0,0.0,0.0,0.0,0.0,0.0,0.0,0.0,0.0,0.0,0.0,0.0,0.0,0.0,0.0,0.0,0.0,0.0,0.0,0.0,0.0,0.0,0.0,0.0,0.0,0.0,0.0,0.0,0.0,0.0,0.0,0.0,0.0,0.0,0.0,0.0,0.0,0.0,0.0,0.0,0.0,0.0,0.0,0.0,0.0,0.0,0.0,0.0,0.0,0.0,0.0,0.0,0.0,0.0,0.0,0.0,0.0,0.0,0.0,0.0,0.0,0.0,0.0,0.0,0.0,0.0,0.0,0.0,0.0,0.0,0.0,0.0,0.0,0.0,0.0,0.0,0.0,0.0,0.0,0.0,0.0,0.0,0.0,0.0,0.0,0.0,0.0,0.0,0.0,0.0,0.0,0.0,0.0,0.0,0.0,0.0,0.0,0.0,0.0,0.0,0.0,0.0,0.0,0.0,0.0,0.0,0.0,0.0,0.0,0.0,0.0,0.0,0.0,0.0,0.0,0.0,0.0,0.0,0.0,0.0,0.0,0.0,0.0,0.0,0.0,0.0,0.0,0.0,0.0,0.0,0.0,0.0,0.0,0.0,0.0,0.0,0.0,0.0,0.0,0.0,0.0,0.0,0.0,0.0,0.0,0.0,0.0,0.0,0.0,0.0,0.0,0.0,0.0,0.0,0.0,0.0,0.0,0.0,0.0,0.0,0.0,0.0,0.0,0.0,0.0,0.0,0.0,0.0,0.0,0.0,0.0,0.0,0.0,0.0,0.0,0.0,0.0,0.0,0.0,0.0,0.0,0.0,0.0,0.0,0.0,0.0,0.0,0.0,0.0,0.0,0.0,0.0,0.0,0.0,0.0,0.0,0.0,0.0,0.0,0.0,0.0,0.0,0.0,0.0,0.0,0.0,0.0,0.0,0.0,0.0,0.0,0.0,0.0,0.0,0.0,0.0,0.0,0.0,0.0,0.0,0.0,0.0,0.0,0.0,0.0,0.0,0.0,0.0,0.0,0.0,0.0,0.0,0.0,0.0,0.0,0.0,0.0,0.0,0.0,0.0,0.0,0.0,0.0,0.0,0.0,0.0,0.0,0.0,0.0,0.0,0.0,0.0,0.0,0.0,0.0,0.0,0.0,0.0,0.0,0.0,0.0,0.0,0.0,0.0,0.0,0.0,0.0,0.0,0.0,0.0,0.0,0.0,0.0,0.0,0.0,0.0,0.0,0.0,0.0,0.0,0.0,0.0,0.0,0.0,0.0,0.0,0.0,0.0,0.0,0.0,0.0,0.0,0.0,0.0,0.0,0.0,0.0,0.0,0.0,0.0,0.0,0.0,0.0,0.0,0.0,0.0,0.0,0.0,0.0,0.0,0.0,0.0,0.0,0.0,0.0,0.0,0.0,0.0,0.0,0.0,0.0,0.0,0.0,0.0,0.0,0.0,0.0,0.0,0.0,0.0,0.0,0.0,0.0,0.0,0.0,0.0,0.0,0.0,0.0,0.0,0.0,0.0,0.0,0.0,0.0,0.0,0.0,0.0,0.0,0.0,0.0,0.0,0.0,0.0,0.0,0.0,0.0,0.0,0.0,0.0,0.0,0.0,0.0,0.0,0.0,0.0,0.0,0.0,0.0,0.0,0.0,0.0,0.0,0.0,0.0,0.0,0.0,0.0,0.0,0.0,0.0,0.0,0.0,0.0,0.0,0.0,0.0,0.0,0.0,0.0,0.0,0.0,0.0,0.0,0.0,0.0,0.0,0.0,0.0,0.0,0.0,0.0,0.0,0.0,0.0,0.0,0.0,0.0,0.0,0.0,0.0,0.0,0.0,0.0,0.0,0.0,0.0,0.0,0.0,0.0,0.0,0.0,0.0,0.0,0.0,0.0,0.0,0.0,0.0,0.0,0.0,0.0,0.0,0.0,0.0,0.0,0.0,0.0,0.0,0.0,0.0,0.0,0.0,0.0,0.0,0.0,0.0,0.0,0.0,0.0,0.0,0.0,0.0,0.0,0.0,0.0,0.0,0.0,0.0,0.0,0.0,0.0,0.0,0.0,0.0,0.0,0.0,0.0,0.0,0.0,0.0,0.0,0.0,0.0,0.0,0.0,0.0,0.0,0.0,0.0,0.0,0.0,0.0,0.0,0.0,0.0,0.0,0.0,0.0,0.0,0.0,0.0,0.0,0.0,0.0,0.0,0.0,0.0,0.0,0.0,0.0,0.0,0.0,0.0,0.0,0.0,0.0,0.0,0.0,0.0,0.0,0.0,0.0,0.0,0.0,0.0,0.0,0.0,0.0,0.0,0.0,0.0,0.0,0.0,0.0,0.0,0.0,0.0,0.0,0.0,0.0,0.0,0.0,0.0,0.0,0.0,0.0,0.0,0.0,0.0,0.0,0.0,0.0,0.0,0.0,0.0,0.0,0.0,0.0,0.0,0.0,0.0,0.0,0.0,0.0,0.0,0.0,0.0,0.0,0.0,0.0,0.0,0.0,0.0,0.0,0.0,0.0,0.0,0.0,0.0,0.0,0.0,0.0,0.0,0.0,0.0,0.0,0.0,0.0,0.0,0.0,0.0,0.0,0.0,0.0,0.0,0.0,0.0,0.0,0.0,0.0,0.0,0.0,0.0,0.0,0.0,0.0,0.0,0.0,0.0,0.0,0.0,0.0,0.0,0.0,0.0,0.0,0.0,0.0,0.0,0.0,0.0,0.0,0.0,0.0,0.0,0.0,0.0,0.0,0.0,0.0,0.0,0.0,0.0,0.0,0.0,0.0,0.0,0.0,0.0,0.0,0.0,0.0,0.0,0.0,0.0,0.0,0.0,0.0,0.0,0.0,0.0,0.0,0.0,0.0,0.0,0.0,0.0,0.0,0.0,0.0,0.0,0.0,0.0,0.0,0.0,0.0,0.0,0.0,0.0,0.0,0.0,0.0,0.0,0.0,0.0,0.0,0.0,0.0,0.0,0.0,0.0,0.0,0.0,0.0,0.0,0.0,0.0,0.0,0.0,0.0,0.0,0.0,0.0,0.0,0.0,0.0,0.0,0.0,0.0,0.0,0.0,0.0,0.0,0.0,0.0,0.0,0.0,0.0,0.0,0.0,0.0,0.0,0.0,0.0,0.0,0.0,0.0,0.0,0.0,0.0,0.0,0.0,0.0,0.0,0.0,0.0,0.0,0.0,0.0,0.0,0.0,0.0,0.0,0.0,0.0,0.0,0.0,0.0,0.0,0.0,0.0,0.0,0.0,0.0,0.0,0.0,0.0,0.0,0.0,0.0,0.0,0.0,0.0,0.0,0.0,0.0,0.0,0.0,0.0,0.0,0.0,0.0,0.0,0.0,0.0,0.0,0.0,0.0,0.0,0.0,0.0,0.0,0.0,0.0,0.0,0.0,0.0,0.0,0.0,0.0,0.0,0.0,0.0,0.0,0.0,0.0,0.0,0.0,0.0,0.0,0.0,0.0,0.0,0.0,0.0,0.0,0.0,0.0,0.0,0.0,0.0,0.0,0.0,0.0,0.0,0.0,0.0,0.0,0.0,0.0,0.0,0.0,0.0,0.0,0.0,0.0,0.0,0.0,0.0,0.0,0.0,0.0,0.0,0.0,0.0,0.0,0.0,0.0,0.0,0.0,0.0,0.0,0.0,0.0,0.0,0.0,0.0,0.0,0.0,0.0,0.0,0.0,0.0,0.0,0.0,0.0,0.0,0.0,0.0,0.0,0.0,0.0,0.0,0.0,0.0,0.0,0.0,0.0,0.0,0.0,0.0,0.0,0.0,0.0,0.0,0.0,0.0,0.0,0.0,0.0,0.0,0.0,0.0,9.1297,9.2231,0.0,0.0,0.0,0.0,0.0,0.0,0.0,0.0,0.0,0.0,0.0,0.0,0.0,0.0,0.0,0.0,0.0,0.0,0.0,0.0,0.0,0.0,0.0,4.1375,3.9313,3.9692,3.8821,3.9297,4.1825,4.2655,4.4019,4.6221,4.6308,4.6308,4.6308,4.6289,4.7668,5.0395,5.3565,5.8031,6.3686,6.4581,6.5861,6.7395,0.0,0.0,0.0,0.0,0.0,0.0,0.0,0.0,0.0,0.0,0.0,0.0,0.0,0.0,0.0,0.0,0.0,0.0,0.0,0.0,0.0,0.0,0.0,0.0,0.0,0.0,0.0,0.0,0.0,0.0,0.0,0.0,0.0,0.0,0.0,0.0,0.0,0.0,0.0,0.0,0.0,0.0,0.0,0.0,0.0,0.0,0.0,0.0,0.0,0.0,0.0,0.0,0.0,0.0,0.0,0.0,0.0,0.0,0.0,0.0,0.0,0.0,0.0,0.0,0.0,0.0,0.0,0.0,0.0,0.0,8.9866,8.9155,0.0,0.0,0.0,0.0,0.0,0.0,0.0,0.0,0.0,0.0,0.0,0.0,0.0,0.0,0.0,0.0,0.0,0.0,0.0,0.0,0.0,4.672,4.5626,4.2225,4.0547,4.1742,4.0825,4.1247,4.357,4.4025,4.4823,4.6455,4.6523,4.6523,4.6523,4.7297,4.885,5.1423,5.6581,6.2251,6.8326,7.1008,7.1381,6.9988,7.1044,0.0,0.0,0.0,0.0,0.0,0.0,0.0,0.0,0.0,0.0,0.0,0.0,0.0,0.0,0.0,0.0,0.0,0.0,0.0,0.0,0.0,0.0,0.0,0.0,0.0,0.0,0.0,0.0,0.0,0.0,0.0,0.0,0.0,0.0,0.0,0.0,0.0,0.0,0.0,0.0,0.0,0.0,0.0,0.0,0.0,0.0,0.0,0.0,0.0,0.0,0.0,0.0,0.0,0.0,0.0,0.0,0.0,0.0,0.0,0.0,0.0,0.0,0.0,9.8885,9.78,9.6786,9.3591,9.3024,9.4354,8.9819,8.7624,8.7123,8.7881,0.0,0.0,0.0,0.0,0.0,0.0,0.0,0.0,0.0,0.0,0.0,0.0,0.0,0.0,0.0,0.0,0.0,0.0,0.0,4.7887,4.8475,4.5656,4.4833,4.7691,4.699,4.7424,4.9749,4.8414,4.747,4.7422,4.7422,4.7422,4.7422,4.9515,5.2131,5.5463,6.2878,6.7594,6.9677,7.2385,7.3822,7.412,7.4298,7.3093,7.1051,0.0,0.0,0.0,0.0,0.0,0.0,0.0,0.0,0.0,0.0,0.0,0.0,0.0,0.0,0.0,0.0,0.0,0.0,0.0,0.0,0.0,0.0,0.0,0.0,0.0,0.0,0.0,0.0,0.0,0.0,0.0,0.0,0.0,0.0,0.0,0.0,0.0,0.0,0.0,0.0,0.0,7.9772,8.5424,0.0,0.0,0.0,0.0,0.0,0.0,0.0,0.0,0.0,0.0,0.0,0.0,0.0,10.4765,10.7204,10.6026,10.4613,10.3021,10.1869,10.0182,9.8194,9.549,9.4386,9.4498,9.3267,0.0,9.2357,9.0838,0.0,0.0,0.0,0.0,0.0,0.0,0.0,0.0,0.0,0.0,0.0,0.0,0.0,0.0,0.0,0.0,0.0,0.0,0.0,0.0,0.0,4.6839,4.6537,4.8735,4.8987,4.9955,5.2015,4.9981,4.9047,4.9528,4.8276,4.8186,4.9549,4.9891,5.3152,5.9412,6.6269,7.0471,7.2218,7.4099,7.5168,7.5467,7.5467,7.5021,7.4251,7.5002,0.0,0.0,0.0,0.0,0.0,0.0,0.0,0.0,0.0,0.0,0.0,0.0,0.0,0.0,0.0,0.0,0.0,0.0,0.0,0.0,0.0,0.0,0.0,0.0,0.0,0.0,0.0,0.0,0.0,0.0,0.0,0.0,0.0,0.0,0.0,0.0,0.0,0.0,0.0,7.6031,8.1403,8.4994,8.8756,9.1559,0.0,0.0,0.0,0.0,0.0,0.0,0.0,0.0,0.0,10.3901,10.5431,10.6586,10.7403,10.8605,10.8388,10.6831,10.5898,10.4431,10.2457,9.9877,9.904,9.9609,9.8146,9.7728,9.772,9.4658,9.3089,9.2204,0.0,0.0,0.0,0.0,7.8058,7.7293,0.0,0.0,0.0,0.0,0.0,0.0,0.0,0.0,0.0,0.0,0.0,0.0,4.8808,4.8337,4.8601,5.0548,5.091,5.1944,5.422,5.1925,5.0781,5.1404,5.0319,5.023,5.1446,5.2184,5.6105,6.3226,6.8585,7.2071,7.3911,7.5288,7.5916,7.5916,7.5916,7.6066,7.6275,7.5888,7.5609,7.5386,0.0,0.0,0.0,0.0,0.0,0.0,0.0,0.0,0.0,0.0,0.0,0.0,0.0,0.0,0.0,0.0,0.0,0.0,0.0,0.0,0.0,0.0,0.0,0.0,0.0,0.0,0.0,0.0,0.0,0.0,0.0,0.0,0.0,0.0,0.0,0.0,0.0,7.9244,8.2185,8.4964,8.7705,9.0183,0.0,0.0,0.0,0.0,0.0,0.0,9.8966,10.1754,10.3593,10.3924,10.7098,10.8583,10.8204,11.0884,11.1285,10.9518,10.8998,10.7811,10.5987,10.3591,10.2925,10.3485,10.1787,10.132,10.143,9.7782,9.5697,9.4478,9.1266,8.9338,8.8036,8.4696,8.3642,8.3649,0.0,0.0,0.0,0.0,0.0,0.0,0.0,0.0,0.0,0.0,0.0,4.9596,5.153,5.1286,5.2342,5.5569,5.4248,5.4683,5.7999,5.5488,5.3472,5.235,5.4302,5.439,5.2392,5.8475,6.3372,6.6753,7.0176,7.2558,7.3911,7.5288,7.5916,7.5916,7.5916,7.5557,7.5125,7.7269,7.6543,7.4226,7.6962,0.0,0.0,0.0,0.0,0.0,0.0,0.0,0.0,0.0,0.0,0.0,0.0,0.0,0.0,0.0,0.0,0.0,0.0,0.0,0.0,0.0,0.0,0.0,0.0,0.0,0.0,0.0,0.0,0.0,0.0,0.0,0.0,0.0,0.0,0.0,0.0,0.0,0.0,8.6942,8.8224,0.0,0.0,0.0,0.0,9.2568,9.409,9.652,10.0309,10.1974,10.4403,10.7588,10.9421,11.0636,11.1184,11.2912,11.2468,11.019,11.0218,10.9019,10.6798,10.5311,10.4195,10.3585,10.2809,10.2437,10.2204,9.9449,9.8305,9.7932,9.5998,9.5094,9.4861,9.4046,9.2161,8.9729,0.0,0.0,0.0,0.0,0.0,5.4535,5.0996,4.8785,4.7564,4.7709,4.8145,4.9154,5.1038,5.2187,5.3732,5.5913,5.556,5.6212,5.8458,5.661,5.5468,5.5784,5.5757,5.5423,5.4751,6.1377,6.5282,6.6064,7.0819,7.3642,7.454,7.5886,7.6485,7.6514,7.6933,7.7322,7.7692,7.7246,7.7301,7.7621,7.7173,7.7705,0.0,0.0,0.0,0.0,0.0,0.0,0.0,0.0,0.0,0.0,0.0,0.0,0.0,0.0,0.0,0.0,0.0,0.0,0.0,0.0,0.0,0.0,0.0,0.0,0.0,0.0,0.0,0.0,0.0,0.0,0.0,0.0,0.0,0.0,0.0,0.0,0.0,8.8204,8.9531,0.0,9.1117,9.2671,9.413,9.5299,9.8718,10.1589,10.3525,10.6188,10.8214,10.9435,11.1476,11.2585,11.287,11.4889,11.4788,11.2505,11.2505,11.1013,10.8287,10.7306,10.5885,10.4295,10.399,10.3382,10.2404,10.1481,10.0782,10.0082,9.8201,9.7111,9.6516,9.5057,9.4224,9.35,0.0,0.0,0.0,0.0,0.0,5.2902,4.8852,4.7157,4.6282,4.5915,4.7815,4.9668,5.0931,5.3623,5.5767,5.6855,5.7168,5.8027,5.9709,5.83,5.7766,5.8498,5.7399,5.7181,5.8167,6.2971,6.5946,6.7059,7.0981,7.3566,7.4899,7.6006,7.6514,7.6544,7.6963,7.8255,8.0096,7.85,7.8783,8.0091,7.9344,7.9945,8.0929,0.0,0.0,0.0,0.0,0.0,0.0,0.0,0.0,0.0,0.0,0.0,0.0,0.0,0.0,0.0,0.0,0.0,0.0,0.0,0.0,0.0,0.0,0.0,0.0,0.0,0.0,0.0,0.0,0.0,0.0,0.0,0.0,0.0,0.0,8.0384,8.3706,8.9924,9.1027,9.1805,9.3152,9.5239,9.7049,9.8455,10.2711,10.5801,10.7213,10.9723,11.1196,11.1399,11.3911,11.4885,11.4068,11.6194,11.5983,11.3687,11.2717,11.1068,10.9166,10.7881,10.6494,10.5073,10.4769,10.399,10.2908,10.2908,10.2401,10.1596,10.0385,9.9017,9.7614,9.6338,9.5187,9.391,0.0,0.0,0.0,0.0,0.0,5.0451,4.7183,4.6152,4.5547,4.5098,4.8685,5.1349,5.1407,5.577,5.8704,5.8755,5.9207,6.0186,6.1843,6.0939,6.0305,6.0252,5.9189,5.9823,6.2418,6.3548,6.6107,7.0152,7.0717,7.2368,7.4899,7.5587,7.5916,7.5916,7.5946,7.8175,8.1756,8.1273,8.1079,8.1327,8.3546,8.3569,8.2072,0.0,0.0,0.0,0.0,0.0,0.0,0.0,0.0,0.0,0.0,0.0,0.0,0.0,0.0,0.0,0.0,0.0,0.0,0.0,0.0,0.0,0.0,0.0,0.0,0.0,0.0,0.0,0.0,0.0,0.0,0.0,0.0,0.0,7.8984,8.3193,8.7636,9.212,9.2673,9.3242,9.4588,9.6823,9.9271,10.1868,10.5483,10.8738,11.1396,11.2177,11.3026,11.3703,11.672,11.7221,11.4903,11.6413,11.5965,11.3592,11.0765,10.9303,10.9099,10.7001,10.5918,10.5783,10.5005,10.4295,10.3618,10.3585,10.3179,10.2536,10.2404,10.0785,9.8439,9.8371,9.546,9.1161,0.0,0.0,0.0,6.0737,5.5166,5.049,4.7606,4.6595,4.5976,4.5547,4.9447,5.2414,5.2577,5.6227,5.9031,5.9809,5.9633,5.9859,6.0713,6.0889,6.1151,6.1474,6.1312,6.1991,6.3627,6.5423,6.7769,7.0717,7.2776,7.4179,7.4899,7.5587,7.5916,7.5946,7.6874,7.8316,8.0188,8.227,8.4176,8.5711,8.534,8.6321,8.7544,0.0,0.0,0.0,0.0,0.0,0.0,0.0,0.0,0.0,0.0,0.0,0.0,0.0,0.0,0.0,0.0,0.0,0.0,0.0,0.0,0.0,0.0,0.0,0.0,0.0,0.0,0.0,0.0,0.0,0.0,0.0,7.9016,8.1112,8.148,8.3983,8.7686,9.2687,9.4558,9.5965,9.7311,10.1313,10.4407,10.5642,10.9977,11.3195,11.4473,11.4816,11.5529,11.7027,11.6168,11.603,11.6492,11.5823,11.4487,11.281,11.3698,11.24,10.9201,10.9725,10.8395,10.5817,10.558,10.5073,10.4363,10.3787,10.3483,10.3082,10.112,9.984,9.9059,9.7587,9.5022,9.2119,0.0,0.0,0.0,5.7517,5.3254,4.9717,4.6804,4.6478,4.6481,4.6145,5.0201,5.3078,5.3164,5.6926,5.9558,5.9935,6.0337,6.0788,6.1341,6.2643,6.3412,6.3332,6.3862,6.476,6.5828,6.6964,6.9076,7.2186,7.3179,7.405,7.4899,7.5288,7.5617,7.5946,7.6664,7.804,7.9929,8.2053,8.4957,8.8123,8.7859,8.932,9.1276,8.782,8.6072,8.5013,8.1513,7.8764,7.6892,7.7521,0.0,0.0,0.0,0.0,0.0,0.0,0.0,0.0,0.0,0.0,0.0,0.0,0.0,0.0,0.0,0.0,0.0,0.0,0.0,0.0,0.0,0.0,0.0,0.0,8.3786,8.7031,8.746,8.837,9.0559,9.4771,9.6713,9.8389,10.0034,10.4563,10.7788,10.8812,11.3381,11.6304,11.671,11.6812,11.7378,11.8709,11.7405,11.6992,11.7702,11.61,11.4479,11.2955,11.3427,11.2095,10.9201,10.9838,10.8681,10.6291,10.6291,10.5817,10.5107,10.4701,10.4193,10.3287,0.0,0.0,0.0,0.0,9.0893,8.8908,0.0,0.0,0.0,5.2962,5.0544,4.8583,4.5455,4.6152,4.6801,4.6391,5.0583,5.3397,5.3005,5.7204,5.9859,5.9433,6.0889,6.2069,6.2697,6.481,6.5775,6.5088,6.6284,6.7477,6.8468,6.8509,7.0278,7.4001,7.2859,7.3123,7.4869,7.4869,7.5258,7.5916,7.5976,7.7577,8.015,8.1065,8.4206,8.8765,9.0173,9.1958,9.3487,9.1198,8.966,8.8181,8.3401,8.0657,7.9118,7.8204,0.0,0.0,0.0,0.0,0.0,0.0,0.0,0.0,0.0,0.0,0.0,0.0,0.0,0.0,0.0,0.0,0.0,0.0,0.0,0.0,0.0,0.0,0.0,0.0,8.8767,9.2802,9.4728,9.4878,9.5534,9.7551,9.9017,10.0665,10.2742,10.6986,11.0177,11.1564,11.5782,11.83,11.8199,11.8199,0.0,0.0,0.0,11.8919,11.8326,11.6671,11.5104,11.3496,11.1609,11.0118,10.8997,10.8491,10.7813,10.69,10.69,10.6494,10.5817,10.5716,10.447,10.2591,10.0102,9.7671,9.4713,8.8422,8.5105,8.3477,0.0,0.0,5.8235,5.2768,5.0544,4.8583,4.5455,4.6406,4.6719,4.4604,4.959,5.2802,5.109,5.5335,5.8504,5.8855,5.996,6.1065,6.2094,6.3104,6.3864,6.4363,6.6045,6.8049,7.0428,7.0937,7.2353,7.4689,7.4436,7.4495,7.4869,7.4869,7.5258,7.5916,7.6425,7.7264,7.8438,8.0548,8.3826,8.7728,8.9401,9.1853,9.4357,9.3309,9.1228,8.8363,8.4281,8.0959,7.8305,7.622,7.6324,7.7188,7.6684,7.7529,0.0,0.0,0.0,0.0,0.0,0.0,0.0,0.0,0.0,0.0,0.0,0.0,0.0,0.0,0.0,0.0,0.0,0.0,0.0,8.9525,9.2213,9.4293,9.737,10.0078,10.1368,10.0099,10.1082,10.3026,10.5768,10.9454,11.2681,11.4826,11.7973,11.9619,11.9011,11.8977,11.9082,11.9401,11.8116,11.7703,11.8326,11.6131,11.4191,11.2685,11.291,0.0,10.8321,10.9409,10.8799,10.69,10.69,10.6494,10.5783,10.5174,10.2182,9.789,9.7366,9.3498,8.8005,8.6073,8.3676,8.1268,0.0,5.7872,5.4817,4.9531,4.832,4.7487,4.5667,4.6621,4.7288,4.6514,4.9911,5.2187,5.1483,5.4197,5.6269,5.6709,5.8554,6.0887,6.3635,6.3934,6.4776,6.655,6.8121,7.0021,7.2394,7.311,7.3882,7.4869,7.4869,7.5048,7.5377,7.5048,7.5587,7.6844,7.6844,7.7382,7.8411,7.9941,8.2958,8.6883,8.802,9.078,9.4112,9.374,9.1871,8.8824,8.4627,8.1282,7.8486,7.5821,7.5663,7.6416,7.5623,7.6387,7.8003,0.0,0.0,0.0,0.0,0.0,0.0,0.0,0.0,0.0,0.0,0.0,0.0,0.0,0.0,7.2822,7.7744,0.0,8.5508,9.246,9.5649,9.8023,10.0217,10.2994,10.44,10.3271,10.5394,10.782,10.9972,11.3275,11.5821,11.7317,11.9881,12.1108,12.0296,12.0296,12.0411,12.0475,11.8545,11.7927,11.8778,11.5676,11.3801,11.2989,11.2744,11.1379,10.9166,10.9604,10.8924,10.7373,10.5576,10.5478,10.619,10.4101,10.0197,9.5468,9.3934,9.0183,8.5535,8.3959,8.1416,7.8749,0.0,0.0,4.9977,4.618,4.6246,4.6578,4.5812,4.6758,4.783,4.8442,5.0165,5.1416,5.1761,5.3047,5.4145,5.4926,5.7059,6.0194,6.4338,6.4221,6.5275,6.8216,6.9693,7.1461,7.3486,7.4463,7.4929,7.5078,7.5078,7.5437,7.6066,7.5527,7.6155,7.7801,7.7263,7.7682,7.8819,7.9387,8.1976,8.571,8.6489,8.9211,9.2853,9.255,9.1202,8.8955,8.4659,8.144,7.8765,7.5882,7.5258,7.5617,7.5198,7.5796,7.7184,8.0119,8.0162,0.0,0.0,0.0,0.0,0.0,0.0,0.0,0.0,7.2632,7.1277,7.2111,7.3714,7.6114,7.9512,8.4134,8.906,9.4301,9.8257,10.1158,10.2499,10.4675,10.6177,10.6479,10.9153,11.2014,11.4154,11.6902,11.893,11.982,12.1592,12.2393,12.1683,12.148,12.1278,12.1057,11.9213,11.8391,11.8922,11.5399,11.3281,11.2824,11.1458,11.0378,10.9386,10.8995,10.849,10.7778,10.4404,10.3795,10.5068,10.2139,9.8053,9.3527,9.0868,8.7498,8.3839,8.1731,7.9096,7.6409,0.0,0.0,0.0,4.5607,4.6626,4.6928,4.5871,4.6758,4.7218,4.6245,4.8862,5.0366,4.9323,5.1253,5.3459,5.5459,5.5669,5.7024,6.0399,6.0738,6.2225,6.5349,6.7818,7.0069,7.2055,7.3922,7.5168,7.5796,7.5796,7.6125,7.6724,7.6634,7.7023,7.7801,7.7741,7.81,7.8789,7.8878,8.0801,8.3919,8.4941,8.7273,8.9991,8.8763,8.8174,8.7605,8.4303,8.1124,7.8146,7.5731,7.4929,7.5078,7.5617,7.5886,7.6435,7.8506,7.9028,7.9238,8.102,8.0852,7.9532,7.6791,7.6214,7.5568,0.0,7.3014,7.4033,7.4331,7.5488,7.7983,8.3154,8.5992,8.9585,9.6148,9.9108,10.1241,10.2997,10.5835,10.7787,10.8466,10.9512,11.2118,11.7103,11.8997,12.0794,12.2939,12.3286,12.3205,12.2393,12.1785,12.0778,11.9479,11.8618,11.7765,11.7173,11.4753,11.2293,10.9831,10.9612,10.8433,10.6417,10.6924,10.7509,10.7778,10.4301,10.1497,9.9549,9.8415,9.5038,9.0399,8.9515,8.5479,8.0188,7.9495,7.7305,7.4758,0.0,0.0,0.0,4.248,4.4458,4.5817,4.6279,4.827,4.9106,4.7699,4.9977,5.0969,4.9037,4.9964,5.2386,5.6442,5.5666,5.7028,6.1845,6.1278,6.2063,6.4869,6.7827,7.0194,7.1856,7.4621,7.5976,7.5916,7.6275,7.6784,7.7412,7.7412,7.7741,7.837,7.837,7.8519,7.8819,7.9208,8.0963,8.3503,8.3542,8.4912,8.6885,8.549,8.3602,8.1792,8.2004,8.0358,0.0,7.6494,7.6275,7.6514,7.6066,7.6425,7.7322,7.8908,7.9118,7.8759,7.8549,7.9148,7.9203,7.6747,7.6847,7.7382,7.6429,7.6692,7.7371,7.7925,7.9751,8.222,8.5618,8.9522,9.3481,9.7402,10.0094,10.2189,10.3805,10.4987,10.6567,10.8685,10.9177,11.1814,11.8008,12.1187,12.2969,12.3601,12.3611,12.3104,12.192,12.1582,12.0702,11.9214,11.8503,11.7691,11.6913,11.512,11.3441,11.18,11.1316,11.0369,10.9121,10.8922,10.6975,10.3841,10.3112,9.883,9.2534,9.344,9.0924,8.6417,8.4686,8.271,8.0526,7.9603,7.7769,7.5929,0.0,0.0,0.0,3.9931,4.2346,4.4559,4.663,4.8856,5.0135,4.9742,5.1244,5.2027,5.0873,5.1087,5.2939,5.7067,5.6603,5.7933,6.2362,6.2045,6.2649,6.4895,6.8045,7.053,7.2115,7.5171,7.6784,7.6694,7.6963,7.7622,7.8639,7.846,7.8729,7.9327,7.9148,7.9088,7.9088,7.9417,8.0706,8.2446,8.2227,8.2942,8.392,8.2555,8.0295,7.8192,8.0141,7.9201,7.7023,7.7083,7.7293,7.7442,7.6874,7.7322,7.834,7.9686,8.0105,7.9956,7.8998,7.9806,8.0452,7.8652,7.9075,8.0036,8.0705,8.1082,8.1565,8.2471,8.4392,8.6489,8.8416,9.2328,9.6025,9.8179,10.0603,10.2668,10.3924,10.35,10.3853,10.574,10.657,10.8974,11.3908,11.9605,12.3029,12.3263,12.3104,12.2529,12.148,12.1006,12.0398,11.9484,11.8605,11.7827,11.7218,11.5729,11.4289,11.2971,11.2707,11.1961,11.109,11.0817,10.7191,10.1172,10.2003,9.6965,8.8361,8.9863,8.7606,8.2976,8.1398,8.0718,8.0478,7.9548,7.8368,7.7159,0.0,0.0,0.0,0.0,4.1116,4.3641,4.6481,4.7727,4.9071,5.1339,5.2093,5.3238,5.5333,5.5617,5.6107,5.7245,5.842,5.9436,6.0067,6.1786,6.344,6.4922,6.8045,7.0726,7.2704,7.5407,7.7442,7.8699,7.8071,7.8789,8.0704,8.0045,8.0105,8.0704,8.0075,7.9776,7.9746,7.9088,7.9208,7.9995,8.1025,8.1442,8.1356,8.0027,7.9468,7.9339,7.9433,7.7558,7.5258,7.7143,7.7382,7.7083,7.831,7.8729,7.9028,8.0375,8.211,8.3576,8.3547,8.3576,8.3457,8.2753,8.3081,8.3692,8.4427,8.5514,8.6828,8.8194,8.9001,9.0107,9.208,9.3605,9.5486,9.8089,10.0184,10.1979,10.3296,10.1157,9.9293,9.8215,10.0625,10.2479,10.2908,11.2185,11.9542,12.2273,12.1886,12.1412,12.1412,11.9992,11.9586,12.0195,11.8875,11.8097,11.8097,11.6507,11.4367,11.1618,11.2193,11.1818,11.0496,11.1085,10.7921,10.1799,10.1204,9.6415,8.8965,8.8936,8.5598,8.0622,8.1132,8.0192,7.8592,7.8542,7.8215,7.7687,0.0,0.0,0.0,0.0,0.0,4.447,4.7334,4.9322,5.093,5.2024,5.3684,0.0,0.0,0.0,0.0,0.0,5.9474,6.0388,6.2795,6.2213,6.2114,6.2959,6.5712,6.7372,6.7604,7.2792,7.5451,7.5451,7.7496,7.8819,7.9477,8.0165,8.0105,7.9507,8.0165,7.9986,7.9148,7.9387,8.0105,8.1017,7.9596,7.8536,7.7575,7.5656,7.3608,7.1956,0.0,7.4645,7.5216,7.4554,7.5017,7.5933,7.5524,7.7002,7.9238,8.1452,8.3473,8.5023,8.5526,8.6535,8.7338,8.6847,8.752,8.8073,8.7486,8.8364,8.9322,8.9322,8.9501,8.9537,8.908,9.1704,9.4184,9.4829,9.8609,10.1298,10.0758,9.9895,9.7973,9.4161,9.4922,9.5999,9.6564,10.84,11.6778,11.8611,12.0012,12.0668,12.0668,12.0195,11.9789,11.9586,11.9078,11.8605,11.8097,11.7082,11.5841,11.43,11.3108,11.2332,11.1717,10.9057,10.5975,10.2536,9.9389,9.3915,8.7036,8.6552,8.3509,7.9196,7.94,7.9354,7.9093,7.9093,7.8967,7.9098,0.0,0.0,0.0,0.0,0.0,0.0,0.0,0.0,0.0,0.0,0.0,0.0,0.0,0.0,0.0,0.0,0.0,6.1757,6.3769,6.2134,6.1325,6.2038,6.3443,6.4401,6.4631,6.9935,7.2637,7.2616,7.5563,7.7475,7.839,7.9023,7.9178,7.8819,7.9447,7.9238,7.846,7.8669,7.9307,7.9893,7.7608,7.6147,7.5036,7.2556,7.0464,0.0,6.9288,7.0951,7.3013,7.2909,7.3617,7.4496,7.4637,7.6916,8.0072,8.2871,8.5115,8.6835,8.7748,8.9755,9.1534,9.1239,9.2161,9.3007,9.244,9.2193,9.1931,9.1234,8.9501,8.7804,8.6685,8.8587,9.0628,9.1613,9.5057,9.768,9.7826,9.6183,9.3541,9.0069,8.9712,9.0047,9.0468,10.0781,10.9002,11.2596,11.5673,11.7771,11.8618,11.8383,11.8657,11.9586,11.9078,11.8706,11.8503,11.7691,11.6812,11.5831,11.3083,11.1818,11.1571,10.7589,10.4454,10.2015,9.9049,9.3469,8.6438,8.5985,8.2932,7.854,7.8741,7.9068,7.9394,7.9394,7.9394,7.9781,0.0,0.0,0.0,0.0,0.0,0.0,0.0,0.0,0.0,0.0,0.0,0.0,0.0,0.0,0.0,0.0,0.0,0.0,6.2784,6.1414,6.1002,6.1826,6.1159,6.1662,6.3667,6.677,6.8974,7.0325,7.2405,7.478,7.723,7.6813,7.7307,7.844,7.7844,7.7575,7.7516,7.689,7.6755,7.6833,7.5124,7.4183,7.3428,7.0644,6.9873,6.9922,6.6791,6.6818,6.8804,7.204,7.2761,7.2928,7.5746,7.8502,8.1282,8.4393,8.6907,8.9025,9.0271,9.3237,9.591,9.5974,9.6961,9.7999,9.849,9.6553,9.4365,9.3434,8.8949,8.5129,8.4846,8.4612,8.5503,8.8651,8.9999,9.1803,9.484,9.0524,8.6689,8.5953,8.5195,8.4827,8.4924,9.0202,9.6803,10.4395,10.9335,11.3087,11.5362,11.4883,11.6168,12.0009,11.8725,11.8354,11.9214,11.8428,11.7103,11.5476,11.1974,11.0332,11.0113,10.6617,10.3484,10.0873,9.9984,9.4958,8.7185,8.7062,8.3651,7.8666,7.9193,7.9394,7.9394,7.9394,7.9394,7.9781,0.0,0.0,0.0,0.0,0.0,0.0,0.0,0.0,0.0,0.0,0.0,0.0,0.0,0.0,0.0,0.0,0.0,0.0,6.1547,6.0002,5.855,5.7405,5.689,5.7101,5.8223,6.1168,6.3796,6.6288,6.8808,7.1353,7.3739,7.4119,7.4289,7.407,7.4458,7.4345,7.3816,7.3675,7.4154,7.4856,7.2517,7.096,6.9937,6.8013,6.6318,6.4904,6.525,6.5721,6.6296,6.7113,6.9317,7.2356,7.5729,7.7908,8.0062,8.3705,8.6885,9.0128,9.4431,9.7689,9.9818,9.9446,10.0012,9.9809,9.6535,9.4775,9.2727,8.8315,8.5534,8.268,7.8819,8.1909,8.5451,8.648,9.0086,9.2953,9.3679,9.1162,8.7956,8.4532,8.4313,8.3982,8.2816,8.6953,9.1476,9.5607,10.2911,10.8734,11.2262,11.2797,11.4186,11.6865,11.7143,11.8118,11.9992,11.7093,11.4587,11.2595,10.9889,10.8393,10.7764,10.4658,10.2873,10.212,9.9287,9.4705,8.9038,8.8125,8.4602,7.9746,7.9495,7.9394,7.9394,7.9394,7.9394,8.0064,0.0,0.0,0.0,0.0,0.0,0.0,0.0,0.0,0.0,0.0,0.0,0.0,0.0,0.0,0.0,0.0,0.0,0.0,0.0,5.8874,5.6978,5.4889,5.3703,5.3394,5.3921,5.6528,5.8927,6.1239,6.4768,6.7837,7.0365,7.128,7.182,7.2013,7.2068,7.2009,7.1599,7.1599,7.2062,0.0,0.0,6.9077,6.8125,6.6331,6.4114,6.2111,6.3694,6.4379,6.4966,6.7342,6.9696,7.2272,7.5956,7.9537,8.2887,8.6166,8.9846,9.3819,9.7558,10.0474,10.2544,10.3193,10.3387,10.28,10.0206,9.7423,9.3933,8.8566,8.4058,7.98,7.5622,7.838,8.1944,8.3807,8.7112,9.0092,9.1703,8.9196,8.6344,8.4132,8.3914,8.3587,8.2633,8.5022,8.7879,9.0891,9.8321,10.4826,10.9643,10.9888,11.1331,11.4218,11.4088,11.4646,11.5918,11.4524,11.2672,11.041,10.7312,10.5941,10.5899,10.2677,10.147,10.1595,9.9709,9.6199,9.1824,8.9938,8.6385,8.1828,8.0364,7.9595,7.9394,7.9394,7.9545,8.0521,0.0,0.0,0.0,0.0,0.0,0.0,0.0,0.0,0.0,0.0,5.7038,5.9191,0.0,0.0,0.0,0.0,0.0,0.0,0.0,0.0,5.5561,5.3352,5.1569,5.0723,5.0879,5.287,5.4895,5.6867,6.1028,6.4592,6.7541,6.8594,6.9622,7.0683,7.0164,6.9891,6.9891,6.9973,7.0071,7.0049,6.8695,6.784,6.7141,0.0,6.2921,6.0739,6.2017,6.3002,6.457,6.9956,7.1861,7.2684,7.7049,8.2124,8.711,9.0001,9.4007,9.7923,9.9959,10.2231,10.4498,10.6291,10.6224,10.5415,10.491,10.0596,9.5154,8.9865,8.2947,7.6761,7.3769,7.4761,7.7364,8.1118,8.3106,8.5738,9.0026,8.6569,8.4023,8.4989,8.4308,8.3838,8.3838,8.424,8.5872,8.9144,9.4821,10.0553,10.6417,10.617,10.7833,11.1819,11.098,11.0446,11.0446,11.142,11.0657,10.8452,10.4719,10.3438,10.4281,10.1306,10.0214,10.0782,10.0663,9.8564,9.4801,9.1985,8.8306,8.4295,8.1441,8.0022,7.9595,7.9595,7.9896,8.1001,0.0,0.0,0.0,0.0,0.0,0.0,0.0,0.0,0.0,0.0,5.7934,5.8797,0.0,0.0,0.0,0.0,0.0,0.0,0.0,0.0,0.0,5.1388,5.0267,5.0254,5.1308,5.1102,5.3373,5.8415,5.9227,6.2208,6.7054,6.6771,6.7069,6.7707,6.712,6.6865,6.689,6.7375,6.7383,6.6904,6.7167,6.6354,6.5057,6.5107,6.2858,0.0,6.0411,6.2002,6.4621,7.0497,7.247,7.3654,8.0508,8.4103,8.6933,9.2248,9.5607,9.8321,10.1337,10.4193,10.6291,10.602,10.5103,10.3431,9.9946,9.483,8.8897,8.2413,7.7961,7.4183,7.0783,7.2774,7.6121,7.9734,8.1584,8.4782,9.1109,8.7851,8.5849,8.8787,8.7042,8.5571,8.5571,8.5671,8.6865,8.975,9.1057,9.4369,10.0514,10.1147,10.3937,10.932,11.0568,11.1182,11.1001,10.8878,10.7074,10.5545,10.3517,10.2389,10.2088,10.1986,10.2009,10.2099,10.1561,9.9716,9.6671,9.2518,8.9041,8.6009,8.2332,8.0825,8.075,8.075,8.08,8.1346,0.0,0.0,0.0,0.0,0.0,0.0,0.0,5.4062,5.642,6.0127,5.9632,6.045,6.4468,6.5157,6.4997,0.0,0.0,0.0,0.0,0.0,0.0,5.0877,5.041,5.1115,5.3006,5.262,5.4663,5.908,0.0,6.2454,6.5738,6.6006,6.5757,6.5086,6.5819,6.5372,6.4304,6.5869,6.6363,6.6137,6.6413,6.586,6.4931,6.5183,6.3732,0.0,6.0781,6.1874,6.4482,6.9372,7.1366,7.3586,8.2819,8.7177,8.9588,9.382,9.7037,9.9706,10.2118,10.4808,10.6731,10.6105,10.4695,10.2082,9.6751,9.1776,8.6335,7.9213,7.5639,7.2856,6.9952,7.2048,7.5242,7.8221,7.9465,8.2592,8.9998,8.7678,8.6327,8.9725,8.8962,8.7535,8.6135,8.5998,8.6505,8.7839,8.8206,9.1106,9.7195,9.9504,10.23,10.589,10.6626,10.6133,10.4491,10.2445,10.1497,10.1404,10.03,10.0637,10.2009,10.2368,10.2488,10.2488,10.2159,10.1085,9.9164,9.4189,9.0854,8.8371,8.3673,8.1704,8.1428,8.1428,8.1629,8.2355,0.0,0.0,0.0,0.0,0.0,0.0,5.366,5.6375,5.9098,6.1456,6.2384,6.3473,6.5238,6.5735,6.5161,0.0,0.0,0.0,0.0,0.0,0.0,0.0,0.0,0.0,5.5408,0.0,0.0,6.002,6.1859,0.0,0.0,0.0,0.0,0.0,6.5583,6.5025,6.3466,6.5903,6.6616,0.0,0.0,6.6288,6.5258,0.0,0.0,0.0,0.0,6.1068,6.3038,6.6733,6.9202,7.2399,8.2273,8.7828,9.1283,9.4482,9.7957,10.1145,10.2464,10.4781,10.6582,10.5993,10.3409,9.9474,9.3856,8.8627,8.3318,7.726,7.4085,7.177,6.9786,7.132,7.3704,7.6075,7.686,8.0145,8.8388,8.7177,8.6812,9.0338,9.0311,8.907,8.6307,8.5998,8.6073,8.6174,8.6676,8.938,9.4825,9.8254,10.0612,10.178,10.12,9.9824,9.7704,9.6577,9.652,9.7376,9.692,9.8378,10.155,10.155,10.1864,10.2488,10.2488,10.2189,10.1277,9.6323,9.3152,9.0879,8.5862,8.3245,8.2357,8.2357,8.2178,8.2361,0.0,0.0,0.0,0.0,0.0,0.0,5.5224,6.0058,6.3635,6.4153,6.6695,6.7924,6.6183,6.5634,6.5474,0.0,0.0,0.0,0.0,0.0,0.0,0.0,0.0,0.0,0.0,0.0,0.0,6.2184,6.2879,0.0,0.0,0.0,0.0,0.0,0.0,6.6026,6.594,6.8624,0.0,0.0,0.0,0.0,0.0,0.0,0.0,0.0,0.0,5.7734,5.8974,6.2114,6.5719,6.9875,7.5847,8.2299,8.863,9.3321,9.7925,10.1804,10.2733,10.4382,10.5768,10.5299,9.9622,9.3418,9.0406,8.3392,7.6726,7.4498,7.2152,7.0276,6.9526,6.9657,7.0569,7.279,7.4077,7.7891,8.7162,8.7393,8.8173,9.2425,9.1211,8.907,8.6307,8.5998,8.6174,8.6676,8.7203,8.8923,9.1974,9.4907,9.6562,9.6658,9.5545,9.5081,9.5534,9.4793,9.4515,9.4599,9.4543,9.5992,9.8715,9.8715,10.0094,10.2488,10.2488,10.2488,10.2121,9.8534,9.5531,9.2798,8.9219,8.6367,8.4064,8.4064,8.2229,7.9882,0.0,0.0,0.0,0.0,0.0,0.0,5.615,6.0663,6.4161,6.4856,6.6128,6.6576,6.5695,6.571,6.5234,6.3992,0.0,0.0,0.0,0.0,0.0,0.0,0.0,0.0,0.0,0.0,6.2054,6.4653,6.4874,0.0,0.0,0.0,0.0,0.0,0.0,6.5285,6.4129,6.6581,0.0,0.0,0.0,0.0,0.0,0.0,0.0,0.0,0.0,0.0,5.8232,5.9769,6.1568,6.3839,6.7718,7.2686,7.8763,8.7694,9.4683,9.9768,10.1284,10.412,10.6214,10.4302,9.8216,9.1344,8.6135,7.9987,7.4443,7.1317,6.9942,6.92,6.8999,6.8949,6.9451,7.0983,7.1334,7.397,8.1405,8.2088,8.3598,8.8276,8.8473,8.7558,8.6095,8.5998,8.6098,8.6274,8.6776,8.7617,8.8687,9.1845,9.4186,9.5459,9.345,9.2229,9.2094,9.0228,9.0096,9.1745,9.1745,9.3183,9.5846,9.5846,9.7405,9.9968,9.9968,10.092,10.227,9.9193,9.6183,9.3073,9.012,8.7279,8.4597,8.2694,8.0966,7.9208,0.0,0.0,0.0,0.0,0.0,5.5203,5.6304,6.0459,6.3985,6.4906,6.5107,6.4978,6.4518,6.4146,6.3338,6.1765,6.2184,0.0,0.0,0.0,0.0,0.0,0.0,0.0,0.0,0.0,6.4391,6.6112,6.6287,6.6363,0.0,0.0,6.5446,6.3908,0.0,0.0,0.0,0.0,0.0,0.0,0.0,0.0,0.0,0.0,0.0,0.0,0.0,0.0,0.0,0.0,0.0,5.8765,6.0616,6.4927,7.1376,8.1689,8.9887,9.631,9.8988,10.232,10.4234,10.1618,9.4964,8.755,8.1371,7.6045,7.1432,6.8353,6.816,6.8572,6.8396,6.8522,6.8823,6.9426,6.9752,7.184,7.7454,7.8671,8.0543,8.4676,8.5575,8.5654,8.5123,8.5747,8.6249,8.6249,8.66,8.6776,8.6776,8.8893,9.0983,9.2874,9.0806,8.9374,8.9113,8.7,8.6924,8.8853,8.8853,9.031,9.2975,9.3777,9.5745,9.8323,9.9163,10.0729,10.227,10.0411,9.7642,9.4596,9.1857,8.9088,8.6153,8.2143,7.9158,7.6405,0.0,0.0,0.0,0.0,0.0,5.317,5.542,6.0111,6.3615,6.4438,6.4655,6.4232,6.2728,6.0361,5.9016,5.9393,6.1294,0.0,0.0,0.0,0.0,0.0,0.0,0.0,0.0,0.0,6.6112,6.6112,6.6689,6.6965,6.6965,6.6965,6.6965,6.6965,0.0,0.0,0.0,0.0,0.0,0.0,0.0,0.0,6.6965,0.0,0.0,0.0,0.0,0.0,0.0,0.0,0.0,0.0,0.0,6.0821,6.8866,7.592,8.3932,9.1363,9.5655,9.8197,9.91,9.666,8.8849,8.0602,7.6042,7.0975,6.6868,6.5705,6.7091,6.8447,6.7919,6.8246,6.8447,6.7919,6.9652,7.2604,7.694,7.903,8.0926,8.3089,8.3406,8.3279,8.2804,8.5169,8.6776,8.6776,8.6776,8.6776,8.6776,8.6299,8.6587,8.7693,8.6663,8.6336,8.6864,8.6274,8.5998,8.6023,8.6023,8.7451,9.0177,9.2975,9.5745,9.8421,10.1206,10.2518,10.2488,10.2518,10.0824,9.7999,9.521,9.2453,8.929,8.3375,7.6984,7.0659,0.0,0.0,0.0,0.0,0.0,0.0,5.0699,5.5269,5.8872,5.9477,5.9919,6.0002,5.9473,5.927,5.9259,5.923,6.162,0.0,0.0,0.0,0.0,0.0,0.0,0.0,0.0,6.6789,6.6513,6.6112,6.6287,6.6388,6.6388,6.6388,6.6388,6.6388,6.6388,6.6614,0.0,6.7263,0.0,0.0,0.0,6.7733,6.6791,0.0,0.0,0.0,0.0,0.0,0.0,0.0,0.0,0.0,0.0,0.0,0.0,6.8105,7.8481,8.9038,9.1689,9.3522,9.4304,9.312,8.4949,7.667,7.4369,6.8949,6.4016,6.267,6.2664,6.2803,6.2267,6.4011,6.5797,6.6809,6.9616,7.2091,7.3477,7.5462,7.7609,7.9732,8.2745,8.4637,8.4928,8.3459,8.3537,8.6112,8.4205,8.3953,8.6137,8.6098,8.6174,8.65,8.6174,8.6249,8.6776,8.66,8.6701,8.7103,8.8584,8.9753,9.0758,9.3138,9.5745,9.8323,9.926,10.0964,10.3117,10.3117,10.1768,9.9519,9.8689,9.5211,9.0001,8.3733,7.6739,6.9321,0.0,0.0,0.0,0.0,0.0,0.0,4.8434,5.1552,5.4655,5.74,5.7255,5.6941,5.7312,5.7126,5.6953,5.7218,5.9722,0.0,0.0,0.0,0.0,0.0,0.0,0.0,6.7919,6.7493,6.7015,6.6438,6.6639,6.6538,6.6112,6.6338,6.6438,6.6438,6.6438,6.6764,0.0,6.689,0.0,0.0,6.7167,6.7054,6.6374,0.0,0.0,0.0,0.0,0.0,0.0,0.0,0.0,0.0,0.0,0.0,0.0,0.0,7.3176,8.3365,8.635,8.8472,8.9381,8.7754,8.1383,7.4623,7.12,6.7402,6.3725,6.0391,6.0741,6.1255,5.9784,6.1074,6.2939,6.4752,6.7387,6.9789,7.1417,7.3343,7.5578,7.8214,8.1704,8.3651,8.3018,8.161,8.1677,8.4048,8.2381,8.261,8.5861,8.5998,8.5998,8.5998,8.5998,8.6249,8.6776,8.6776,8.6952,8.7303,8.9966,9.1284,9.1392,9.4865,9.7488,9.9142,10.0183,10.2012,0.0,10.5084,10.4884,10.3768,10.2467,9.9578,9.4837,8.5939,7.8024,7.0162,0.0,0.0,0.0,0.0,0.0,0.0,0.0,4.8769,5.1121,5.7196,5.6034,5.5038,5.6009,5.4043,5.3105,5.4004,5.6333,0.0,0.0,0.0,0.0,0.0,0.0,0.0,6.9064,6.8154,6.7354,6.6754,6.7078,6.6691,6.5694,6.6217,6.6466,6.6466,6.6666,6.7142,6.7794,6.7844,6.7819,6.7617,6.4993,6.4874,0.0,0.0,0.0,0.0,0.0,0.0,0.0,0.0,0.0,0.0,0.0,0.0,0.0,0.0,0.0,0.0,0.0,8.2939,8.4169,8.1215,7.7924,7.3774,6.7383,6.632,0.0,5.9241,6.0965,6.2662,5.9758,5.9137,5.9743,6.1835,6.3623,6.6135,7.0253,7.2621,7.5151,7.8365,8.049,8.0784,7.8299,7.9744,8.0905,8.1184,8.1184,8.261,8.5861,8.5998,8.5998,8.5998,8.5998,8.6274,8.6851,8.6851,8.6877,8.6977,9.0388,9.2026,9.2436,9.786,10.0352,10.0752,10.3285,10.4978,10.6022,10.829,10.9701,11.0106,10.6675,10.4819,10.2374,8.9808,8.038,7.2588,0.0,0.0,0.0,0.0,0.0,0.0,0.0,0.0,0.0,0.0,5.2523,5.2854,5.3052,5.3191,5.3555,0.0,0.0,0.0,0.0,0.0,0.0,0.0,0.0,0.0,6.6376,6.6204,6.5626,6.4596,6.2847,6.1741,6.1511,6.1626,6.1695,6.1787,6.3734,6.5795,6.7819,6.8246,6.8196,6.7642,6.5313,6.49,0.0,0.0,0.0,0.0,5.6735,5.5657,0.0,0.0,0.0,0.0,0.0,0.0,0.0,0.0,6.8929,7.2222,7.3812,0.0,7.8201,7.7454,7.3863,6.9911,0.0,6.5714,6.3523,6.1273,5.9532,5.8166,5.7389,5.5316,5.4931,5.8653,6.134,6.4313,6.7771,7.3453,7.8264,8.075,8.0904,8.0436,7.9876,7.8095,7.8138,8.0929,8.1184,8.261,8.5861,8.5998,8.5998,8.5998,8.5998,8.6425,8.7429,8.7429,8.7856,8.871,9.1265,9.3566,9.5882,9.8878,10.1376,10.3479,10.4683,10.6872,10.983,11.0883,11.2859,11.4751,11.1098,10.7602,10.3434,9.2907,8.2673,7.3067,0.0,0.0,0.0,0.0,0.0,0.0,0.0,0.0,0.0,0.0,5.1523,5.2226,5.2637,5.3262,5.4023,0.0,0.0,0.0,0.0,0.0,0.0,0.0,6.4383,6.5856,6.656,6.6179,6.5537,6.466,6.2327,6.0864,6.044,6.1014,6.1192,6.1087,6.2513,6.3806,6.4868,6.5392,6.5606,6.5396,6.3058,0.0,0.0,0.0,0.0,0.0,5.609,5.5723,0.0,5.9347,6.0318,6.0709,0.0,0.0,0.0,0.0,6.7773,6.949,6.8732,7.1757,7.4701,7.3104,7.0779,6.79,6.4656,6.4307,6.3424,5.91,5.8277,5.7613,5.5257,5.2969,5.2613,5.6516,5.8611,6.157,6.6769,7.1563,7.6102,8.0085,7.8771,7.7863,7.8442,7.6966,7.6866,7.8904,8.0374,8.261,8.5861,8.5998,8.5998,8.5998,8.5998,8.6274,8.6851,8.7354,8.7931,8.8534,9.1628,9.3824,9.5543,9.9362,10.2124,10.387,10.5949,10.8154,11.0451,11.3368,11.4569,11.4404,11.315,11.0132,10.5084,9.5406,8.6118,7.7212,0.0,0.0,0.0,0.0,0.0,0.0,0.0,0.0,0.0,0.0,0.0,0.0,0.0,0.0,0.0,0.0,0.0,0.0,0.0,0.0,0.0,6.0591,6.2727,6.5005,6.7213,6.6844,6.6227,6.5259,6.3048,6.1291,6.0035,6.1227,6.1919,6.1918,6.1918,6.1894,6.1928,6.233,6.2709,6.2922,6.0431,0.0,0.0,0.0,0.0,0.0,0.0,0.0,0.0,6.0359,6.1748,6.2564,6.5309,0.0,0.0,0.0,0.0,0.0,6.5152,6.8391,7.1613,6.8818,6.8187,6.6848,6.1245,6.3079,6.3963,5.6737,5.7724,5.856,5.4222,5.1424,5.1095,5.4938,5.6495,5.9777,6.7313,6.9375,7.2259,7.8179,7.5999,7.431,7.5464,7.6097,7.6402,7.6402,7.9862,8.3115,8.5886,8.5998,8.5998,8.5998,8.5998,8.5998,8.5998,8.7077,8.768,8.773,9.123,9.3133,9.3776,9.8607,10.1561,10.3062,10.6278,10.8523,11.0214,11.4865,11.5067,11.2681,11.3614,11.1295,10.6417,9.7234,8.9196,8.1503,0.0,0.0,0.0,0.0,0.0,0.0,0.0,0.0,0.0,0.0,0.0,0.0,0.0,0.0,0.0,0.0,0.0,0.0,0.0,0.0,0.0,5.7795,6.2129,6.4471,6.4442,6.6661,6.6453,6.3591,6.1403,5.9076,5.6637,5.7215,5.8676,6.0712,6.0712,6.1877,6.3813,6.3902,6.3846,6.3357,6.1162,0.0,0.0,0.0,0.0,0.0,0.0,0.0,0.0,5.9919,6.3454,6.5822,6.8598,0.0,0.0,0.0,0.0,0.0,6.465,6.5649,6.6403,6.5523,6.531,6.4951,6.3446,6.3666,6.3649,6.1577,5.9268,5.7436,5.6676,5.0359,4.7175,5.3313,5.7352,6.2649,7.0817,7.129,7.2676,7.7553,7.4494,7.1986,7.1695,7.4486,7.6402,7.6402,8.1899,8.5437,8.5998,8.5998,8.5998,8.5998,8.5998,8.5998,8.5998,8.7077,8.7856,8.8358,8.9422,9.1231,9.358,9.4551,9.7569,10.2297,10.4022,10.7388,11.1777,11.315,11.4291,11.4758,11.1912,10.8505,10.4439,9.7513,8.9029,7.961,0.0,0.0,0.0,0.0,0.0,0.0,0.0,0.0,0.0,0.0,0.0,0.0,0.0,0.0,0.0,0.0,0.0,0.0,0.0,5.5801,5.6113,5.6504,6.173,6.4594,6.4248,6.5545,6.553,6.4012,6.026,5.695,5.4068,5.2762,5.3015,5.4357,5.4135,5.4641,5.5886,5.7578,5.8246,5.798,0.0,0.0,0.0,0.0,0.0,0.0,0.0,0.0,0.0,0.0,6.1824,6.4665,6.7473,0.0,0.0,0.0,0.0,0.0,5.8297,5.8017,5.8118,5.7937,6.0031,6.1538,5.9061,5.9421,5.9825,5.8478,5.7535,5.6138,5.36,5.0939,5.0575,5.501,5.9552,6.3543,6.6334,6.7914,7.0026,7.3138,7.0277,6.8884,7.1074,7.4399,7.6402,7.6402,8.2647,8.6274,8.6023,8.6274,8.6274,8.5998,8.5998,8.5998,8.5998,8.6776,8.7429,8.8032,8.8559,8.9653,9.1344,9.2935,9.6111,10.0461,10.3418,10.5731,10.7485,10.9826,10.8681,10.557,10.5466,10.3222,9.9029,9.0967,8.396,7.7201,0.0,0.0,0.0,0.0,0.0,0.0,0.0,0.0,0.0,0.0,0.0,0.0,0.0,0.0,0.0,0.0,0.0,0.0,0.0,5.543,5.5879,5.6074,6.0963,6.384,6.3849,6.5166,6.5211,6.4025,5.9588,5.5647,5.2155,4.9946,4.9146,4.9393,4.9047,4.885,4.8964,5.1374,5.2356,5.2285,0.0,0.0,0.0,0.0,0.0,0.0,0.0,0.0,0.0,0.0,0.0,0.0,0.0,0.0,0.0,6.2253,5.8853,5.5288,5.2836,5.1634,5.1269,5.1675,5.6055,5.9532,5.6632,5.729,5.8159,5.6812,5.6518,5.5226,5.0743,5.1808,5.4004,5.6282,6.1329,6.5168,6.5442,6.6764,6.8615,7.0645,6.7602,6.6694,7.0093,7.3982,7.6402,7.6402,8.2719,8.6425,8.6023,8.6374,8.6037,8.4938,8.5662,8.5612,8.4938,8.6037,8.6851,8.7429,8.8132,8.871,8.9202,9.1582,9.4871,9.8909,10.1466,10.2779,10.3181,10.5378,10.2569,9.719,9.9607,9.7975,9.3193,8.3611,7.7764,7.3312,0.0,0.0,0.0,0.0,0.0,0.0,0.0,0.0,0.0,0.0,0.0,0.0,0.0,0.0,0.0,0.0,0.0,0.0,0.0,5.5312,5.5703,5.6504,5.93,6.1136,6.1579,6.6471,6.6801,6.2106,5.9468,5.5647,5.08,5.0367,5.0134,5.0252,4.9889,4.9707,4.9707,4.994,4.9889,4.9475,4.9475,0.0,0.0,0.0,0.0,0.0,0.0,0.0,0.0,0.0,0.0,0.0,0.0,0.0,6.2866,6.221,5.7757,5.2944,5.2235,5.0376,4.8931,5.0526,5.618,6.1433,6.1663,6.202,6.2188,6.1852,5.897,5.5399,5.1399,5.1839,5.3328,5.4798,6.1754,6.9229,7.5608,7.2765,7.1254,7.4316,7.0028,6.6727,6.6645,7.2599,7.6447,7.6402,8.2405,8.6023,8.5998,8.6023,8.4712,8.1669,8.4462,8.4575,8.153,8.4486,8.6349,8.6851,8.7956,8.8484,8.8559,8.9267,9.2938,9.8638,9.6262,9.7986,10.2211,9.964,9.7983,9.7006,9.7665,9.4581,8.8506,7.833,7.1848,6.6777,0.0,0.0,0.0,0.0,0.0,0.0,0.0,0.0,0.0,0.0,0.0,0.0,0.0,0.0,0.0,0.0,0.0,0.0,5.1948,5.2679,5.3968,5.6455,5.9215,6.032,5.9584,6.2929,6.3013,5.9455,5.3308,4.9379,4.747,4.5559,4.4521,4.4171,4.4448,4.4477,4.4528,4.8489,4.8896,4.7133,4.8892,4.8251,0.0,0.0,0.0,0.0,0.0,0.0,0.0,0.0,5.5687,6.0788,6.0788,6.0668,6.0427,6.0005,5.5355,5.0241,4.9882,4.7312,4.5502,4.8163,5.3676,5.8921,6.0719,5.9962,5.9583,6.1851,5.9679,5.6379,5.3019,5.141,5.2173,5.7382,6.488,7.107,7.4603,7.3729,7.2634,7.2549,6.8862,6.6504,6.6621,7.0731,7.431,7.6283,8.0796,8.419,8.5911,8.6324,8.4871,8.1299,8.2405,8.2261,8.0732,8.2237,8.3886,8.5747,8.6877,8.778,8.8458,8.871,9.1226,9.537,9.2313,9.1871,9.3017,8.9946,8.7488,8.5692,8.8729,8.8951,8.6214,7.4824,6.7902,6.299,0.0,0.0,0.0,0.0,0.0,0.0,0.0,0.0,0.0,0.0,0.0,0.0,0.0,0.0,0.0,0.0,0.0,0.0,4.8977,4.9804,5.133,5.3854,5.5705,5.6333,5.56,5.6975,5.7452,5.698,4.9545,4.5361,4.4417,4.2326,4.1229,4.0762,4.1163,4.1229,4.1398,4.6735,4.7215,4.4472,4.7439,4.6567,0.0,0.0,0.0,0.0,0.0,0.0,0.0,0.0,5.3486,5.8098,5.9038,5.9355,5.9297,5.8711,5.3798,4.8546,4.8165,4.5486,4.3494,4.6359,5.1312,5.6494,6.0281,6.0186,6.0274,6.4381,6.0943,5.6175,5.2806,5.0511,5.1747,5.9158,6.666,7.2701,7.5913,7.5883,7.4752,7.2549,6.9578,6.7433,6.6747,6.968,7.2998,7.6164,7.9721,8.2997,8.5886,8.5398,8.3293,7.9628,7.9371,7.8581,7.7008,7.8372,8.0508,8.324,8.3237,8.4909,8.7956,8.8132,8.9564,9.1654,8.8599,8.6865,8.6074,8.3229,8.0781,7.9404,8.2467,8.2813,8.0125,6.933,6.1899,5.6207,0.0,0.0,0.0,0.0,0.0,0.0,0.0,0.0,0.0,0.0,4.2089,0.0,0.0,0.0,0.0,0.0,0.0,0.0,4.6784,4.724,4.7618,4.8076,4.8092,4.8405,4.9163,4.8833,5.0657,5.4756,4.9158,4.482,4.179,4.179,4.163,4.1336,4.1336,4.1336,4.146,4.4821,4.4346,4.1557,4.4579,4.3872,4.0882,0.0,0.0,0.0,0.0,0.0,0.0,0.0,5.2612,5.5698,5.8766,5.9805,5.9629,5.8697,5.3509,4.7928,4.7468,4.5154,4.3423,4.559,4.9821,5.5023,6.1383,6.3783,6.5905,7.0559,6.3036,5.4358,5.0184,4.9607,5.2008,5.917,6.6643,7.4162,8.163,8.0343,7.7755,7.5296,7.2451,6.964,6.6461,6.9496,7.2977,7.6164,7.9279,8.2496,8.5774,8.2839,7.9512,7.5825,7.5287,7.3274,6.9674,7.2791,7.5953,7.8989,7.6869,7.9651,8.6776,8.7329,8.7744,8.7869,8.4787,8.3276,8.2873,8.0326,7.9628,8.0201,8.0326,7.6271,6.9338,6.1213,5.2986,4.54,0.0,0.0,0.0,0.0,0.0,0.0,0.0,0.0,0.0,3.9055,3.9138,0.0,0.0,0.0,0.0,0.0,0.0,0.0,4.4743,4.4981,4.6201,4.8817,4.8586,4.8767,4.9608,4.7582,4.7217,4.8601,4.4525,4.2353,4.179,4.179,4.163,4.135,4.1777,4.1857,4.2018,4.7422,4.7909,4.5357,4.8278,4.7397,4.3858,0.0,0.0,0.0,0.0,0.0,0.0,0.0,0.0,0.0,5.8937,5.8273,5.6465,5.6207,5.1171,4.5681,4.5588,4.4096,4.3488,4.6992,5.03,5.4007,5.9146,6.0796,6.1961,6.4605,6.0187,5.5453,5.423,5.3521,5.5386,6.1973,6.7321,7.3214,8.0983,7.9784,7.7381,7.5228,7.2451,6.9517,6.6049,6.6986,6.9026,7.1916,7.3049,7.4945,7.8186,7.7493,7.5287,7.1665,6.914,6.6971,6.5288,6.6544,6.8757,7.1862,7.4238,7.9113,8.6137,8.2085,8.181,8.4162,7.8546,7.6299,7.6292,7.3203,7.3411,7.573,7.5877,7.1669,6.4633,5.6228,4.6732,3.7918,0.0,0.0,0.0,0.0,0.0,0.0,0.0,0.0,0.0,3.7929,3.7996,3.8223,0.0,0.0,0.0,0.0,0.0,0.0,4.2245,4.2463,4.3416,4.5458,4.5275,4.5367,4.588,4.4323,4.3722,4.4023,4.2052,4.1269,4.1603,4.175,4.167,4.1563,4.2258,4.2298,4.2166,4.7525,4.8539,4.6947,4.9879,4.9071,4.5769,0.0,0.0,0.0,0.0,0.0,0.0,0.0,0.0,0.0,5.5374,5.4954,5.33,5.2787,4.8538,4.419,4.53,4.5003,4.5186,4.8823,5.2373,5.5854,5.8786,6.1117,6.2662,6.2403,6.0166,5.7747,5.6146,5.5153,5.6141,6.1492,6.6538,7.1928,7.8232,7.8964,7.7656,7.4488,7.2673,7.0059,6.5466,6.5469,6.6824,6.9666,6.9863,7.1246,7.4456,7.3456,7.1064,6.7405,6.3831,6.1098,5.9127,5.9321,6.1119,6.4392,6.761,7.2786,7.9526,7.7774,7.7599,7.8456,7.335,7.1358,7.1349,6.9202,6.9607,7.1456,6.9939,6.501,5.785,4.9639,4.1471,3.4362,0.0,0.0,3.3676,3.6511,0.0,0.0,0.0,0.0,0.0,0.0,3.829,3.8504,0.0,0.0,0.0,0.0,0.0,0.0,0.0,3.992,4.0067,4.0067,4.0107,4.0107,4.0107,4.0361,4.0655,4.0909,4.1163,4.131,4.1336,4.1603,4.1777,4.1857,4.2659,4.2579,4.2095,4.5842,4.7332,4.7437,5.008,4.9542,4.7085,4.6584,0.0,0.0,0.0,0.0,0.0,0.0,0.0,0.0,4.9941,5.0641,5.0243,4.8932,4.5973,4.354,4.6086,4.713,4.8186,5.0831,5.542,5.9336,5.9465,6.3132,6.5722,6.2754,6.1734,6.0357,5.6917,5.5333,5.5729,5.937,6.4904,7.0336,7.4479,7.7766,7.7945,7.3112,7.2994,7.0885,6.4785,6.459,6.5786,6.8348,6.848,6.9728,7.2738,7.0036,6.6712,6.3008,5.9211,5.5391,5.1645,5.1645,5.3279,5.6311,5.8504,6.2684,6.8583,7.3374,7.4143,7.1664,6.9169,6.8125,6.8086,6.7676,6.7548,6.7119,6.3491,5.7214,4.9372,4.2777,3.7499,3.3611,0.0,0.0,3.6577,3.7176,0.0,0.0,0.0,0.0,0.0,0.0,3.8477,3.8758,3.9001,0.0,0.0,0.0,0.0,0.0,0.0,4.0334,4.0361,4.0361,4.0588,4.0722,4.0722,4.0802,4.0842,4.0909,4.0735,4.0909,4.1336,4.1416,4.167,4.2138,4.2325,4.2298,4.239,4.5683,4.8433,5.0629,5.1758,5.1505,5.0282,4.8232,4.5025,0.0,0.0,0.0,0.0,0.0,0.0,0.0,4.972,4.8943,4.6883,4.6592,4.5208,4.3949,4.5199,4.8356,5.1858,5.3746,5.7024,5.9277,5.753,5.9323,6.1301,6.0896,6.1052,6.0764,5.9667,5.8995,5.9604,6.2693,6.4338,6.745,7.3641,7.5447,7.5012,7.1874,7.2301,7.0301,6.3898,6.3691,6.401,6.4354,6.4016,6.4131,6.4795,6.3909,6.1601,5.8011,5.4938,5.0165,4.3896,4.6785,4.7426,4.5914,5.2072,5.5995,5.7917,6.5544,6.8776,6.8458,6.7853,6.7656,6.7617,6.7539,6.5499,6.2221,6.1348,5.2941,4.1354,4.2702,3.734,3.0367,0.0,0.0,0.0,0.0,0.0,0.0,0.0,0.0,0.0,0.0,0.0,0.0,0.0,3.9773,0.0,0.0,4.0401,4.0481,4.0481,4.0481,3.9726,3.8214,3.9735,3.9936,3.8293,3.9936,4.0695,4.0695,4.0548,4.0695,4.1122,4.1269,4.159,4.2031,4.2445,4.2405,4.2144,4.4152,4.6562,4.9296,4.966,4.9569,4.9198,4.7968,4.5211,4.2004,4.2151,0.0,0.0,0.0,0.0,0.0,0.0,0.0,4.3316,4.2968,4.2408,4.248,4.5449,4.8504,5.1877,5.6506,5.892,5.974,5.8648,5.9093,5.9805,5.9824,6.0156,6.039,6.0156,5.9805,6.0033,6.1514,6.3183,6.5408,6.8945,7.1162,7.1228,6.8479,6.8799,6.7249,6.2263,6.2187,6.2246,6.1816,6.1601,6.1426,6.1426,6.125,5.8929,5.4107,5.2332,4.8322,4.1956,4.1969,4.2323,4.2753,4.6704,5.0814,5.4827,5.9649,6.2865,6.4686,6.4686,6.5372,6.6417,6.4635,6.2371,5.9558,5.6426,4.9229,4.075,4.1378,3.8099,3.4081,0.0,0.0,0.0,0.0,0.0,0.0,0.0,0.0,0.0,0.0,0.0,0.0,0.0,3.992,4.0214,0.0,0.0,0.0,4.0481,3.9956,3.8458,3.5608,3.8252,3.8425,3.5667,3.8804,4.0548,4.0548,4.0508,4.0588,4.0842,4.1189,4.1497,4.1817,4.2592,4.2552,4.1897,4.2365,4.425,4.6732,4.6867,4.6894,4.7103,4.7178,4.5086,4.2218,4.2218,4.1884,4.1456,4.171,0.0,0.0,0.0,0.0,4.0762,3.996,4.0036,4.1338,4.5907,4.8502,5.1492,5.8044,5.9551,5.9246,5.8174,5.7987,5.795,5.7626,5.8739,5.9707,5.9707,5.9414,5.918,5.918,6.1514,6.3533,6.3972,6.6603,6.756,6.5086,6.5175,6.4111,6.0697,6.0781,6.084,6.0449,6.0371,6.0332,6.0332,6.0332,5.7747,5.2097,5.1349,4.8137,4.2084,3.8428,3.8345,4.1786,4.2766,4.6628,5.3072,5.4051,5.6604,6.0589,6.0536,6.1676,6.3472,6.0311,5.8292,5.6683,5.1254,4.6342,4.214,4.0436,3.9639,3.9473,0.0,0.0,0.0,0.0,0.0,0.0,0.0,0.0,0.0,0.0,3.5227,3.6569,3.9561,4.0254,4.0441,4.0481,4.0481,4.0481,4.0481,0.0,0.0,3.5474,3.6203,3.6298,3.5915,3.9085,4.0842,4.0842,4.0588,4.0508,4.0548,4.1096,4.1497,4.179,4.2178,4.2258,4.2178,4.2258,4.4026,4.6777,4.7362,4.7437,4.7133,4.7432,4.5412,4.2218,4.2218,4.2004,4.175,4.1777,4.1563,0.0,0.0,0.0,4.0842,4.0468,4.1751,4.3592,4.5094,4.9723,5.4631,5.6117,5.6123,5.4445,4.9013,4.9549,5.1135,5.1084,5.5456,5.9238,5.9238,5.9238,5.918,5.918,5.9534,6.0738,6.3163,6.4304,6.473,6.4161,6.467,6.3739,6.0658,6.0488,6.0488,6.043,6.0098,5.9883,5.9883,5.9883,5.8273,5.4668,5.2388,4.8183,4.1701,3.8465,3.7257,3.7852,4.1353,4.39,4.547,4.5842,4.9797,5.6258,5.5939,5.6104,5.635,5.5276,5.2861,4.9808,4.9161,4.4642,3.9072,4.2679,4.2148,4.0178,0.0,0.0,0.0,0.0,0.0,0.0,0.0,0.0,0.0,0.0,0.0,3.544,3.7035,3.9166,4.0481,4.0481,4.0481,4.0481,4.0481,3.7347,3.4714,3.2753,3.4582,3.4774,3.2905,3.8011,4.0655,4.0655,4.0548,4.0655,4.0976,4.1563,4.1737,4.1563,4.2004,4.2218,4.2218,4.2218,4.2993,4.4234,4.4515,4.3316,4.1256,4.158,3.9439,3.6141,3.6441,3.7584,3.9185,3.922,3.8984,3.8623,3.8487,0.0,0.0,0.0,3.847,4.0589,4.6469,5.122,5.4598,5.558,5.5309,5.3627,4.9358,4.9131,5.0288,5.2107,5.4604,5.7155,5.8917,5.918,5.86,5.6798,5.6591,5.7024,5.8276,5.8635,5.935,6.1161,6.1524,6.1147,5.9859,5.9746,5.9029,5.7229,5.6927,5.6853,5.6853,5.6853,5.6262,5.5067,5.2421,4.8676,4.4035,3.9313,3.7013,3.7024,4.1108,4.3233,4.3501,4.3968,4.7153,5.2211,5.185,5.1427,5.1178,5.0862,4.855,4.5079,4.5557,4.4008,4.1561,4.4021,4.3999,4.3096,0.0,0.0,0.0,0.0,0.0,0.0,0.0,0.0,0.0,0.0,0.0,3.449,3.6165,0.0,0.0,0.0,4.0481,4.0481,4.0481,3.7347,3.3976,3.0657,3.374,3.3976,3.0522,3.7102,4.0481,4.0481,4.0481,4.0326,4.0048,4.0539,4.0149,3.9061,4.1436,4.2552,4.2411,4.1396,4.1002,4.0965,3.9869,3.7642,3.5256,3.5392,3.3759,3.1433,3.1857,3.3569,3.5748,3.6042,3.5788,3.559,3.5443,3.3444,0.0,0.0,0.0,3.7582,4.6726,5.0288,5.1785,5.2794,5.2487,5.1367,4.8511,4.7606,4.8287,5.1414,5.27,5.4225,5.7419,5.8693,5.8132,5.506,5.4454,5.4207,5.3406,5.3979,5.5401,5.7776,5.8693,5.918,5.918,5.8469,5.7061,5.4682,5.375,5.3309,5.3309,5.4219,5.476,5.497,5.2319,4.9695,4.7314,4.1395,3.8028,3.7118,4.1134,4.2686,4.178,4.2233,4.3519,4.5318,4.592,4.6028,4.563,4.5531,4.4342,4.2833,4.3487,4.3968,4.4302,4.4877,4.5237,4.5451,0.0,0.0,0.0,0.0,0.0,0.0,0.0,0.0,0.0,0.0,0.0,3.2972,3.9539,4.0347,4.0481,4.0481,4.0481,4.0481,4.0481,3.7347,3.3976,3.0657,3.374,0.0,3.0522,3.7102,4.0481,4.0481,4.0481,3.9149,3.6498,3.6756,3.5421,3.3136,4.0246,4.3461,4.3133,3.917,3.7834,3.7754,3.3235,3.1568,3.1656,3.135,3.1194,3.1325,3.1624,3.2098,3.2352,3.2635,3.2767,3.2686,3.212,3.1848,3.1427,0.0,0.0,0.0,4.358,4.5486,4.5529,4.5375,4.5423,4.4728,4.1293,4.0763,4.1892,4.4922,4.795,5.0951,5.4129,5.7174,5.8132,5.506,5.4454,5.3424,5.0504,5.2602,5.4586,5.47,5.74,5.918,5.918,5.6459,5.4682,5.4472,5.1778,5.0039,5.0039,5.32,5.5085,5.5085,5.2625,5.1183,5.1079,4.5269,4.0684,3.7506,4.134,4.1378,3.8168,3.8204,3.6381,3.3614,3.7037,3.8596,3.8895,3.8274,4.0351,4.3928,4.4262,4.4583,4.4917,4.5491,4.5705,4.5705,0.0,0.0,0.0,0.0,0.0,0.0,0.0,0.0,0.0,0.0,0.0,0.0,0.0,3.9214,4.0481,4.0481,4.0481,4.0548,4.0735,3.7446,3.4043,3.085,3.383,3.3976,3.0522,3.7102,4.0481,4.0481,3.8361,3.6916,3.6241,3.2168,2.9803,2.9231,3.41,3.6328,3.6152,3.4543,3.3862,3.3818,3.2003,2.9948,2.7922,2.7776,2.6317,2.4452,2.4845,2.6734,2.8988,2.9123,2.934,2.9367,2.908,2.7321,2.554,2.7179,3.1515,3.6512,4.0763,4.3259,4.4727,4.4935,4.4489,4.3358,4.0664,3.9813,4.0602,4.3915,4.7225,5.0498,5.3621,5.6985,5.8132,5.506,5.4454,5.4111,5.2947,5.375,5.5306,5.7306,5.8469,5.918,5.918,5.6364,5.3653,5.1645,4.8521,4.6773,4.6773,4.7944,5.0588,5.4574,5.2369,5.0355,4.8834,4.2218,3.8418,3.753,3.6734,3.5657,3.4495,3.4806,3.2929,2.9584,3.3474,3.5042,3.5237,4.0269,4.1815,4.1446,4.4239,4.5344,4.5451,4.5678,4.5745,4.5745,0.0,0.0,0.0,2.0824,0.0,2.2954,2.0718,2.0471,2.2116,2.6528,0.0,0.0,0.0,0.0,4.0481,4.0481,4.0548,4.0695,4.0909,3.8699,3.545,3.1087,3.3953,3.3459,2.8894,3.4288,3.7139,3.7102,3.4901,3.2927,3.119,2.6793,2.3807,2.2041,2.4287,2.7321,3.0761,3.034,3.0264,3.0247,2.8406,2.6423,2.4427,2.4245,2.2822,2.0892,2.1245,2.3162,2.5464,2.5425,2.5543,2.5733,2.567,2.3828,2.2181,2.5161,2.9049,3.3284,3.7504,4.0014,4.1849,4.3092,4.2971,4.2024,4.0168,3.9599,4.0016,4.2059,4.6183,5.0067,5.2124,5.6179,5.8132,5.506,5.4454,5.4129,5.308,5.3865,5.5306,5.74,5.86,5.918,5.918,5.5401,5.1992,4.9906,4.5945,4.3623,4.3623,4.4564,4.7087,5.1556,5.0071,4.7544,4.4164,3.9394,3.6626,3.5815,3.3609,3.1872,3.0886,3.1163,2.9357,2.6227,3.011,3.2354,3.3732,4.038,4.2646,4.2006,4.4601,4.5745,4.5745,4.5745,4.5745,4.5745,2.0539,2.0539,2.0505,2.0363,2.0329,2.0329,2.0329,2.0329,2.2744,2.9612,0.0,0.0,0.0,0.0,0.0,4.0481,4.06,4.0773,4.0773,4.0637,3.7631,3.0982,3.3962,3.2483,2.5667,2.8693,3.031,3.0388,3.0167,2.694,2.0904,2.0767,1.7319,1.1466,1.1256,1.7208,2.7224,2.6827,2.6953,2.7073,2.2232,2.079,2.1387,2.0946,2.1034,2.1441,2.1584,2.174,2.1848,2.1706,2.1672,2.1706,2.1848,2.1686,2.2069,2.5127,2.5851,2.7054,0.0,0.0,0.0,3.8997,3.9986,4.012,3.9241,3.9507,3.9853,3.9265,4.4522,4.9245,4.9245,5.4655,5.8,5.4946,5.4586,5.3521,5.0504,5.27,5.4682,5.4682,5.74,5.918,5.918,5.3557,4.9939,4.9806,4.4102,4.0616,4.0481,4.3398,4.5429,4.5965,4.5858,4.3082,3.7506,3.7282,3.5566,3.2362,3.2249,3.0495,2.7326,2.7207,2.5528,2.284,2.6724,3.0512,3.4231,3.8134,4.2043,4.5745,4.5745,4.5745,4.5745,4.5745,4.5745,4.5745,2.0539,2.0539,2.0526,2.0485,2.0485,2.0485,2.0485,2.0485,2.2866,0.0,0.0,0.0,3.9726,4.0481,4.0481,4.0481,3.8302,3.7028,3.7224,3.4809,3.1537,2.7578,3.0309,2.996,2.5542,2.8713,2.9295,2.6762,2.4356,2.1013,1.6834,1.187,0.8618,0.7044,0.9673,1.2555,1.5711,1.8198,2.0861,2.3384,2.1874,2.1285,2.1245,2.1021,2.0878,2.0804,2.0967,2.1245,2.1543,2.1387,2.1706,2.2127,2.1937,2.1828,2.1792,2.2355,2.4072,2.6313,2.7872,0.0,0.0,0.0,0.0,0.0,3.6236,3.7869,3.9346,3.9068,4.2643,4.5673,4.5673,5.1029,5.5184,5.4627,5.644,5.7644,5.6704,5.74,5.7888,5.7888,5.8693,5.918,5.918,5.5515,5.2257,5.0022,4.6063,4.2827,4.0576,4.3398,4.5444,4.6101,4.3563,4.1775,4.0821,3.3482,2.944,2.8587,2.6078,2.4367,2.3594,2.3718,2.3339,2.284,2.6724,3.0512,3.4144,3.8553,4.2402,4.5785,4.5972,4.5932,4.5705,4.5491,4.5424,4.5384,2.056,2.0594,2.0614,2.056,2.0539,2.0539,2.0539,2.0539,2.2919,0.0,0.0,0.0,3.9726,3.9434,3.8737,3.8496,3.5456,3.3705,3.3849,3.1859,2.9211,2.6184,2.6291,2.4795,2.135,2.174,2.1069,1.9083,1.7046,1.4394,1.0999,0.6954,0.4285,0.3145,0.6865,0.9484,1.1238,1.5024,1.8684,2.2038,2.1706,2.1618,2.1652,2.1319,2.119,2.119,2.1157,2.1387,2.1652,2.1265,2.155,2.2004,2.1706,2.1726,2.1774,2.1245,2.2457,2.4099,2.5273,2.6904,2.8789,3.0149,0.0,0.0,3.4315,3.5882,3.7511,3.8343,4.153,4.4049,4.393,4.8228,5.2324,5.3913,5.5748,5.7566,5.9029,5.918,5.918,5.918,5.918,5.918,5.918,5.6364,5.3177,5.0039,4.6906,4.3729,4.071,4.224,4.277,4.1984,3.9842,3.7751,3.5688,2.9739,2.615,2.4921,2.2908,2.2793,2.4358,2.2978,2.3236,2.5031,2.7118,3.0174,3.3981,3.8132,4.2117,4.5571,4.5745,4.5718,4.5531,4.509,4.5024,4.509,0.0,2.0668,2.0716,2.0573,2.0539,2.0539,2.0539,2.0539,2.2919,0.0,3.0761,3.3359,3.9335,3.7396,3.5594,3.5017,3.2077,3.0304,3.0304,2.9927,2.8426,2.5558,2.2441,1.9057,1.5444,1.2278,1.0355,0.9778,0.9593,0.781,0.4519,0.4546,0.2871,0.0131,0.4393,0.8081,1.1541,1.5785,1.9406,2.2289,2.1774,2.1862,2.2235,2.1672,2.1686,2.195,2.1706,2.1794,2.1916,2.1285,2.1319,2.1584,2.1353,2.153,2.1726,2.1333,2.1109,2.1545,2.4261,2.4905,2.5667,2.8655,2.9642,0.0,3.2407,3.3508,3.463,3.6615,3.9752,4.2165,4.2006,4.5232,4.8864,5.1652,5.2889,5.4885,5.8654,5.918,5.918,5.918,5.918,5.918,5.918,5.6685,5.3768,5.0603,4.7127,4.3863,4.1181,4.0333,3.8733,3.5985,3.5128,3.2173,2.6581,2.6064,2.4439,2.1828,2.1848,2.3878,2.757,2.431,2.4935,2.8484,2.8183,3.0364,3.4344,3.7487,4.1251,4.5277,4.5277,4.5237,4.5131,4.4583,4.4543,4.469,2.0573,2.0668,2.0716,2.0573,2.0539,2.0539,2.0539,2.0539,2.2919,2.9642,3.2855,3.4971,3.6356,3.3594,3.1609,3.1526,2.8443,2.659,2.659,2.4087,2.227,2.1783,2.1135,1.9214,1.5668,1.4865,1.1739,0.6148,0.6011,0.4315,0.105,0.1052,0.066,0.0266,0.6945,1.0389,1.1624,1.854,2.187,2.2337,2.2344,2.2181,2.195,2.1706,2.1462,2.1231,2.1285,2.1333,2.1408,2.1509,2.1441,2.1353,2.1652,2.1564,2.1319,2.1231,2.1021,2.0905,2.135,2.1534,2.1668,2.2286,2.4417,0.0,2.6957,2.9322,3.1388,3.1617,3.2245,3.2774,3.274,3.7537,4.1841,4.2673,4.7212,5.2648,5.8449,5.918,5.918,5.918,5.918,5.918,5.918,5.8693,5.6948,5.3865,4.8287,4.4788,4.4206,3.9244,3.6341,3.585,3.0755,2.7356,2.6338,2.3621,2.209,2.153,2.1652,2.3672,2.7174,2.651,2.8132,3.1487,3.1428,3.3442,3.6969,3.7849,4.0952,4.4957,4.4957,4.481,4.4583,4.4222,4.3968,4.3741,2.0594,2.0736,2.0804,2.0573,2.0539,2.056,2.0648,2.0594,2.2323,2.7415,3.1059,3.3109,3.3,3.0125,2.8142,2.8039,2.3321,2.1195,2.2919,1.9874,1.8938,2.077,1.9346,1.6809,1.3187,1.1471,0.7917,0.2514,0.2506,0.1712,0.0,0.0,0.0,0.0264,0.7626,1.1068,1.1665,1.9359,2.1424,1.9856,2.1553,2.2147,2.1848,2.155,2.1353,2.1231,2.1299,2.1319,2.1353,2.1509,2.155,2.153,2.1462,2.1441,2.1387,2.1177,2.0946,2.0736,2.0573,2.1668,2.2547,2.092,2.303,0.0,0.0,2.6451,2.817,2.9428,2.9772,2.9883,2.9772,3.2475,3.5331,3.7106,4.1562,4.6478,5.1598,5.3592,5.4418,5.4333,5.4477,5.5101,5.6422,5.6798,5.5515,5.2372,4.7801,4.443,4.2947,3.8151,3.4852,3.335,2.8439,2.5151,2.367,2.2157,2.1367,2.1441,2.1509,2.4344,2.9421,2.7696,2.9675,3.4662,3.4662,3.5759,3.773,3.9601,4.1829,4.4008,4.4155,4.4115,4.3928,4.3501,4.342,4.3461,2.0648,2.0804,2.0912,2.0594,2.0539,2.0594,2.0756,2.0668,2.1761,2.5295,2.8201,2.9627,2.8636,2.5761,2.3833,2.3667,1.8071,1.5927,1.9414,1.7067,1.6841,1.9651,1.8053,1.5405,1.1689,0.8257,0.4805,0.107,0.0399,0.0,0.0,0.0,0.0,0.0263,0.7634,1.0923,1.1727,1.93,2.0707,1.806,2.0319,2.0581,1.9935,2.0171,2.0347,2.0431,2.1183,2.1421,2.1408,2.1455,2.1597,2.1686,2.1299,2.1333,2.1475,2.1177,2.0912,2.0702,2.0614,2.2569,2.3913,2.116,2.2547,2.4462,0.0,0.0,0.0,2.7173,2.7887,2.8083,2.7763,2.8484,2.994,3.2474,3.579,3.9036,4.2082,4.4623,4.6766,4.84,4.9243,5.0419,5.2097,5.2455,5.156,4.9043,4.5957,4.3073,4.0562,3.7335,3.4403,3.1828,2.7904,2.4661,2.2203,2.1584,2.1265,2.1353,2.1353,2.4978,3.1566,2.8782,3.1388,3.7975,3.8072,3.8205,3.8655,4.1569,4.2766,4.2953,4.338,4.3487,4.338,4.298,4.31,4.338,2.0804,2.0878,2.0912,2.0594,2.0539,2.0594,2.0756,2.0756,2.2025,2.5312,2.6075,2.5204,2.1924,1.8551,1.6816,1.7131,1.3371,1.2466,1.6371,1.5995,1.5747,1.6235,1.912,1.914,1.5518,1.2114,0.8514,0.5012,0.1617,0.0,0.0,0.0,0.0,0.0268,0.7512,1.0941,1.1749,1.9156,2.1933,2.1181,1.8593,1.5575,1.2715,1.5547,1.6628,1.7148,2.0311,2.1353,2.1285,2.155,2.1496,2.1353,2.1672,2.1462,2.1123,2.1333,2.1001,2.0594,2.0716,2.0896,2.092,2.0546,2.0786,2.1033,2.0992,0.0,2.1342,2.1683,0.0,2.189,2.1854,0.0,0.0,2.6783,2.9656,3.2195,3.2605,3.2779,3.6131,4.4757,4.7962,4.8534,4.6049,4.586,4.5636,4.5245,4.2479,4.0547,3.9959,3.7335,3.5714,3.5365,2.9447,2.6114,2.5619,2.2689,2.1157,2.1055,2.1055,2.4628,3.124,3.1048,3.4742,4.1229,4.1857,4.1962,4.1751,4.2398,4.2512,4.2405,4.3207,4.338,4.3167,4.3354,4.3314,4.3127,2.0946,2.0946,2.0933,2.0716,2.0594,2.0627,2.0858,1.926,1.9148,2.2555,2.1224,1.9302,1.7829,1.6423,1.5584,1.5729,1.0585,0.9755,1.5478,1.383,1.3708,1.5796,1.9644,1.9927,1.626,1.4814,1.1284,0.5427,0.3912,0.2018,0.0,0.0,0.0,0.0266,0.7419,1.0761,1.1371,1.8945,1.9533,1.5367,1.4322,1.0209,0.5542,1.3148,1.7422,1.9432,2.0811,2.1408,2.1333,2.1299,2.1374,2.1441,2.1285,2.1177,2.1109,2.1068,2.0804,2.056,2.0614,2.1972,2.2926,2.1047,2.1914,2.2941,2.1024,2.0716,2.079,2.0892,0.0,0.0,0.0,0.0,0.0,0.0,2.5979,2.8159,2.8287,2.9675,3.2233,3.6087,3.7706,3.8679,3.916,4.093,4.1123,3.923,3.7974,3.7243,3.7214,3.4548,3.3915,3.5971,3.1601,2.826,2.6381,2.4821,2.2917,2.0858,2.2769,2.6244,3.0921,3.331,3.7043,4.1563,4.2338,4.2592,4.2472,4.2619,4.2592,4.2512,4.2873,4.2846,4.2619,4.2913,4.306,4.31,2.1143,2.1055,2.0946,2.0804,2.0648,2.0251,1.963,1.6629,1.5341,1.7774,1.5811,1.3766,1.2846,1.2749,1.2801,1.2898,0.7294,0.6306,1.2511,1.1564,1.1431,1.3016,1.881,1.9658,1.4814,1.501,1.1871,0.5444,0.4444,0.2549,0.0,0.0,0.0,0.0265,0.6321,0.9601,1.1109,1.6695,1.6373,1.2023,1.0652,0.7179,0.3642,1.0603,1.5968,1.9956,1.9924,2.0554,2.1299,2.1157,2.1285,2.1421,2.1021,2.1021,2.1109,2.0892,2.0702,2.056,2.0648,2.2397,2.362,2.1286,2.2404,2.3644,2.1377,2.0811,2.0858,2.098,2.1143,0.0,0.0,0.0,2.1265,2.1211,0.0,2.4755,2.5013,2.6793,2.8411,2.9095,2.9211,3.0307,3.3472,3.5121,3.4895,3.2487,3.2384,3.2503,3.2552,3.2489,3.365,3.6124,3.3892,3.1566,2.9104,2.6998,2.5045,2.3475,2.4984,2.782,3.2117,3.5039,3.8249,4.163,4.2445,4.2766,4.2766,4.2766,4.2739,4.2659,4.2592,4.2405,4.2285,4.2726,4.302,4.3233,2.1408,2.1197,2.0946,2.0804,2.0648,1.9478,1.6224,1.2933,1.0869,1.0869,1.0799,0.9372,0.5769,0.5401,0.5622,0.6052,0.2484,0.1914,0.58,0.8944,0.9162,0.5605,1.5978,1.847,1.0995,1.1138,0.9441,0.5622,0.2018,0.0134,0.0,0.0,0.0,0.0134,0.3706,0.7275,1.0717,1.1068,1.3086,1.531,0.872,0.775,1.0078,0.69,1.011,1.6332,1.6213,1.835,2.1055,2.1333,2.1245,2.1034,2.1157,2.1109,2.1001,2.1001,2.077,2.0614,2.0912,2.1008,2.0926,2.0946,2.1008,2.0885,2.077,2.0892,2.1001,2.1001,2.1231,2.1387,2.1245,2.1333,2.1387,2.1231,2.134,0.0,0.0,2.1556,2.2689,2.5979,2.5871,2.6833,2.9933,2.7661,2.5755,2.5501,2.5704,2.5755,2.5501,3.2316,3.6237,3.6363,3.6472,3.6369,3.6112,2.9199,2.7244,3.0149,2.7056,2.9125,3.5714,3.6233,3.8572,4.2218,4.2833,4.31,4.31,4.31,4.2913,4.2632,4.2325,4.2218,4.2325,4.3193,4.3487,4.3567,1.7785,1.9465,2.0858,2.0912,1.876,1.5992,1.2694,0.9415,0.8043,1.028,0.8618,0.665,0.5482,0.5238,0.5413,0.558,0.4526,0.4344,0.5436,0.9014,0.932,0.5559,1.1395,1.341,1.093,1.0975,0.9223,0.541,0.4164,0.2281,0.0,0.0,0.0,0.0134,0.3568,0.5784,0.7106,0.98,1.0119,0.846,0.3818,0.4101,0.761,0.85,1.3425,1.9551,1.9634,2.0199,2.0737,1.8487,1.7637,1.7151,1.4826,1.5587,1.7444,1.7444,1.8956,2.0736,2.0946,2.0892,2.0811,2.0967,2.0804,2.0668,2.0878,2.0967,2.1034,2.1123,2.1299,2.1421,2.1367,2.1408,2.1421,2.1367,2.1408,2.1408,0.0,2.1157,2.1369,2.2365,2.2233,2.2636,2.37,2.2782,2.1925,2.1822,2.2014,2.3885,2.816,2.9183,3.2636,3.9154,3.74,3.6261,3.6103,3.3467,3.1588,3.0522,3.1775,3.3636,3.5985,3.8899,4.0996,4.2258,4.2846,4.3207,4.3354,4.2953,4.298,4.2908,4.0054,3.9091,3.9546,4.222,4.3233,4.334,1.5999,1.8616,2.0824,2.0967,1.685,1.2509,0.9035,0.5731,0.4337,0.6587,0.4893,0.3417,0.3478,0.3498,0.3506,0.3509,0.3617,0.3711,0.3502,0.7057,0.7551,0.3838,0.8317,0.9638,0.7053,0.8379,0.7141,0.3495,0.3478,0.2276,0.0,0.0,0.0,0.0133,0.2246,0.3931,0.5214,0.6415,0.6316,0.4805,0.1356,0.2316,0.5845,0.8076,1.2489,1.7651,1.6184,1.6493,1.7082,1.4772,1.3903,1.3437,1.1113,1.2791,1.5561,1.5561,1.806,2.0878,2.1034,2.1001,2.0946,2.1055,2.0892,2.0736,2.0892,2.0912,2.0946,2.1034,2.1211,2.1353,2.1299,2.1367,2.1421,2.1367,2.1353,2.1299,0.0,2.1021,2.0845,2.0648,2.0627,2.058,2.0471,2.0438,2.0295,2.0031,2.0207,2.2608,2.8028,2.7933,3.1294,3.8877,3.8325,3.7803,3.773,3.4987,3.3875,3.411,3.411,3.5457,3.8051,4.0983,4.2552,4.2873,4.3247,4.3567,4.3677,4.1883,4.1325,4.1201,3.7064,3.5655,3.6205,4.001,4.2313,4.3634,1.5983,1.848,2.0444,2.0311,1.4773,0.9035,0.5379,0.2149,0.0,0.0,0.0,0.0,0.0,0.0,0.0,0.0,0.0295,0.0434,0.0282,0.381,0.4324,0.0406,0.6944,0.737,0.0136,0.3506,0.3627,0.0,0.0,0.0,0.0,0.0131,0.0261,0.0266,0.0397,0.2361,0.5079,0.1733,0.2001,0.461,0.1338,0.2287,0.5639,0.5231,0.7706,1.0636,0.6956,0.7703,1.048,1.0344,1.012,1.0002,0.9872,1.2336,1.5313,1.5313,1.8008,2.1034,2.1177,2.1211,2.1211,2.1211,2.1109,2.0946,2.0811,2.077,2.077,2.077,2.1001,2.1157,2.1034,2.1245,2.1387,2.1231,2.1197,2.1143,2.1001,2.0858,2.077,2.0756,2.0756,2.0648,2.0363,2.0451,2.0349,1.9908,2.0153,2.1742,2.5115,2.856,3.2096,3.5814,3.8865,4.0392,4.0392,3.3852,3.374,3.9996,3.4009,3.4879,4.158,4.2432,4.3207,4.4035,4.4008,4.4182,4.4103,4.0002,3.8319,3.7779,3.3788,3.2239,3.2555,3.6618,4.0679,4.4169,1.588,1.6586,1.5529,1.011,0.9765,0.8327,0.2251,0.0548,0.0,0.0,0.0,0.0,0.0,0.0,0.0,0.0,0.5363,0.7524,0.4502,1.063,1.1374,0.4642,0.6082,0.492,0.0136,0.0941,0.0932,0.0,0.0,0.0,0.0,0.2627,0.3794,0.3929,0.6595,0.8259,0.8777,0.541,0.2928,0.1196,0.04,0.3758,0.8899,0.3461,0.5335,1.0772,0.9775,0.9862,1.0079,0.7563,0.6601,0.6027,0.3413,0.6814,1.1789,1.1981,1.6356,2.1197,2.1333,2.1299,2.1211,2.1211,2.1021,2.0824,2.079,2.077,2.077,2.077,2.0933,2.1068,2.1143,2.1211,2.1265,2.1211,2.1034,2.0878,2.0845,2.079,2.0736,2.0614,2.0594,2.0573,2.0485,2.0329,2.0173,2.0051,2.0119,2.2727,2.8526,2.7697,2.9588,3.5456,3.411,3.3262,3.3211,3.1422,3.1391,3.3124,3.4426,3.6173,3.8509,4.1753,4.3674,4.4329,4.4115,4.4182,4.4223,4.2469,4.0501,3.8168,3.4225,3.1096,2.9602,3.5824,3.9049,4.0711,1.565,1.5999,1.3629,0.6335,0.6761,0.627,0.0809,0.0,0.0,0.0,0.0,0.0,0.0,0.0,0.0,0.0,0.4086,0.5674,0.3383,0.7428,0.7928,0.3414,0.3214,0.2203,0.0,0.0,0.0,0.0,0.0,0.0,0.0132,0.3529,0.5079,0.5204,0.7233,0.812,0.7754,0.4471,0.1859,0.0,0.0,0.3325,0.0,0.2117,0.3438,0.8104,0.6644,0.5984,0.558,0.3724,0.2919,0.2512,0.0662,0.4886,1.0551,1.0727,1.5832,2.1421,2.1441,2.1421,2.1387,2.1245,2.1034,2.0858,2.079,2.0716,2.0668,2.0668,2.079,2.0912,2.0912,2.1068,2.1197,2.1123,2.098,2.0824,2.0682,2.0668,2.0627,2.056,2.0539,2.0539,2.0539,2.0275,2.0139,2.0187,2.0207,2.2438,2.781,2.6528,2.8025,3.3135,3.1516,3.0519,3.0522,2.9134,2.9154,3.0654,3.3238,3.5492,3.7493,4.1739,4.3995,4.4436,4.4262,4.3319,4.1916,3.97,3.6923,3.3594,2.9693,2.6999,2.6268,3.3299,3.7249,3.9466,1.4297,1.4612,1.2358,0.5594,0.4476,0.3445,0.0416,0.0,0.0,0.0,0.0,0.0,0.0,0.0,0.0,0.0,0.0461,0.0752,0.0738,0.1326,0.1312,0.0853,0.0704,0.0556,0.0,0.0,0.0,0.0,0.0,0.0,0.0131,0.3497,0.5035,0.507,0.5632,0.5498,0.4948,0.197,0.0397,0.0,0.0528,0.2761,0.5379,0.197,0.2757,0.5245,0.1445,0.0,0.0133,0.0533,0.0666,0.08,0.1201,0.5988,1.1431,1.1413,1.6342,2.1638,2.1475,2.155,2.1564,2.1285,2.1109,2.0967,2.0811,2.0648,2.0539,2.0539,2.0648,2.0702,2.0594,2.0892,2.1123,2.1021,2.0967,2.0845,2.0573,2.0539,2.0539,2.0573,2.056,0.0,2.0594,2.0329,2.0207,2.0349,2.0383,2.1798,2.5257,2.5516,2.677,2.9727,2.9851,2.9642,2.9192,2.6495,2.6608,2.9413,3.0762,3.3289,3.7116,4.134,4.3771,4.4503,4.4436,4.2369,3.8781,3.53,3.1403,2.7347,2.371,2.2357,2.3158,3.0472,3.5321,3.8769,0.8284,0.7265,0.5947,0.1626,0.0827,0.0705,0.0145,0.0,0.0,0.0,0.0,0.0,0.0,0.0,0.0,0.0,0.3075,0.4846,0.4781,0.7859,0.8208,0.4887,0.4802,0.3337,0.0137,0.0,0.0,0.0,0.0,0.0,0.0129,0.3482,0.5153,0.529,0.8224,0.7976,0.5335,0.4588,0.2616,0.026,0.3127,0.6252,0.8974,0.5566,0.6323,0.8511,0.22,0.0,0.04,0.3458,0.4405,0.4959,0.7896,1.1816,1.5349,1.5129,1.8291,2.1638,2.1475,2.1455,2.1441,2.1265,2.1109,2.0967,2.0811,2.0648,2.0539,2.0539,2.056,2.0614,2.0716,2.079,2.0878,2.098,2.079,2.0594,2.0539,2.0539,2.0594,2.0716,2.0614,2.0648,2.0892,2.0648,2.0471,2.0505,2.0627,2.2099,2.5189,2.5449,2.5716,2.6167,2.6167,2.5073,2.25,2.1897,2.204,2.2935,2.6017,2.9788,3.4036,3.7878,4.1402,4.481,4.4543,4.2369,3.8939,3.7988,3.3701,2.7372,2.3964,2.2445,2.3158,3.0472,3.3607,3.5122,0.6472,0.5413,0.4231,0.0696,0.0,0.0,0.0,0.0,0.0,0.0,0.0,0.0,0.0,0.0,0.0,0.0,0.1704,0.29,0.2863,0.4621,0.4847,0.2873,0.2834,0.1954,0.0,0.0,0.0,0.0,0.0,0.0,0.013,0.3482,0.5147,0.5147,0.6864,0.5852,0.2605,0.2473,0.1556,0.0129,0.1812,0.5557,0.9676,0.4512,0.5658,0.9378,0.2448,0.0,0.053,0.4229,0.5456,0.6038,0.9514,1.3292,1.6153,1.6153,1.8763,2.1652,2.1584,2.1564,2.153,2.1367,2.1157,2.098,2.0912,2.0716,2.0539,2.0539,2.0539,2.0594,2.0736,2.0845,2.0892,2.0878,2.0824,2.0716,2.056,2.0539,2.0573,2.0648,2.0594,2.0627,2.0858,2.0824,2.077,2.077,2.077,2.14,2.2684,2.282,2.2805,2.2547,2.2631,2.2079,2.077,2.0933,2.1109,2.1333,2.5195,2.9193,3.3218,3.6946,4.0744,4.4409,4.4262,4.1073,3.5758,3.1712,2.8021,2.4797,2.309,2.3484,2.572,3.1141,3.4448,3.6993,0.4915,0.4253,0.3337,0.0431,0.0,0.0,0.0,0.0,0.0,0.0,0.0,0.0,0.0,0.0,0.0,0.0,0.0,0.0,0.0,0.0,0.0,0.0,0.0,0.0,0.0,0.0,0.0,0.0,0.0,0.0,0.0,0.2713,0.3992,0.3992,0.3992,0.2584,0.0,0.0,0.0,0.0,0.0775,0.4381,0.8611,0.3095,0.4512,0.8352,0.219,0.0,0.0527,0.4208,0.5836,0.7108,1.0717,1.4338,1.734,1.7395,1.9463,2.1672,2.1638,2.1618,2.1584,2.1421,2.1197,2.1001,2.0967,2.0736,2.0539,2.0539,2.0539,2.0594,2.0736,2.0845,2.0878,2.0824,2.0858,2.0824,2.0614,2.056,2.056,2.0594,2.0614,2.0682,2.0811,2.098,2.1055,2.0967,2.0878,2.0668,2.0295,2.0383,2.0315,2.001,2.0187,2.0438,2.077,2.1034,2.1279,2.1496,2.4762,2.8605,3.2971,3.5967,3.9858,4.4008,4.4008,3.9931,3.2621,2.6147,2.3013,2.2337,2.2337,2.4102,2.6945,3.0725,3.3928,3.6993,0.1255,0.0568,0.0434,0.0,0.0,0.0,0.0,0.0,0.0,0.0,0.0,0.0,0.0,0.0,0.0,0.0,0.0,0.0,0.0,0.0,0.0,0.0,0.0,0.0,0.0,0.0,0.0,0.0,0.0,0.0,0.0,0.0387,0.0516,0.0516,0.0516,0.0257,0.0,0.0,0.0,0.0256,0.3364,0.5049,0.5535,0.4927,0.5049,0.5147,0.1289,0.0,0.0527,0.4208,0.7558,1.0851,1.4463,1.8169,2.1083,2.0964,2.129,2.1638,2.1496,2.1455,2.1421,2.1265,2.1123,2.0967,2.0824,2.0668,2.0539,2.0539,2.0539,2.0594,2.0736,2.0668,2.0661,2.0933,2.0756,2.0627,2.0736,2.0627,2.0594,2.0736,2.0878,2.0967,2.098,2.1231,2.1231,2.0824,2.0912,2.0736,2.0153,2.0139,2.001,1.9712,1.9976,2.0329,2.077,2.0933,2.1231,2.1652,2.2088,2.5961,3.2961,3.3259,3.7266,4.4008,4.4008,3.9931,3.2911,2.8839,2.5324,2.2337,2.2337,2.2468,2.3282,2.6937,2.8335,2.9124,0.0288,0.0,0.0,0.0,0.0,0.0,0.0,0.0,0.0,0.0,0.0,0.0,0.0,0.0,0.0,0.0,0.0,0.0,0.0,0.0,0.0,0.0,0.0,0.0,0.0,0.0,0.0,0.0,0.0,0.0,0.0,0.0,0.0,0.0,0.0,0.0,0.0,0.0,0.0,0.0128,0.1547,0.4515,0.7716,0.3617,0.4644,0.7456,0.1942,0.0,0.0264,0.172,0.4531,0.8581,1.4329,1.7174,1.8704,2.0896,2.1564,2.155,2.1564,2.1509,2.1421,2.1367,2.1177,2.098,2.0933,2.0716,2.0539,2.0539,2.0539,2.056,2.0627,1.8973,1.8217,2.0324,1.8876,1.8333,2.0386,2.0573,2.0539,2.0505,2.0627,2.0716,2.0716,2.1001,2.1068,2.079,2.0912,2.0702,1.9997,2.0051,2.001,1.98,1.9997,2.0363,2.0912,2.1055,2.1319,2.1672,2.1848,2.4668,2.9744,3.2029,3.7125,4.3705,3.9219,3.5733,3.2766,2.683,2.3479,2.2482,2.4895,2.5676,2.6002,2.9792,3.1072,3.0864,0.0,0.0,0.0,0.0,0.0,0.0,0.0,0.0,0.0,0.0,0.0,0.0,0.0,0.0,0.0,0.0,0.0,0.0,0.0,0.0,0.0,0.0,0.0,0.0,0.0,0.0,0.0,0.0,0.0,0.0,0.0,0.0,0.0,0.0,0.0,0.0,0.0,0.0,0.0,0.0,0.0,0.2968,0.6684,0.1808,0.2971,0.6583,0.1691,0.0,0.0,0.0,0.1739,0.5101,1.219,1.5277,1.6768,2.0483,2.153,2.1455,2.1584,2.153,2.1421,2.1387,2.119,2.098,2.0946,2.0736,2.0539,2.0539,2.0539,2.0151,1.9248,1.714,1.6019,1.7384,1.5613,1.5233,1.8546,1.9025,1.9363,2.0338,2.0594,2.0661,2.0614,2.0878,2.0933,2.0594,2.0716,2.0526,1.9908,1.9942,1.9922,1.982,2.0051,2.0417,2.0933,2.1123,2.1333,2.1597,2.1862,2.3878,2.7663,3.2492,3.8186,4.3705,3.7209,3.4577,3.4219,2.6748,2.3825,2.4102,2.6947,2.7197,2.6558,3.0484,3.1062,2.9467,0.0,0.0,0.0,0.0,0.0,0.0,0.0,0.0,0.0,0.0,0.0,0.0,0.0,0.0,0.0,0.0,0.0,0.0,0.0,0.0,0.0,0.0,0.0,0.0,0.0,0.0,0.0,0.0,0.0,0.0,0.0,0.0,0.0,0.0,0.0,0.0,0.0,0.0,0.0,0.0,0.0,0.0,0.0129,0.0,0.0,0.013,0.0,0.0,0.0,0.0,0.0,0.1346,0.8447,1.3258,1.6742,2.0367,2.1441,2.1441,2.1441,2.1441,2.1408,2.1245,2.1109,2.0967,2.0811,2.0648,2.0539,2.0539,2.0539,1.9509,1.6041,1.5403,1.4415,1.1149,1.0455,1.1582,1.5154,1.5598,1.6734,2.0358,2.0892,2.0933,2.079,2.1034,2.0912,2.0173,2.0261,2.0207,1.9888,1.9752,1.9664,1.9664,2.0098,2.0471,2.077,2.1068,2.1285,2.1441,2.1597,2.3613,2.7617,3.5101,4.0463,4.385,4.0036,3.8449,3.8006,3.0509,2.7579,2.7612,2.7757,2.5453,2.2751,2.6413,2.5373,2.2038,0.0,0.0,0.0,0.0,0.0,0.0,0.0,0.0,0.0,0.0,0.0,0.0,0.0,0.0,0.0,0.0,0.0,0.0,0.0,0.0,0.0,0.0,0.0,0.0,0.0,0.0,0.0,0.0,0.0,0.0,0.0,0.0,0.0,0.0,0.0,0.0,0.0,0.0,0.0,0.0,0.0,0.1421,0.3221,0.0905,0.1428,0.3127,0.0787,0.0,0.0,0.0,0.0,0.1211,0.8447,1.1515,1.3663,1.9563,2.1441,2.1441,2.1441,2.1441,2.1421,2.1387,2.1245,2.1109,2.0967,1.8907,1.7715,2.0018,1.6806,1.3989,1.5143,1.1551,0.8877,1.0177,0.8366,0.8748,1.4676,1.5429,1.6673,2.0098,2.0682,2.079,2.0627,2.0892,2.0933,2.058,2.0505,2.0261,1.9752,1.9786,1.9854,1.9963,2.0295,2.0661,2.1068,2.1157,2.1387,2.174,2.1794,2.3827,2.7723,3.27,3.6959,4.0052,3.629,3.47,3.4364,2.6892,2.5513,2.808,2.808,2.7401,2.6452,2.7668,2.5492,2.2181,0.0,0.0,0.0,0.0,0.0,0.0,0.0,0.0,0.0,0.0,0.0,0.0,0.0,0.0,0.0,0.0,0.0,0.0,0.0,0.0,0.0,0.0,0.0,0.0,0.0,0.0,0.0,0.0,0.0,0.0,0.0,0.0,0.0,0.0,0.0,0.0,0.0,0.0,0.0,0.0,0.0,0.1289,0.2963,0.0774,0.1297,0.2878,0.0789,0.0,0.0,0.0,0.0,0.1216,0.8508,1.0785,1.2095,1.9304,2.1441,2.1441,2.1441,2.1441,2.1441,2.1441,2.1279,2.0684,1.9295,1.7051,1.5663,1.6429,1.3213,1.0531,1.1424,0.7967,0.5405,0.6302,0.4633,0.5658,1.2447,1.3482,1.526,1.9985,2.0716,2.0824,2.0716,2.0892,2.0858,2.0539,2.0383,2.0098,1.9678,1.9854,2.0031,2.0187,2.0471,2.0824,2.1211,2.1319,2.155,2.1882,2.2004,2.407,2.8004,3.1728,3.4752,3.6532,3.425,3.3151,3.272,2.5231,2.447,2.8055,2.8055,2.7117,2.6168,2.7522,2.5515,2.2249,0.0,0.0,0.0,0.0,0.0,0.0,0.0,0.0,0.0,0.0,0.0,0.0,0.0,0.0,0.0,0.0,0.0,0.0,0.0,0.0,0.0,0.0,0.0,0.0,0.0,0.0,0.0,0.0,0.0,0.0,0.0,0.0,0.0,0.0,0.0,0.0,0.0,0.0,0.0,0.0,0.0,0.0,0.0,0.0,0.0,0.0,0.0,0.0,0.0,0.0,0.0,0.1225,0.8605,1.0755,1.2172,1.934,2.1441,2.1441,2.1441,2.1441,2.1441,2.1441,2.1211,2.0013,1.6254,1.5286,1.4121,1.0908,0.9884,0.8611,0.5658,0.489,0.3734,0.0516,0.0,0.2448,0.9375,1.0271,1.2868,1.9979,2.0912,2.1001,2.1021,2.0734,2.0506,2.0207,1.9763,1.9622,1.9732,1.9976,2.0187,2.0329,2.0627,2.0933,2.1231,2.153,2.174,2.1903,2.2215,2.4219,2.7776,3.1682,3.3287,3.3277,3.3195,3.3115,3.252,2.5263,2.4529,2.7774,2.7509,2.5492,2.3055,2.6171,2.5125,2.2181,0.0,0.0,0.0,0.0,0.0,0.0,0.0,0.0,0.0,0.0,0.0,0.0,0.0,0.0,0.0,0.0,0.0,0.0,0.0,0.0,0.0,0.0,0.0,0.0,0.0,0.0,0.0,0.0,0.0,0.0,0.0,0.0,0.0,0.0,0.0,0.0,0.0,0.0,0.0,0.0,0.0,0.0,0.0,0.0,0.0,0.0,0.0,0.0,0.0,0.0,0.0,0.1225,0.8605,1.0935,1.2264,1.9481,2.153,2.1441,2.1441,2.1441,2.1441,2.1441,2.1211,2.0065,1.6576,1.3585,1.1296,1.0528,0.6045,0.2961,0.4762,0.2963,0.0903,0.0129,0.0,0.2448,0.9375,1.0271,1.2868,1.9979,2.0912,2.1034,2.1157,1.8676,1.8184,2.054,1.8091,1.7562,2.0203,2.0397,2.0397,2.0329,2.0736,2.1089,2.1387,2.1584,2.1794,2.2059,2.2479,2.3041,2.408,2.7955,2.9551,2.9419,2.9514,2.9399,2.8992,2.4438,2.4686,2.783,2.497,2.5038,2.6668,2.4755,2.3349,2.2622,0.0,0.0,0.0,0.0,0.0,0.0,0.0,0.0,0.0,0.0,0.0,0.0,0.0,0.0,0.0,0.0,0.0,0.0,0.0,0.0,0.0,0.0,0.0,0.0,0.0,0.0,0.0,0.0,0.0,0.0,0.0,0.0,0.0,0.0,0.0,0.0,0.0,0.0,0.0,0.0,0.0,0.0,0.0,0.0,0.0,0.0,0.0,0.0,0.0,0.0,0.0,0.0962,0.6624,0.9646,1.1945,1.7652,2.0356,2.153,2.1455,2.1441,2.1421,2.1353,2.1211,1.9764,1.4565,1.183,0.9424,0.6201,0.2581,0.0516,0.2448,0.1289,0.0,0.0,0.0,0.1804,0.7199,0.9247,1.2347,1.775,1.998,2.0397,1.8934,1.7039,1.5921,1.6131,1.5664,1.6168,1.7964,1.9578,2.0471,2.0526,2.0892,2.1245,2.155,2.1828,2.2059,2.2215,2.2534,2.2642,2.27,2.6744,2.7567,2.5948,2.7691,2.7437,2.5423,2.3489,2.3808,2.5325,2.3341,2.3851,2.5446,2.3595,2.2784,2.2784,0.0,0.0,0.0,0.0,0.0,0.0,0.0,0.0,0.0,0.0,0.0,0.0,0.0,0.0,0.0,0.0,0.0,0.0,0.0,0.0,0.0,0.0,0.0,0.0,0.0,0.0,0.0,0.0,0.0,0.0,0.0,0.0,0.0,0.0,0.0,0.0,0.0,0.0,0.0,0.0,0.0,0.0,0.0,0.0,0.0,0.0,0.0,0.0,0.0,0.0,0.0,0.0694,0.4456,0.7635,1.0903,1.5155,1.8574,2.0962,2.1376,2.1455,2.1408,2.1279,2.1211,1.9291,1.2105,1.0445,0.8446,0.1434,0.0,0.0,0.0,0.0,0.0,0.0,0.0,0.1418,0.5276,0.848,1.1843,1.5969,1.908,1.9614,1.6319,1.538,1.3752,1.0517,1.2445,1.4145,1.5168,1.8013,1.9985,2.079,2.1068,2.1387,2.174,2.2147,2.2337,2.2337,2.2479,2.2554,2.2693,2.6206,2.6071,2.3157,2.651,2.5968,2.2784,2.2764,2.2588,2.2357,2.252,2.2588,2.2608,2.2784,2.2852,2.2852,0.0,0.0,0.0,0.0,0.0,0.0,0.0,0.0,0.0,0.0,0.0,0.0,0.0,0.0,0.0,0.0,0.0,0.0,0.0,0.0,0.0,0.0,0.0,0.0,0.0,0.0,0.0,0.0,0.0,0.0,0.0,0.0,0.0,0.0,0.0,0.0,0.0,0.0,0.0,0.0,0.0,0.0,0.0,0.0,0.0,0.0,0.0,0.0,0.0,0.0,0.0,0.0688,0.4401,0.6048,0.7676,1.4412,1.6669,1.7864,2.0828,2.155,2.1441,2.1408,2.1211,1.921,1.2287,1.0482,0.8314,0.1434,0.0,0.0,0.0,0.0,0.0,0.0,0.0,0.219,0.8611,1.0012,1.277,1.9346,2.0714,1.9646,1.6429,1.3294,1.1259,1.0463,0.8107,0.9203,1.5026,1.5822,1.7675,2.083,2.1123,2.1475,2.2038,2.2235,2.2337,2.2337,2.2479,2.2554,2.2574,2.3418,2.3564,2.3008,2.3598,2.3508,2.2764,2.2642,2.2479,2.2378,2.2642,2.2744,2.2784,2.3049,2.3151,2.3151,0.0,0.0,0.0,0.0,0.0,0.0,0.0,0.0,0.0,0.0,0.0,0.0,0.0,0.0,0.0,0.0,0.0,0.0,0.0,0.0,0.0,0.0,0.0,0.0,0.0,0.0,0.0,0.0,0.0,0.0,0.0,0.0,0.0,0.0,0.0,0.0,0.0,0.0,0.0,0.0,0.0,0.0,0.0,0.0,0.0,0.0,0.0,0.0,0.0,0.0,0.0,0.0276,0.2062,0.3978,0.6573,1.1852,1.611,1.9389,2.1137,2.1496,2.1441,2.1441,2.1333,1.9384,1.2253,1.0578,0.8529,0.1444,0.0,0.0,0.0,0.0,0.0,0.0,0.1547,0.3862,0.7071,1.0659,1.432,1.7801,1.9817,1.8986,1.3641,1.1623,0.9058,0.5185,0.5002,0.7309,1.2336,1.4439,1.7179,2.0864,2.1299,2.1672,2.2113,2.2181,2.2215,2.2215,2.2378,2.2391,2.2323,2.271,2.2832,2.2784,2.294,2.2873,2.2656,2.2588,2.2466,2.2378,2.2656,2.2784,2.2818,2.3117,2.3219,2.3219,0.0,0.0,0.0,0.0,0.0,0.0,0.0,0.0,0.0,0.0,0.0,0.0,0.0,0.0,0.0,0.0,0.0,0.0,0.0,0.0,0.0,0.0,0.0,0.0,0.0,0.0,0.0,0.0,0.0,0.0,0.0,0.0,0.0,0.0,0.0,0.0,0.0,0.0,0.0,0.0,0.0,0.0,0.0,0.0,0.0,0.0,0.0,0.0,0.0,0.0,0.0,0.0,0.0,0.1914,0.5185,0.9532,1.5796,2.1441,2.1441,2.1441,2.1441,2.1441,2.1387,1.9483,1.2316,1.0646,0.8587,0.1451,0.0,0.0,0.0,0.0,0.0258,0.1032,0.3348,0.5664,0.7328,1.2091,1.5901,1.6885,1.8658,1.7443,1.1238,0.9903,0.6811,0.0533,0.2376,0.5754,1.0131,1.2761,1.6281,2.0864,2.1441,2.1794,2.2059,2.2059,2.2059,2.2059,2.2181,2.2201,2.2127,2.25,2.2642,2.2574,2.2798,2.2764,2.2554,2.252,2.2445,2.2357,2.2622,2.2744,2.2818,2.3083,2.3185,2.3219,0.0,0.0,0.0,0.0,0.0,0.0,0.0,0.0,0.0,0.0,0.0,0.0,0.0,0.0,0.0,0.0,0.0,0.0,0.0,0.0,0.0,0.0,0.0,0.0,0.0,0.0,0.0,0.0,0.0,0.0,0.0,0.0,0.0,0.0,0.0,0.0,0.0,0.0,0.0,0.0,0.0,0.0,0.0,0.0,0.0,0.0,0.0,0.0,0.0,0.0,0.0,0.0,0.0,0.0135,0.1751,0.8728,1.5815,2.1441,2.1441,2.1441,2.1441,2.1441,2.1231,1.9241,1.2285,1.0469,0.8406,0.145,0.0,0.0,0.0,0.0,0.1032,0.425,0.489,0.7328,1.3729,1.5233,1.6905,2.0181,1.807,1.4749,1.1111,0.7735,0.4123,0.0267,0.0263,0.3257,0.9992,1.0573,1.3824,2.0734,2.1441,2.174,2.1903,2.1903,2.1903,2.1903,2.1916,2.1991,2.2113,2.2289,2.2445,2.2554,2.2574,2.2574,2.2534,2.2411,2.2357,2.2357,2.252,2.2656,2.2798,2.2961,2.3117,2.3205,0.0,0.0,0.0,0.0,0.0,0.0,0.0,0.0,0.0,0.0,0.0,0.0,0.0,0.0,0.0,0.0,0.0,0.0,0.0,0.0,0.0,0.0,0.0,0.0,0.0,0.0,0.0,0.0,0.0,0.0,0.0,0.0,0.0,0.0,0.0,0.0,0.0,0.0,0.0,0.0,0.0,0.0,0.0,0.0,0.0,0.0,0.0,0.0,0.0,0.0,0.0,0.0,0.0,0.0,0.1346,0.8581,1.2587,1.5262,1.7551,1.9702,2.1441,2.1441,1.9621,1.6747,1.1844,0.8888,0.594,0.1049,0.0,0.0,0.0,0.0,0.1168,0.4534,0.6859,0.9953,1.4858,1.7487,1.9412,2.0972,1.9978,1.6978,1.1306,0.943,0.622,0.0395,0.0,0.2989,0.9933,1.4524,1.8167,2.0992,2.1387,2.1597,2.174,2.176,2.176,2.176,2.1848,2.1916,2.1971,2.2235,2.2378,2.2425,2.2425,2.2425,2.2411,2.2255,2.2249,2.2357,2.25,2.2642,2.2784,2.2852,2.2961,2.3063,0.0,0.0,0.0,0.0,0.0,0.0,0.0,0.0,0.0,0.0,0.0,0.0,0.0,0.0,0.0,0.0,0.0,0.0,0.0,0.0,0.0,0.0,0.0,0.0,0.0,0.0,0.0,0.0,0.0,0.0,0.0,0.0,0.0,0.0,0.0,0.0,0.0,0.0,0.0,0.0,0.0,0.0,0.0,0.0,0.0,0.0,0.0,0.0,0.0,0.0,0.0,0.0,0.0,0.0808,0.269,0.7646,0.9785,1.1248,1.3752,1.6142,1.8291,1.9363,1.6927,1.3686,1.1241,0.7925,0.4347,0.0784,0.0,0.0,0.0,0.0,0.1434,0.6112,0.8835,1.1944,1.6597,1.9412,2.0946,2.1055,2.0102,1.7608,1.2686,1.0284,0.6963,0.1956,0.1561,0.4664,1.1594,1.7754,2.1089,2.1143,2.1333,2.1475,2.153,2.1584,2.1597,2.1597,2.1706,2.1794,2.1882,2.2093,2.2215,2.2269,2.2269,2.2235,2.2201,2.2127,2.2181,2.2289,2.2432,2.2567,2.271,2.2656,2.2744,2.2852,0.0,0.0,0.0,0.0,0.0,0.0,0.0,0.0,0.0,0.0,0.0,0.0,0.0,0.0,0.0,0.0,0.0,0.0,0.0,0.0,0.0,0.0,0.0,0.0,0.0,0.0,0.0,0.0,0.0,0.0,0.0,0.0,0.0,0.0,0.0,0.0,0.0,0.0,0.0,0.0,0.0,0.0,0.0,0.0,0.0,0.0,0.0,0.0,0.0,0.0,0.0,0.0,0.0,0.2421,0.5371,0.5371,0.7914,1.0567,1.0622,1.0605,1.1395,1.498,1.3187,1.05,1.05,0.7708,0.4036,0.0652,0.0,0.0,0.0,0.0,0.2345,0.9351,1.0517,1.2979,1.9863,2.1021,2.1109,2.0811,1.7876,1.5852,1.5614,0.9257,0.5074,0.5074,0.517,0.8251,1.5169,1.9192,2.1143,2.1001,2.1279,2.1367,2.1211,2.1367,2.1441,2.1441,2.1441,2.1597,2.1882,2.1882,2.1971,2.2113,2.2113,2.2025,2.1903,2.2038,2.2113,2.2127,2.2269,2.2432,2.2534,2.2391,2.2432,2.2534,0.0,0.0,0.0,0.0,0.0,0.0,0.0,0.0,0.0,0.0,0.0,0.0,0.0,0.0,0.0,0.0,0.0,0.0,0.0,0.0,0.0,0.0,0.0,0.0,0.0,0.0,0.0,0.0,0.0,0.0,0.0,0.0,0.0,0.0,0.0,0.0,0.0,0.0,0.0,0.0,0.0,0.0,0.0,0.0,0.0,0.0,0.0,0.0,0.0,0.0,0.0,0.0,0.0,0.0808,0.215,0.4671,0.44,0.3728,0.6335,0.5142,0.4618,1.0665,0.9598,0.6952,0.6916,0.4169,0.1171,0.0259,0.0,0.0,0.0,0.1965,0.5109,0.9682,1.2365,1.5571,2.0127,2.0845,2.0912,2.0933,1.7977,1.4817,1.2247,0.7937,0.5192,0.5164,0.9692,1.3522,1.5801,1.9303,2.1197,2.1143,2.1231,2.1211,2.1068,2.1319,2.1441,2.1441,2.1441,2.155,2.174,2.174,2.1815,2.195,2.1848,2.1828,2.1882,2.1828,2.1862,2.195,2.2004,2.2113,2.2215,2.2079,2.2113,2.2215,0.0,0.0,0.0,0.0,0.0,0.0,0.0,0.0,0.0,0.0,0.0,0.0,0.0,0.0,0.0,0.0,0.0,0.0,0.0,0.0,0.0,0.0,0.0,0.0,0.0,0.0,0.0,0.0,0.0,0.0,0.0,0.0,0.0,0.0,0.0,0.0,0.0,0.0,0.0,0.0,0.0,0.0,0.0,0.0,0.0,0.0,0.0,0.0,0.0,0.0,0.0,0.0,0.0,0.0,0.0404,0.2675,0.1739,0.0535,0.2649,0.1716,0.1053,0.537,0.4847,0.366,0.4927,0.2595,0.0,0.0,0.0,0.0391,0.1828,0.366,0.6672,1.1628,1.4179,1.6743,2.0243,2.0824,2.0329,1.9,1.6949,1.4322,1.073,0.8531,0.7883,0.9158,1.3272,1.6543,1.8026,2.0067,2.1245,2.1123,2.1177,2.1109,2.0912,2.1143,2.1299,2.1353,2.1408,2.153,2.1672,2.1672,2.1726,2.1794,2.1706,2.1686,2.1706,2.1686,2.1726,2.1815,2.1862,2.1937,2.2004,2.1848,2.1862,2.1916,0.0,0.0,0.0,0.0,0.0,0.0,0.0,0.0,0.0,0.0,0.0,0.0,0.0,0.0,0.0,0.0,0.0,0.0,0.0,0.0,0.0,0.0,0.0,0.0,0.0,0.0,0.0,0.0,0.0,0.0,0.0,0.0,0.0,0.0,0.0,0.0,0.0,0.0,0.0,0.0,0.0,0.0,0.0,0.0,0.0,0.0,0.0,0.0,0.0,0.0,0.0,0.0,0.0,0.0,0.0,0.0,0.0269,0.0537,0.0534,0.053,0.0527,0.0523,0.0261,0.0782,0.387,0.219,0.0,0.0,0.026,0.143,0.4515,0.5568,0.8184,1.4524,1.5809,1.6978,1.9844,2.0478,1.9147,1.5429,1.4843,1.3576,1.0538,1.0531,1.2111,1.5442,1.6173,1.7906,2.1093,2.1367,2.1299,2.1021,2.1123,2.1055,2.0756,2.0892,2.1055,2.1197,2.1353,2.1496,2.1618,2.1618,2.1618,2.1618,2.1618,2.155,2.1441,2.1584,2.1652,2.1672,2.1794,2.1848,2.1828,2.1706,2.1652,2.1652,0.0,0.0,0.0,0.0,0.0,0.0,0.0,0.0,0.0,0.0,0.0,0.0,0.0,0.0,0.0,0.0,0.0,0.0,0.0,0.0,0.0,0.0,0.0,0.0,0.0,0.0,0.0,0.0,0.0,0.0,0.0,0.0,0.0,0.0,0.0,0.0,0.0,0.0,0.0,0.0,0.0,0.0,0.0,0.0,0.0,0.0,0.0,0.0,0.0,0.0,0.0,0.0,0.0,0.0,0.0,0.0,0.2001,0.4257,0.4225,0.4215,0.4208,0.4202,0.2102,0.0131,0.0906,0.0516,0.0,0.0,0.2074,0.4162,0.4936,0.9471,1.3621,1.5179,1.7692,1.8777,1.685,1.6617,1.5326,1.1811,0.9005,0.8109,1.0143,1.277,1.4802,1.5824,1.8469,2.0469,2.1255,2.1421,2.1299,2.1021,2.1034,2.0892,2.0594,2.0736,2.0892,2.1055,2.1197,2.1231,2.1143,2.1265,2.1245,2.1157,2.1265,2.1299,2.1265,2.1421,2.1496,2.1496,2.153,2.153,2.153,2.1496,2.1496,2.1496,0.0,0.0,0.0,0.0,0.0,0.0,0.0,0.0,0.0,0.0,0.0,0.0,0.0,0.0,0.0,0.0,0.0,0.0,0.0,0.0,0.0,0.0,0.0,0.0,0.0,0.0,0.0,0.0,0.0,0.0,0.0,0.0,0.0,0.0,0.0,0.0,0.0,0.0,0.0,0.0,0.0,0.0,0.0,0.0,0.0,0.0,0.0,0.0,0.0,0.0,0.0,0.0,0.0,0.0,0.0404,0.2009,0.3877,0.5335,0.5451,0.5428,0.5023,0.3306,0.1453,0.0,0.0,0.0,0.0,0.0,0.1434,0.3127,0.4814,0.8033,1.0984,1.2654,1.4533,1.5015,1.3222,1.4377,1.4121,1.0659,1.0143,1.0787,1.2579,1.4515,1.6458,1.8226,2.0134,2.1353,2.1441,2.1367,2.1231,2.1001,2.0933,2.077,2.0539,2.0627,2.0702,2.079,2.1001,2.1068,2.1001,2.1068,2.1068,2.1001,2.1157,2.1211,2.1231,2.1367,2.1441,2.1441,2.1441,2.1441,2.1441,2.1441,2.1441,2.1441,0.0,0.0,0.0,0.0,0.0,0.0,0.0,0.0,0.0,0.0,0.0,0.0,0.0,0.0,0.0,0.0,0.0,0.0,0.0,0.0,0.0,0.0,0.0,0.0,0.0,0.0,0.0,0.0,0.0,0.0,0.0,0.0,0.0,0.0,0.0,0.0,0.0,0.0,0.0,0.0,0.0,0.0,0.0,0.0,0.0,0.0,0.0,0.0,0.0,0.0,0.0,0.0,0.0,0.0,0.0539,0.3629,0.4974,0.5379,0.5366,0.5343,0.4659,0.1732,0.0398,0.0,0.0,0.0,0.0,0.0,0.0524,0.1693,0.4546,0.5563,0.6952,0.9782,1.0299,1.0055,0.9537,1.236,1.3248,0.9782,1.2988,1.5429,1.5429,1.6285,1.7994,2.0767,2.1279,2.1421,2.1408,2.1279,2.1143,2.0967,2.0845,2.0702,2.0539,2.0539,2.0539,2.0539,2.0804,2.0933,2.0933,2.0946,2.0946,2.0933,2.1068,2.1157,2.1197,2.1333,2.1421,2.1441,2.1441,2.1441,2.1441,2.1441,2.1441,2.1441,0.0,0.0,0.0,0.0,0.0,0.0,0.0,0.0,0.0,0.0,0.0,0.0,0.0,0.0,0.0,0.0,0.0,0.0,0.0,0.0,0.0,0.0,0.0,0.0,0.0,0.0,0.0,0.0,0.0,0.0,0.0,0.0,0.0,0.0,0.0,0.0,0.0,0.0,0.0,0.0,0.0,0.0,0.0,0.0,0.0,0.0,0.0,0.0,0.0,0.0,0.0,0.0,0.0,0.0,0.0136,0.054,0.2971,0.5405,0.534,0.534,0.5223,0.4789,0.2272,0.0,0.0,0.0,0.0,0.0,0.2347,0.4546,0.5032,0.7501,0.9724,1.0237,1.0298,0.9288,0.6288,0.885,0.9724,0.6231,1.1533,1.5536,1.5536,1.8498,2.0653,2.1177,2.1333,2.1387,2.1245,2.1231,2.1089,2.0811,2.079,2.0702,2.0539,2.0539,2.0539,2.0539,2.0573,2.0614,2.0614,2.0736,2.0736,2.0614,2.077,2.0912,2.1034,2.1177,2.1319,2.1441,2.1441,2.1441,2.1441,2.1441,2.1441,2.1441,0.0,0.0,0.0,0.0,0.0,0.0,0.0,0.0,0.0,0.0,0.0,0.0,0.0,0.0,0.0,0.0,0.0,0.0,0.0,0.0,0.0,0.0,0.0,0.0,0.0,0.0,0.0,0.0,0.0,0.0,0.0,0.0,0.0,0.0,0.0,0.0,0.0,0.0,0.0,0.0,0.0,0.0,0.0,0.0,0.0,0.0,0.0,0.0,0.0,0.0,0.0,0.0,0.0,0.0,0.0406,0.2435,0.4175,0.5362,0.5348,0.5343,0.4938,0.2942,0.1209,0.0,0.0,0.0,0.0,0.0,0.1191,0.224,0.2233,0.3538,0.458,0.458,0.4595,0.3945,0.2502,0.6945,1.1215,1.363,1.6614,1.8393,1.8315,1.9928,2.1001,2.1089,2.1231,2.1319,2.1333,2.1265,2.1157,2.1021,2.0858,2.0736,2.0668,2.058,2.058,2.0668,2.0668,2.0627,2.0539,2.0614,2.0614,2.056,2.079,2.0933,2.1021,2.1245,2.1387,2.1441,2.1441,2.1441,2.1441,2.1441,2.1441,2.1441]}]]